<?xml version="1.0" encoding="utf-8"?>
<gpx xmlns:xsi="http://www.w3.org/2001/XMLSchema-instance" xmlns:xsd="http://www.w3.org/2001/XMLSchema" version="1.1" creator="Shapelink.com" xmlns="http://www.topografix.com/GPX/1/1" xmlns:gpxtpx="http://www.garmin.com/xmlschemas/TrackPointExtension/v1">
  <metadata>
    <name>Ejecutar 5.32 km, 2019-12-03</name>
    <desc></desc>
    <author><name>Peter Littke</name></author> 
    <time>2019-12-03T06:29:31Z</time>
  </metadata>
  <trk>
    <name>Ejecutar 5.32 km, 2019-12-03</name>
    <trkseg>
      <trkpt lat="59.299148" lon="18.081819">
        <ele>44</ele>
        <time>2019-12-03T06:29:31Z</time>
      </trkpt>
      <trkpt lat="59.299174" lon="18.081921">
        <ele>44</ele>
        <time>2019-12-03T06:29:33Z</time>
      </trkpt>
      <trkpt lat="59.299181" lon="18.081973">
        <ele>45</ele>
        <time>2019-12-03T06:29:35Z</time>
      </trkpt>
      <trkpt lat="59.299187" lon="18.082021">
        <ele>45</ele>
        <time>2019-12-03T06:29:36Z</time>
      </trkpt>
      <trkpt lat="59.299189" lon="18.082073">
        <ele>0</ele>
        <time>2019-12-03T06:29:36Z</time>
      </trkpt>
      <trkpt lat="59.299187" lon="18.082127">
        <ele>45</ele>
        <time>2019-12-03T06:29:37Z</time>
      </trkpt>
      <trkpt lat="59.299177" lon="18.082177">
        <ele>45</ele>
        <time>2019-12-03T06:29:39Z</time>
      </trkpt>
      <trkpt lat="59.29916" lon="18.082217">
        <ele>0</ele>
        <time>2019-12-03T06:29:39Z</time>
      </trkpt>
      <trkpt lat="59.29914" lon="18.082246">
        <ele>45</ele>
        <time>2019-12-03T06:29:40Z</time>
      </trkpt>
      <trkpt lat="59.299119" lon="18.082273">
        <ele>45</ele>
        <time>2019-12-03T06:29:42Z</time>
      </trkpt>
      <trkpt lat="59.299098" lon="18.082294">
        <ele>45</ele>
        <time>2019-12-03T06:29:43Z</time>
      </trkpt>
      <trkpt lat="59.299076" lon="18.082315">
        <ele>45</ele>
        <time>2019-12-03T06:29:44Z</time>
      </trkpt>
      <trkpt lat="59.299052" lon="18.082333">
        <ele>45</ele>
        <time>2019-12-03T06:29:45Z</time>
      </trkpt>
      <trkpt lat="59.299026" lon="18.082351">
        <ele>45</ele>
        <time>2019-12-03T06:29:46Z</time>
      </trkpt>
      <trkpt lat="59.299" lon="18.082367">
        <ele>45</ele>
        <time>2019-12-03T06:29:47Z</time>
      </trkpt>
      <trkpt lat="59.298977" lon="18.082386">
        <ele>0</ele>
        <time>2019-12-03T06:29:47Z</time>
      </trkpt>
      <trkpt lat="59.298956" lon="18.082409">
        <ele>45</ele>
        <time>2019-12-03T06:29:48Z</time>
      </trkpt>
      <trkpt lat="59.298932" lon="18.082429">
        <ele>45</ele>
        <time>2019-12-03T06:29:49Z</time>
      </trkpt>
      <trkpt lat="59.298906" lon="18.082447">
        <ele>45</ele>
        <time>2019-12-03T06:29:50Z</time>
      </trkpt>
      <trkpt lat="59.298879" lon="18.082466">
        <ele>0</ele>
        <time>2019-12-03T06:29:51Z</time>
      </trkpt>
      <trkpt lat="59.298853" lon="18.08249">
        <ele>45</ele>
        <time>2019-12-03T06:29:52Z</time>
      </trkpt>
      <trkpt lat="59.298828" lon="18.082511">
        <ele>45</ele>
        <time>2019-12-03T06:29:54Z</time>
      </trkpt>
      <trkpt lat="59.298804" lon="18.082528">
        <ele>0</ele>
        <time>2019-12-03T06:29:54Z</time>
      </trkpt>
      <trkpt lat="59.29878" lon="18.082501">
        <ele>46</ele>
        <time>2019-12-03T06:29:57Z</time>
      </trkpt>
      <trkpt lat="59.298804" lon="18.082475">
        <ele>46</ele>
        <time>2019-12-03T06:29:59Z</time>
      </trkpt>
      <trkpt lat="59.298822" lon="18.082461">
        <ele>0</ele>
        <time>2019-12-03T06:29:59Z</time>
      </trkpt>
      <trkpt lat="59.298844" lon="18.082447">
        <ele>45</ele>
        <time>2019-12-03T06:30:00Z</time>
      </trkpt>
      <trkpt lat="59.298866" lon="18.082427">
        <ele>45</ele>
        <time>2019-12-03T06:30:01Z</time>
      </trkpt>
      <trkpt lat="59.298891" lon="18.082404">
        <ele>0</ele>
        <time>2019-12-03T06:30:02Z</time>
      </trkpt>
      <trkpt lat="59.298918" lon="18.082383">
        <ele>45</ele>
        <time>2019-12-03T06:30:03Z</time>
      </trkpt>
      <trkpt lat="59.298948" lon="18.08236">
        <ele>45</ele>
        <time>2019-12-03T06:30:05Z</time>
      </trkpt>
      <trkpt lat="59.298978" lon="18.082337">
        <ele>45</ele>
        <time>2019-12-03T06:30:06Z</time>
      </trkpt>
      <trkpt lat="59.299009" lon="18.082309">
        <ele>45</ele>
        <time>2019-12-03T06:30:07Z</time>
      </trkpt>
      <trkpt lat="59.299036" lon="18.082281">
        <ele>0</ele>
        <time>2019-12-03T06:30:07Z</time>
      </trkpt>
      <trkpt lat="59.299063" lon="18.082263">
        <ele>45</ele>
        <time>2019-12-03T06:30:08Z</time>
      </trkpt>
      <trkpt lat="59.299086" lon="18.082251">
        <ele>45</ele>
        <time>2019-12-03T06:30:09Z</time>
      </trkpt>
      <trkpt lat="59.299113" lon="18.082246">
        <ele>45</ele>
        <time>2019-12-03T06:30:10Z</time>
      </trkpt>
      <trkpt lat="59.29914" lon="18.082237">
        <ele>45</ele>
        <time>2019-12-03T06:30:12Z</time>
      </trkpt>
      <trkpt lat="59.299166" lon="18.082229">
        <ele>45</ele>
        <time>2019-12-03T06:30:13Z</time>
      </trkpt>
      <trkpt lat="59.2992" lon="18.082232">
        <ele>45</ele>
        <time>2019-12-03T06:30:14Z</time>
      </trkpt>
      <trkpt lat="59.299229" lon="18.082238">
        <ele>0</ele>
        <time>2019-12-03T06:30:14Z</time>
      </trkpt>
      <trkpt lat="59.299325" lon="18.08228">
        <ele>0</ele>
        <time>2019-12-03T06:30:17Z</time>
      </trkpt>
      <trkpt lat="59.299425" lon="18.082315">
        <ele>0</ele>
        <time>2019-12-03T06:30:20Z</time>
      </trkpt>
      <trkpt lat="59.29945" lon="18.082304">
        <ele>45</ele>
        <time>2019-12-03T06:30:21Z</time>
      </trkpt>
      <trkpt lat="59.299465" lon="18.082279">
        <ele>45</ele>
        <time>2019-12-03T06:30:23Z</time>
      </trkpt>
      <trkpt lat="59.299483" lon="18.082258">
        <ele>45</ele>
        <time>2019-12-03T06:30:24Z</time>
      </trkpt>
      <trkpt lat="59.299504" lon="18.08224">
        <ele>45</ele>
        <time>2019-12-03T06:30:25Z</time>
      </trkpt>
      <trkpt lat="59.299524" lon="18.082227">
        <ele>0</ele>
        <time>2019-12-03T06:30:25Z</time>
      </trkpt>
      <trkpt lat="59.299546" lon="18.082202">
        <ele>44</ele>
        <time>2019-12-03T06:30:26Z</time>
      </trkpt>
      <trkpt lat="59.299572" lon="18.082177">
        <ele>44</ele>
        <time>2019-12-03T06:30:27Z</time>
      </trkpt>
      <trkpt lat="59.299597" lon="18.082151">
        <ele>44</ele>
        <time>2019-12-03T06:30:28Z</time>
      </trkpt>
      <trkpt lat="59.299624" lon="18.082133">
        <ele>0</ele>
        <time>2019-12-03T06:30:29Z</time>
      </trkpt>
      <trkpt lat="59.29965" lon="18.082115">
        <ele>44</ele>
        <time>2019-12-03T06:30:30Z</time>
      </trkpt>
      <trkpt lat="59.299676" lon="18.082106">
        <ele>44</ele>
        <time>2019-12-03T06:30:32Z</time>
      </trkpt>
      <trkpt lat="59.299701" lon="18.082089">
        <ele>44</ele>
        <time>2019-12-03T06:30:33Z</time>
      </trkpt>
      <trkpt lat="59.299727" lon="18.082074">
        <ele>44</ele>
        <time>2019-12-03T06:30:34Z</time>
      </trkpt>
      <trkpt lat="59.29975" lon="18.082059">
        <ele>44</ele>
        <time>2019-12-03T06:30:35Z</time>
      </trkpt>
      <trkpt lat="59.299776" lon="18.082045">
        <ele>44</ele>
        <time>2019-12-03T06:30:36Z</time>
      </trkpt>
      <trkpt lat="59.299804" lon="18.082033">
        <ele>44</ele>
        <time>2019-12-03T06:30:37Z</time>
      </trkpt>
      <trkpt lat="59.299828" lon="18.082015">
        <ele>0</ele>
        <time>2019-12-03T06:30:37Z</time>
      </trkpt>
      <trkpt lat="59.299855" lon="18.081992">
        <ele>43</ele>
        <time>2019-12-03T06:30:38Z</time>
      </trkpt>
      <trkpt lat="59.299881" lon="18.081976">
        <ele>43</ele>
        <time>2019-12-03T06:30:40Z</time>
      </trkpt>
      <trkpt lat="59.29991" lon="18.081956">
        <ele>0</ele>
        <time>2019-12-03T06:30:40Z</time>
      </trkpt>
      <trkpt lat="59.299938" lon="18.081933">
        <ele>43</ele>
        <time>2019-12-03T06:30:41Z</time>
      </trkpt>
      <trkpt lat="59.299967" lon="18.081912">
        <ele>0</ele>
        <time>2019-12-03T06:30:42Z</time>
      </trkpt>
      <trkpt lat="59.299992" lon="18.08189">
        <ele>43</ele>
        <time>2019-12-03T06:30:43Z</time>
      </trkpt>
      <trkpt lat="59.300019" lon="18.081874">
        <ele>0</ele>
        <time>2019-12-03T06:30:44Z</time>
      </trkpt>
      <trkpt lat="59.300048" lon="18.081852">
        <ele>43</ele>
        <time>2019-12-03T06:30:45Z</time>
      </trkpt>
      <trkpt lat="59.300076" lon="18.081831">
        <ele>0</ele>
        <time>2019-12-03T06:30:46Z</time>
      </trkpt>
      <trkpt lat="59.3001" lon="18.08181">
        <ele>43</ele>
        <time>2019-12-03T06:30:47Z</time>
      </trkpt>
      <trkpt lat="59.300127" lon="18.08179">
        <ele>0</ele>
        <time>2019-12-03T06:30:48Z</time>
      </trkpt>
      <trkpt lat="59.300154" lon="18.081759">
        <ele>43</ele>
        <time>2019-12-03T06:30:49Z</time>
      </trkpt>
      <trkpt lat="59.30018" lon="18.081725">
        <ele>43</ele>
        <time>2019-12-03T06:30:51Z</time>
      </trkpt>
      <trkpt lat="59.300205" lon="18.081705">
        <ele>0</ele>
        <time>2019-12-03T06:30:51Z</time>
      </trkpt>
      <trkpt lat="59.300231" lon="18.081688">
        <ele>43</ele>
        <time>2019-12-03T06:30:52Z</time>
      </trkpt>
      <trkpt lat="59.300257" lon="18.081669">
        <ele>43</ele>
        <time>2019-12-03T06:30:54Z</time>
      </trkpt>
      <trkpt lat="59.300283" lon="18.081656">
        <ele>43</ele>
        <time>2019-12-03T06:30:55Z</time>
      </trkpt>
      <trkpt lat="59.30031" lon="18.081644">
        <ele>43</ele>
        <time>2019-12-03T06:30:56Z</time>
      </trkpt>
      <trkpt lat="59.300333" lon="18.081623">
        <ele>0</ele>
        <time>2019-12-03T06:30:56Z</time>
      </trkpt>
      <trkpt lat="59.300357" lon="18.081604">
        <ele>43</ele>
        <time>2019-12-03T06:30:57Z</time>
      </trkpt>
      <trkpt lat="59.300381" lon="18.081584">
        <ele>43</ele>
        <time>2019-12-03T06:30:59Z</time>
      </trkpt>
      <trkpt lat="59.300408" lon="18.081565">
        <ele>0</ele>
        <time>2019-12-03T06:30:59Z</time>
      </trkpt>
      <trkpt lat="59.300434" lon="18.081547">
        <ele>43</ele>
        <time>2019-12-03T06:31:00Z</time>
      </trkpt>
      <trkpt lat="59.300459" lon="18.081523">
        <ele>43</ele>
        <time>2019-12-03T06:31:02Z</time>
      </trkpt>
      <trkpt lat="59.300483" lon="18.081499">
        <ele>0</ele>
        <time>2019-12-03T06:31:02Z</time>
      </trkpt>
      <trkpt lat="59.300508" lon="18.081472">
        <ele>43</ele>
        <time>2019-12-03T06:31:03Z</time>
      </trkpt>
      <trkpt lat="59.300533" lon="18.08145">
        <ele>43</ele>
        <time>2019-12-03T06:31:05Z</time>
      </trkpt>
      <trkpt lat="59.300562" lon="18.081433">
        <ele>0</ele>
        <time>2019-12-03T06:31:05Z</time>
      </trkpt>
      <trkpt lat="59.300588" lon="18.081416">
        <ele>43</ele>
        <time>2019-12-03T06:31:06Z</time>
      </trkpt>
      <trkpt lat="59.300619" lon="18.081404">
        <ele>0</ele>
        <time>2019-12-03T06:31:07Z</time>
      </trkpt>
      <trkpt lat="59.300648" lon="18.081393">
        <ele>42</ele>
        <time>2019-12-03T06:31:08Z</time>
      </trkpt>
      <trkpt lat="59.300673" lon="18.081377">
        <ele>42</ele>
        <time>2019-12-03T06:31:10Z</time>
      </trkpt>
      <trkpt lat="59.300702" lon="18.081357">
        <ele>0</ele>
        <time>2019-12-03T06:31:10Z</time>
      </trkpt>
      <trkpt lat="59.300729" lon="18.08134">
        <ele>42</ele>
        <time>2019-12-03T06:31:11Z</time>
      </trkpt>
      <trkpt lat="59.300755" lon="18.08132">
        <ele>42</ele>
        <time>2019-12-03T06:31:13Z</time>
      </trkpt>
      <trkpt lat="59.30078" lon="18.0813">
        <ele>0</ele>
        <time>2019-12-03T06:31:13Z</time>
      </trkpt>
      <trkpt lat="59.300805" lon="18.081284">
        <ele>42</ele>
        <time>2019-12-03T06:31:14Z</time>
      </trkpt>
      <trkpt lat="59.300828" lon="18.081263">
        <ele>42</ele>
        <time>2019-12-03T06:31:16Z</time>
      </trkpt>
      <trkpt lat="59.300848" lon="18.081232">
        <ele>42</ele>
        <time>2019-12-03T06:31:17Z</time>
      </trkpt>
      <trkpt lat="59.300869" lon="18.081197">
        <ele>42</ele>
        <time>2019-12-03T06:31:18Z</time>
      </trkpt>
      <trkpt lat="59.300892" lon="18.081161">
        <ele>0</ele>
        <time>2019-12-03T06:31:18Z</time>
      </trkpt>
      <trkpt lat="59.300914" lon="18.081137">
        <ele>41</ele>
        <time>2019-12-03T06:31:19Z</time>
      </trkpt>
      <trkpt lat="59.300937" lon="18.081105">
        <ele>0</ele>
        <time>2019-12-03T06:31:20Z</time>
      </trkpt>
      <trkpt lat="59.300964" lon="18.08108">
        <ele>41</ele>
        <time>2019-12-03T06:31:21Z</time>
      </trkpt>
      <trkpt lat="59.30099" lon="18.081055">
        <ele>41</ele>
        <time>2019-12-03T06:31:23Z</time>
      </trkpt>
      <trkpt lat="59.301016" lon="18.081033">
        <ele>0</ele>
        <time>2019-12-03T06:31:23Z</time>
      </trkpt>
      <trkpt lat="59.301044" lon="18.081008">
        <ele>41</ele>
        <time>2019-12-03T06:31:24Z</time>
      </trkpt>
      <trkpt lat="59.30107" lon="18.080989">
        <ele>41</ele>
        <time>2019-12-03T06:31:25Z</time>
      </trkpt>
      <trkpt lat="59.301095" lon="18.080962">
        <ele>0</ele>
        <time>2019-12-03T06:31:26Z</time>
      </trkpt>
      <trkpt lat="59.30112" lon="18.080934">
        <ele>40</ele>
        <time>2019-12-03T06:31:27Z</time>
      </trkpt>
      <trkpt lat="59.301149" lon="18.08091">
        <ele>40</ele>
        <time>2019-12-03T06:31:29Z</time>
      </trkpt>
      <trkpt lat="59.301176" lon="18.080886">
        <ele>0</ele>
        <time>2019-12-03T06:31:29Z</time>
      </trkpt>
      <trkpt lat="59.301204" lon="18.080862">
        <ele>40</ele>
        <time>2019-12-03T06:31:30Z</time>
      </trkpt>
      <trkpt lat="59.301231" lon="18.080838">
        <ele>40</ele>
        <time>2019-12-03T06:31:32Z</time>
      </trkpt>
      <trkpt lat="59.301258" lon="18.080816">
        <ele>40</ele>
        <time>2019-12-03T06:31:33Z</time>
      </trkpt>
      <trkpt lat="59.301286" lon="18.080792">
        <ele>40</ele>
        <time>2019-12-03T06:31:34Z</time>
      </trkpt>
      <trkpt lat="59.301314" lon="18.080769">
        <ele>0</ele>
        <time>2019-12-03T06:31:34Z</time>
      </trkpt>
      <trkpt lat="59.301342" lon="18.080749">
        <ele>40</ele>
        <time>2019-12-03T06:31:35Z</time>
      </trkpt>
      <trkpt lat="59.30137" lon="18.080731">
        <ele>39</ele>
        <time>2019-12-03T06:31:37Z</time>
      </trkpt>
      <trkpt lat="59.301395" lon="18.080707">
        <ele>0</ele>
        <time>2019-12-03T06:31:37Z</time>
      </trkpt>
      <trkpt lat="59.301421" lon="18.080681">
        <ele>39</ele>
        <time>2019-12-03T06:31:38Z</time>
      </trkpt>
      <trkpt lat="59.301446" lon="18.080661">
        <ele>39</ele>
        <time>2019-12-03T06:31:40Z</time>
      </trkpt>
      <trkpt lat="59.301472" lon="18.08064">
        <ele>39</ele>
        <time>2019-12-03T06:31:41Z</time>
      </trkpt>
      <trkpt lat="59.3015" lon="18.08062">
        <ele>39</ele>
        <time>2019-12-03T06:31:42Z</time>
      </trkpt>
      <trkpt lat="59.301526" lon="18.080604">
        <ele>39</ele>
        <time>2019-12-03T06:31:43Z</time>
      </trkpt>
      <trkpt lat="59.301554" lon="18.080591">
        <ele>0</ele>
        <time>2019-12-03T06:31:43Z</time>
      </trkpt>
      <trkpt lat="59.30158" lon="18.080578">
        <ele>39</ele>
        <time>2019-12-03T06:31:44Z</time>
      </trkpt>
      <trkpt lat="59.301604" lon="18.080558">
        <ele>0</ele>
        <time>2019-12-03T06:31:45Z</time>
      </trkpt>
      <trkpt lat="59.301627" lon="18.080538">
        <ele>38</ele>
        <time>2019-12-03T06:31:46Z</time>
      </trkpt>
      <trkpt lat="59.301654" lon="18.080517">
        <ele>38</ele>
        <time>2019-12-03T06:31:48Z</time>
      </trkpt>
      <trkpt lat="59.30168" lon="18.080498">
        <ele>0</ele>
        <time>2019-12-03T06:31:48Z</time>
      </trkpt>
      <trkpt lat="59.301708" lon="18.080479">
        <ele>38</ele>
        <time>2019-12-03T06:31:49Z</time>
      </trkpt>
      <trkpt lat="59.301734" lon="18.080463">
        <ele>38</ele>
        <time>2019-12-03T06:31:51Z</time>
      </trkpt>
      <trkpt lat="59.301762" lon="18.080445">
        <ele>0</ele>
        <time>2019-12-03T06:31:51Z</time>
      </trkpt>
      <trkpt lat="59.30179" lon="18.080426">
        <ele>38</ele>
        <time>2019-12-03T06:31:52Z</time>
      </trkpt>
      <trkpt lat="59.301816" lon="18.080411">
        <ele>38</ele>
        <time>2019-12-03T06:31:54Z</time>
      </trkpt>
      <trkpt lat="59.301844" lon="18.080392">
        <ele>38</ele>
        <time>2019-12-03T06:31:55Z</time>
      </trkpt>
      <trkpt lat="59.301872" lon="18.080379">
        <ele>0</ele>
        <time>2019-12-03T06:31:55Z</time>
      </trkpt>
      <trkpt lat="59.301902" lon="18.080366">
        <ele>38</ele>
        <time>2019-12-03T06:31:56Z</time>
      </trkpt>
      <trkpt lat="59.301928" lon="18.080347">
        <ele>38</ele>
        <time>2019-12-03T06:31:58Z</time>
      </trkpt>
      <trkpt lat="59.301956" lon="18.080325">
        <ele>38</ele>
        <time>2019-12-03T06:31:59Z</time>
      </trkpt>
      <trkpt lat="59.301982" lon="18.080307">
        <ele>38</ele>
        <time>2019-12-03T06:32:00Z</time>
      </trkpt>
      <trkpt lat="59.30201" lon="18.080291">
        <ele>38</ele>
        <time>2019-12-03T06:32:01Z</time>
      </trkpt>
      <trkpt lat="59.302039" lon="18.080275">
        <ele>38</ele>
        <time>2019-12-03T06:32:02Z</time>
      </trkpt>
      <trkpt lat="59.302068" lon="18.080261">
        <ele>0</ele>
        <time>2019-12-03T06:32:02Z</time>
      </trkpt>
      <trkpt lat="59.302095" lon="18.080242">
        <ele>38</ele>
        <time>2019-12-03T06:32:03Z</time>
      </trkpt>
      <trkpt lat="59.302122" lon="18.080227">
        <ele>0</ele>
        <time>2019-12-03T06:32:04Z</time>
      </trkpt>
      <trkpt lat="59.302149" lon="18.080206">
        <ele>38</ele>
        <time>2019-12-03T06:32:05Z</time>
      </trkpt>
      <trkpt lat="59.302176" lon="18.080185">
        <ele>37</ele>
        <time>2019-12-03T06:32:07Z</time>
      </trkpt>
      <trkpt lat="59.302202" lon="18.080165">
        <ele>0</ele>
        <time>2019-12-03T06:32:07Z</time>
      </trkpt>
      <trkpt lat="59.302229" lon="18.080146">
        <ele>37</ele>
        <time>2019-12-03T06:32:08Z</time>
      </trkpt>
      <trkpt lat="59.302255" lon="18.080127">
        <ele>37</ele>
        <time>2019-12-03T06:32:10Z</time>
      </trkpt>
      <trkpt lat="59.302282" lon="18.08011">
        <ele>37</ele>
        <time>2019-12-03T06:32:11Z</time>
      </trkpt>
      <trkpt lat="59.302309" lon="18.080095">
        <ele>37</ele>
        <time>2019-12-03T06:32:12Z</time>
      </trkpt>
      <trkpt lat="59.302336" lon="18.08008">
        <ele>0</ele>
        <time>2019-12-03T06:32:12Z</time>
      </trkpt>
      <trkpt lat="59.302362" lon="18.08006">
        <ele>37</ele>
        <time>2019-12-03T06:32:13Z</time>
      </trkpt>
      <trkpt lat="59.302388" lon="18.080047">
        <ele>37</ele>
        <time>2019-12-03T06:32:15Z</time>
      </trkpt>
      <trkpt lat="59.302415" lon="18.080036">
        <ele>37</ele>
        <time>2019-12-03T06:32:16Z</time>
      </trkpt>
      <trkpt lat="59.302442" lon="18.080021">
        <ele>37</ele>
        <time>2019-12-03T06:32:17Z</time>
      </trkpt>
      <trkpt lat="59.302469" lon="18.08001">
        <ele>37</ele>
        <time>2019-12-03T06:32:18Z</time>
      </trkpt>
      <trkpt lat="59.302496" lon="18.079996">
        <ele>37</ele>
        <time>2019-12-03T06:32:19Z</time>
      </trkpt>
      <trkpt lat="59.302524" lon="18.079981">
        <ele>37</ele>
        <time>2019-12-03T06:32:20Z</time>
      </trkpt>
      <trkpt lat="59.302551" lon="18.079965">
        <ele>37</ele>
        <time>2019-12-03T06:32:21Z</time>
      </trkpt>
      <trkpt lat="59.302578" lon="18.079948">
        <ele>0</ele>
        <time>2019-12-03T06:32:21Z</time>
      </trkpt>
      <trkpt lat="59.302605" lon="18.079936">
        <ele>37</ele>
        <time>2019-12-03T06:32:22Z</time>
      </trkpt>
      <trkpt lat="59.302632" lon="18.079918">
        <ele>0</ele>
        <time>2019-12-03T06:32:23Z</time>
      </trkpt>
      <trkpt lat="59.302658" lon="18.0799">
        <ele>37</ele>
        <time>2019-12-03T06:32:24Z</time>
      </trkpt>
      <trkpt lat="59.302684" lon="18.079881">
        <ele>37</ele>
        <time>2019-12-03T06:32:26Z</time>
      </trkpt>
      <trkpt lat="59.30271" lon="18.079864">
        <ele>37</ele>
        <time>2019-12-03T06:32:27Z</time>
      </trkpt>
      <trkpt lat="59.302736" lon="18.079847">
        <ele>37</ele>
        <time>2019-12-03T06:32:28Z</time>
      </trkpt>
      <trkpt lat="59.302762" lon="18.079828">
        <ele>37</ele>
        <time>2019-12-03T06:32:29Z</time>
      </trkpt>
      <trkpt lat="59.302787" lon="18.079811">
        <ele>36</ele>
        <time>2019-12-03T06:32:30Z</time>
      </trkpt>
      <trkpt lat="59.302813" lon="18.079794">
        <ele>0</ele>
        <time>2019-12-03T06:32:30Z</time>
      </trkpt>
      <trkpt lat="59.302839" lon="18.07978">
        <ele>36</ele>
        <time>2019-12-03T06:32:31Z</time>
      </trkpt>
      <trkpt lat="59.302866" lon="18.079766">
        <ele>36</ele>
        <time>2019-12-03T06:32:33Z</time>
      </trkpt>
      <trkpt lat="59.302892" lon="18.07975">
        <ele>36</ele>
        <time>2019-12-03T06:32:34Z</time>
      </trkpt>
      <trkpt lat="59.302919" lon="18.079734">
        <ele>36</ele>
        <time>2019-12-03T06:32:35Z</time>
      </trkpt>
      <trkpt lat="59.302945" lon="18.079721">
        <ele>36</ele>
        <time>2019-12-03T06:32:36Z</time>
      </trkpt>
      <trkpt lat="59.302974" lon="18.079706">
        <ele>36</ele>
        <time>2019-12-03T06:32:37Z</time>
      </trkpt>
      <trkpt lat="59.303001" lon="18.079691">
        <ele>36</ele>
        <time>2019-12-03T06:32:38Z</time>
      </trkpt>
      <trkpt lat="59.303029" lon="18.079678">
        <ele>0</ele>
        <time>2019-12-03T06:32:38Z</time>
      </trkpt>
      <trkpt lat="59.303055" lon="18.079658">
        <ele>36</ele>
        <time>2019-12-03T06:32:39Z</time>
      </trkpt>
      <trkpt lat="59.303083" lon="18.079641">
        <ele>0</ele>
        <time>2019-12-03T06:32:40Z</time>
      </trkpt>
      <trkpt lat="59.303109" lon="18.079626">
        <ele>36</ele>
        <time>2019-12-03T06:32:41Z</time>
      </trkpt>
      <trkpt lat="59.303136" lon="18.079609">
        <ele>0</ele>
        <time>2019-12-03T06:32:42Z</time>
      </trkpt>
      <trkpt lat="59.303162" lon="18.07959">
        <ele>36</ele>
        <time>2019-12-03T06:32:43Z</time>
      </trkpt>
      <trkpt lat="59.303188" lon="18.079573">
        <ele>36</ele>
        <time>2019-12-03T06:32:45Z</time>
      </trkpt>
      <trkpt lat="59.303215" lon="18.079553">
        <ele>0</ele>
        <time>2019-12-03T06:32:45Z</time>
      </trkpt>
      <trkpt lat="59.303241" lon="18.079533">
        <ele>36</ele>
        <time>2019-12-03T06:32:46Z</time>
      </trkpt>
      <trkpt lat="59.303268" lon="18.079518">
        <ele>36</ele>
        <time>2019-12-03T06:32:48Z</time>
      </trkpt>
      <trkpt lat="59.303294" lon="18.079501">
        <ele>0</ele>
        <time>2019-12-03T06:32:48Z</time>
      </trkpt>
      <trkpt lat="59.30332" lon="18.079485">
        <ele>36</ele>
        <time>2019-12-03T06:32:49Z</time>
      </trkpt>
      <trkpt lat="59.303348" lon="18.079467">
        <ele>36</ele>
        <time>2019-12-03T06:32:51Z</time>
      </trkpt>
      <trkpt lat="59.303376" lon="18.079451">
        <ele>0</ele>
        <time>2019-12-03T06:32:51Z</time>
      </trkpt>
      <trkpt lat="59.303403" lon="18.079435">
        <ele>36</ele>
        <time>2019-12-03T06:32:52Z</time>
      </trkpt>
      <trkpt lat="59.30343" lon="18.079416">
        <ele>35</ele>
        <time>2019-12-03T06:32:54Z</time>
      </trkpt>
      <trkpt lat="59.303458" lon="18.079397">
        <ele>35</ele>
        <time>2019-12-03T06:32:55Z</time>
      </trkpt>
      <trkpt lat="59.303484" lon="18.079377">
        <ele>35</ele>
        <time>2019-12-03T06:32:56Z</time>
      </trkpt>
      <trkpt lat="59.303511" lon="18.079359">
        <ele>0</ele>
        <time>2019-12-03T06:32:56Z</time>
      </trkpt>
      <trkpt lat="59.303539" lon="18.079342">
        <ele>35</ele>
        <time>2019-12-03T06:32:57Z</time>
      </trkpt>
      <trkpt lat="59.303568" lon="18.079323">
        <ele>35</ele>
        <time>2019-12-03T06:32:59Z</time>
      </trkpt>
      <trkpt lat="59.303597" lon="18.079303">
        <ele>0</ele>
        <time>2019-12-03T06:32:59Z</time>
      </trkpt>
      <trkpt lat="59.303626" lon="18.079283">
        <ele>35</ele>
        <time>2019-12-03T06:33:00Z</time>
      </trkpt>
      <trkpt lat="59.303655" lon="18.079266">
        <ele>35</ele>
        <time>2019-12-03T06:33:01Z</time>
      </trkpt>
      <trkpt lat="59.303684" lon="18.079248">
        <ele>0</ele>
        <time>2019-12-03T06:33:02Z</time>
      </trkpt>
      <trkpt lat="59.303712" lon="18.079234">
        <ele>35</ele>
        <time>2019-12-03T06:33:03Z</time>
      </trkpt>
      <trkpt lat="59.30374" lon="18.079217">
        <ele>34</ele>
        <time>2019-12-03T06:33:05Z</time>
      </trkpt>
      <trkpt lat="59.303768" lon="18.0792">
        <ele>0</ele>
        <time>2019-12-03T06:33:05Z</time>
      </trkpt>
      <trkpt lat="59.303797" lon="18.079185">
        <ele>34</ele>
        <time>2019-12-03T06:33:06Z</time>
      </trkpt>
      <trkpt lat="59.303825" lon="18.079169">
        <ele>34</ele>
        <time>2019-12-03T06:33:08Z</time>
      </trkpt>
      <trkpt lat="59.303857" lon="18.079154">
        <ele>34</ele>
        <time>2019-12-03T06:33:09Z</time>
      </trkpt>
      <trkpt lat="59.303887" lon="18.079139">
        <ele>34</ele>
        <time>2019-12-03T06:33:10Z</time>
      </trkpt>
      <trkpt lat="59.303917" lon="18.079122">
        <ele>34</ele>
        <time>2019-12-03T06:33:11Z</time>
      </trkpt>
      <trkpt lat="59.303946" lon="18.079104">
        <ele>34</ele>
        <time>2019-12-03T06:33:12Z</time>
      </trkpt>
      <trkpt lat="59.303976" lon="18.079084">
        <ele>34</ele>
        <time>2019-12-03T06:33:13Z</time>
      </trkpt>
      <trkpt lat="59.304005" lon="18.079066">
        <ele>0</ele>
        <time>2019-12-03T06:33:13Z</time>
      </trkpt>
      <trkpt lat="59.304034" lon="18.079047">
        <ele>34</ele>
        <time>2019-12-03T06:33:14Z</time>
      </trkpt>
      <trkpt lat="59.304062" lon="18.079025">
        <ele>33</ele>
        <time>2019-12-03T06:33:16Z</time>
      </trkpt>
      <trkpt lat="59.304092" lon="18.079007">
        <ele>0</ele>
        <time>2019-12-03T06:33:16Z</time>
      </trkpt>
      <trkpt lat="59.304121" lon="18.078988">
        <ele>33</ele>
        <time>2019-12-03T06:33:17Z</time>
      </trkpt>
      <trkpt lat="59.304152" lon="18.078971">
        <ele>0</ele>
        <time>2019-12-03T06:33:18Z</time>
      </trkpt>
      <trkpt lat="59.304181" lon="18.078953">
        <ele>33</ele>
        <time>2019-12-03T06:33:19Z</time>
      </trkpt>
      <trkpt lat="59.304212" lon="18.078934">
        <ele>0</ele>
        <time>2019-12-03T06:33:20Z</time>
      </trkpt>
      <trkpt lat="59.304242" lon="18.078915">
        <ele>33</ele>
        <time>2019-12-03T06:33:21Z</time>
      </trkpt>
      <trkpt lat="59.304271" lon="18.078898">
        <ele>33</ele>
        <time>2019-12-03T06:33:22Z</time>
      </trkpt>
      <trkpt lat="59.3043" lon="18.07888">
        <ele>33</ele>
        <time>2019-12-03T06:33:24Z</time>
      </trkpt>
      <trkpt lat="59.304328" lon="18.078867">
        <ele>33</ele>
        <time>2019-12-03T06:33:25Z</time>
      </trkpt>
      <trkpt lat="59.304357" lon="18.078852">
        <ele>33</ele>
        <time>2019-12-03T06:33:26Z</time>
      </trkpt>
      <trkpt lat="59.304387" lon="18.078837">
        <ele>33</ele>
        <time>2019-12-03T06:33:27Z</time>
      </trkpt>
      <trkpt lat="59.304416" lon="18.078822">
        <ele>32</ele>
        <time>2019-12-03T06:33:28Z</time>
      </trkpt>
      <trkpt lat="59.304443" lon="18.078806">
        <ele>32</ele>
        <time>2019-12-03T06:33:29Z</time>
      </trkpt>
      <trkpt lat="59.304469" lon="18.078787">
        <ele>0</ele>
        <time>2019-12-03T06:33:29Z</time>
      </trkpt>
      <trkpt lat="59.304496" lon="18.078763">
        <ele>32</ele>
        <time>2019-12-03T06:33:30Z</time>
      </trkpt>
      <trkpt lat="59.304522" lon="18.078735">
        <ele>32</ele>
        <time>2019-12-03T06:33:32Z</time>
      </trkpt>
      <trkpt lat="59.30455" lon="18.07871">
        <ele>0</ele>
        <time>2019-12-03T06:33:32Z</time>
      </trkpt>
      <trkpt lat="59.304578" lon="18.078688">
        <ele>32</ele>
        <time>2019-12-03T06:33:33Z</time>
      </trkpt>
      <trkpt lat="59.304608" lon="18.078672">
        <ele>32</ele>
        <time>2019-12-03T06:33:35Z</time>
      </trkpt>
      <trkpt lat="59.304637" lon="18.078664">
        <ele>0</ele>
        <time>2019-12-03T06:33:35Z</time>
      </trkpt>
      <trkpt lat="59.304666" lon="18.078652">
        <ele>32</ele>
        <time>2019-12-03T06:33:36Z</time>
      </trkpt>
      <trkpt lat="59.304696" lon="18.07864">
        <ele>0</ele>
        <time>2019-12-03T06:33:37Z</time>
      </trkpt>
      <trkpt lat="59.304726" lon="18.078623">
        <ele>31</ele>
        <time>2019-12-03T06:33:38Z</time>
      </trkpt>
      <trkpt lat="59.304755" lon="18.078606">
        <ele>31</ele>
        <time>2019-12-03T06:33:39Z</time>
      </trkpt>
      <trkpt lat="59.304784" lon="18.078586">
        <ele>31</ele>
        <time>2019-12-03T06:33:41Z</time>
      </trkpt>
      <trkpt lat="59.304813" lon="18.078569">
        <ele>0</ele>
        <time>2019-12-03T06:33:41Z</time>
      </trkpt>
      <trkpt lat="59.304842" lon="18.078553">
        <ele>31</ele>
        <time>2019-12-03T06:33:42Z</time>
      </trkpt>
      <trkpt lat="59.30487" lon="18.078539">
        <ele>31</ele>
        <time>2019-12-03T06:33:44Z</time>
      </trkpt>
      <trkpt lat="59.304897" lon="18.078523">
        <ele>30</ele>
        <time>2019-12-03T06:33:45Z</time>
      </trkpt>
      <trkpt lat="59.304924" lon="18.078507">
        <ele>30</ele>
        <time>2019-12-03T06:33:46Z</time>
      </trkpt>
      <trkpt lat="59.304952" lon="18.078489">
        <ele>0</ele>
        <time>2019-12-03T06:33:46Z</time>
      </trkpt>
      <trkpt lat="59.304979" lon="18.078474">
        <ele>30</ele>
        <time>2019-12-03T06:33:47Z</time>
      </trkpt>
      <trkpt lat="59.305006" lon="18.078456">
        <ele>30</ele>
        <time>2019-12-03T06:33:49Z</time>
      </trkpt>
      <trkpt lat="59.305032" lon="18.078438">
        <ele>0</ele>
        <time>2019-12-03T06:33:49Z</time>
      </trkpt>
      <trkpt lat="59.305057" lon="18.078415">
        <ele>30</ele>
        <time>2019-12-03T06:33:50Z</time>
      </trkpt>
      <trkpt lat="59.305084" lon="18.078397">
        <ele>30</ele>
        <time>2019-12-03T06:33:52Z</time>
      </trkpt>
      <trkpt lat="59.305108" lon="18.078382">
        <ele>0</ele>
        <time>2019-12-03T06:33:52Z</time>
      </trkpt>
      <trkpt lat="59.305133" lon="18.078365">
        <ele>29</ele>
        <time>2019-12-03T06:33:53Z</time>
      </trkpt>
      <trkpt lat="59.305159" lon="18.078345">
        <ele>29</ele>
        <time>2019-12-03T06:33:55Z</time>
      </trkpt>
      <trkpt lat="59.305185" lon="18.078327">
        <ele>0</ele>
        <time>2019-12-03T06:33:55Z</time>
      </trkpt>
      <trkpt lat="59.305211" lon="18.078309">
        <ele>29</ele>
        <time>2019-12-03T06:33:56Z</time>
      </trkpt>
      <trkpt lat="59.305238" lon="18.078293">
        <ele>29</ele>
        <time>2019-12-03T06:33:57Z</time>
      </trkpt>
      <trkpt lat="59.305264" lon="18.078276">
        <ele>0</ele>
        <time>2019-12-03T06:33:58Z</time>
      </trkpt>
      <trkpt lat="59.305292" lon="18.078258">
        <ele>29</ele>
        <time>2019-12-03T06:33:59Z</time>
      </trkpt>
      <trkpt lat="59.305318" lon="18.07824">
        <ele>29</ele>
        <time>2019-12-03T06:34:01Z</time>
      </trkpt>
      <trkpt lat="59.305344" lon="18.078219">
        <ele>29</ele>
        <time>2019-12-03T06:34:01Z</time>
      </trkpt>
      <trkpt lat="59.305371" lon="18.078201">
        <ele>29</ele>
        <time>2019-12-03T06:34:02Z</time>
      </trkpt>
      <trkpt lat="59.305401" lon="18.078186">
        <ele>29</ele>
        <time>2019-12-03T06:34:04Z</time>
      </trkpt>
      <trkpt lat="59.305429" lon="18.078168">
        <ele>29</ele>
        <time>2019-12-03T06:34:05Z</time>
      </trkpt>
      <trkpt lat="59.305457" lon="18.078148">
        <ele>28</ele>
        <time>2019-12-03T06:34:06Z</time>
      </trkpt>
      <trkpt lat="59.305486" lon="18.078131">
        <ele>0</ele>
        <time>2019-12-03T06:34:06Z</time>
      </trkpt>
      <trkpt lat="59.305515" lon="18.078111">
        <ele>28</ele>
        <time>2019-12-03T06:34:07Z</time>
      </trkpt>
      <trkpt lat="59.305545" lon="18.078091">
        <ele>28</ele>
        <time>2019-12-03T06:34:09Z</time>
      </trkpt>
      <trkpt lat="59.305574" lon="18.078072">
        <ele>0</ele>
        <time>2019-12-03T06:34:09Z</time>
      </trkpt>
      <trkpt lat="59.3056" lon="18.078053">
        <ele>27</ele>
        <time>2019-12-03T06:34:10Z</time>
      </trkpt>
      <trkpt lat="59.305627" lon="18.078037">
        <ele>27</ele>
        <time>2019-12-03T06:34:12Z</time>
      </trkpt>
      <trkpt lat="59.305655" lon="18.078018">
        <ele>0</ele>
        <time>2019-12-03T06:34:12Z</time>
      </trkpt>
      <trkpt lat="59.305685" lon="18.078002">
        <ele>27</ele>
        <time>2019-12-03T06:34:13Z</time>
      </trkpt>
      <trkpt lat="59.305712" lon="18.077985">
        <ele>27</ele>
        <time>2019-12-03T06:34:14Z</time>
      </trkpt>
      <trkpt lat="59.305739" lon="18.077964">
        <ele>0</ele>
        <time>2019-12-03T06:34:15Z</time>
      </trkpt>
      <trkpt lat="59.305767" lon="18.077946">
        <ele>27</ele>
        <time>2019-12-03T06:34:16Z</time>
      </trkpt>
      <trkpt lat="59.305794" lon="18.077932">
        <ele>0</ele>
        <time>2019-12-03T06:34:17Z</time>
      </trkpt>
      <trkpt lat="59.305823" lon="18.07792">
        <ele>27</ele>
        <time>2019-12-03T06:34:18Z</time>
      </trkpt>
      <trkpt lat="59.305851" lon="18.077904">
        <ele>27</ele>
        <time>2019-12-03T06:34:20Z</time>
      </trkpt>
      <trkpt lat="59.30588" lon="18.077886">
        <ele>0</ele>
        <time>2019-12-03T06:34:20Z</time>
      </trkpt>
      <trkpt lat="59.30591" lon="18.077869">
        <ele>27</ele>
        <time>2019-12-03T06:34:21Z</time>
      </trkpt>
      <trkpt lat="59.30594" lon="18.077853">
        <ele>26</ele>
        <time>2019-12-03T06:34:23Z</time>
      </trkpt>
      <trkpt lat="59.305968" lon="18.077841">
        <ele>26</ele>
        <time>2019-12-03T06:34:24Z</time>
      </trkpt>
      <trkpt lat="59.305997" lon="18.077824">
        <ele>26</ele>
        <time>2019-12-03T06:34:25Z</time>
      </trkpt>
      <trkpt lat="59.306025" lon="18.077802">
        <ele>26</ele>
        <time>2019-12-03T06:34:26Z</time>
      </trkpt>
      <trkpt lat="59.306053" lon="18.07778">
        <ele>26</ele>
        <time>2019-12-03T06:34:27Z</time>
      </trkpt>
      <trkpt lat="59.306081" lon="18.077762">
        <ele>26</ele>
        <time>2019-12-03T06:34:28Z</time>
      </trkpt>
      <trkpt lat="59.306109" lon="18.077745">
        <ele>0</ele>
        <time>2019-12-03T06:34:28Z</time>
      </trkpt>
      <trkpt lat="59.306137" lon="18.077729">
        <ele>26</ele>
        <time>2019-12-03T06:34:29Z</time>
      </trkpt>
      <trkpt lat="59.306167" lon="18.077717">
        <ele>25</ele>
        <time>2019-12-03T06:34:30Z</time>
      </trkpt>
      <trkpt lat="59.306198" lon="18.077703">
        <ele>25</ele>
        <time>2019-12-03T06:34:32Z</time>
      </trkpt>
      <trkpt lat="59.306229" lon="18.077686">
        <ele>0</ele>
        <time>2019-12-03T06:34:32Z</time>
      </trkpt>
      <trkpt lat="59.306258" lon="18.077671">
        <ele>25</ele>
        <time>2019-12-03T06:34:33Z</time>
      </trkpt>
      <trkpt lat="59.306286" lon="18.077658">
        <ele>0</ele>
        <time>2019-12-03T06:34:34Z</time>
      </trkpt>
      <trkpt lat="59.306312" lon="18.077644">
        <ele>25</ele>
        <time>2019-12-03T06:34:35Z</time>
      </trkpt>
      <trkpt lat="59.306339" lon="18.07763">
        <ele>0</ele>
        <time>2019-12-03T06:34:36Z</time>
      </trkpt>
      <trkpt lat="59.306366" lon="18.077618">
        <ele>25</ele>
        <time>2019-12-03T06:34:37Z</time>
      </trkpt>
      <trkpt lat="59.306394" lon="18.077606">
        <ele>25</ele>
        <time>2019-12-03T06:34:39Z</time>
      </trkpt>
      <trkpt lat="59.306421" lon="18.077595">
        <ele>0</ele>
        <time>2019-12-03T06:34:39Z</time>
      </trkpt>
      <trkpt lat="59.306444" lon="18.077557">
        <ele>25</ele>
        <time>2019-12-03T06:34:40Z</time>
      </trkpt>
      <trkpt lat="59.306472" lon="18.077538">
        <ele>25</ele>
        <time>2019-12-03T06:34:42Z</time>
      </trkpt>
      <trkpt lat="59.306499" lon="18.077513">
        <ele>25</ele>
        <time>2019-12-03T06:34:43Z</time>
      </trkpt>
      <trkpt lat="59.306525" lon="18.077483">
        <ele>25</ele>
        <time>2019-12-03T06:34:44Z</time>
      </trkpt>
      <trkpt lat="59.306555" lon="18.077473">
        <ele>25</ele>
        <time>2019-12-03T06:34:45Z</time>
      </trkpt>
      <trkpt lat="59.306584" lon="18.077463">
        <ele>24</ele>
        <time>2019-12-03T06:34:46Z</time>
      </trkpt>
      <trkpt lat="59.306614" lon="18.077451">
        <ele>0</ele>
        <time>2019-12-03T06:34:46Z</time>
      </trkpt>
      <trkpt lat="59.306643" lon="18.077438">
        <ele>24</ele>
        <time>2019-12-03T06:34:47Z</time>
      </trkpt>
      <trkpt lat="59.306673" lon="18.077422">
        <ele>24</ele>
        <time>2019-12-03T06:34:49Z</time>
      </trkpt>
      <trkpt lat="59.306701" lon="18.077408">
        <ele>24</ele>
        <time>2019-12-03T06:34:50Z</time>
      </trkpt>
      <trkpt lat="59.306731" lon="18.077394">
        <ele>25</ele>
        <time>2019-12-03T06:34:51Z</time>
      </trkpt>
      <trkpt lat="59.306759" lon="18.077378">
        <ele>25</ele>
        <time>2019-12-03T06:34:52Z</time>
      </trkpt>
      <trkpt lat="59.306791" lon="18.077364">
        <ele>25</ele>
        <time>2019-12-03T06:34:53Z</time>
      </trkpt>
      <trkpt lat="59.306819" lon="18.077349">
        <ele>0</ele>
        <time>2019-12-03T06:34:53Z</time>
      </trkpt>
      <trkpt lat="59.306847" lon="18.077332">
        <ele>25</ele>
        <time>2019-12-03T06:34:54Z</time>
      </trkpt>
      <trkpt lat="59.306875" lon="18.077321">
        <ele>0</ele>
        <time>2019-12-03T06:34:55Z</time>
      </trkpt>
      <trkpt lat="59.306906" lon="18.077308">
        <ele>25</ele>
        <time>2019-12-03T06:34:56Z</time>
      </trkpt>
      <trkpt lat="59.306936" lon="18.077296">
        <ele>26</ele>
        <time>2019-12-03T06:34:58Z</time>
      </trkpt>
      <trkpt lat="59.306966" lon="18.077282">
        <ele>0</ele>
        <time>2019-12-03T06:34:58Z</time>
      </trkpt>
      <trkpt lat="59.306996" lon="18.077265">
        <ele>26</ele>
        <time>2019-12-03T06:34:59Z</time>
      </trkpt>
      <trkpt lat="59.307025" lon="18.077251">
        <ele>26</ele>
        <time>2019-12-03T06:35:01Z</time>
      </trkpt>
      <trkpt lat="59.307055" lon="18.077235">
        <ele>26</ele>
        <time>2019-12-03T06:35:02Z</time>
      </trkpt>
      <trkpt lat="59.307084" lon="18.077221">
        <ele>26</ele>
        <time>2019-12-03T06:35:03Z</time>
      </trkpt>
      <trkpt lat="59.307113" lon="18.077204">
        <ele>0</ele>
        <time>2019-12-03T06:35:03Z</time>
      </trkpt>
      <trkpt lat="59.30714" lon="18.077191">
        <ele>26</ele>
        <time>2019-12-03T06:35:04Z</time>
      </trkpt>
      <trkpt lat="59.307169" lon="18.077177">
        <ele>26</ele>
        <time>2019-12-03T06:35:06Z</time>
      </trkpt>
      <trkpt lat="59.307197" lon="18.077168">
        <ele>26</ele>
        <time>2019-12-03T06:35:07Z</time>
      </trkpt>
      <trkpt lat="59.307226" lon="18.077155">
        <ele>26</ele>
        <time>2019-12-03T06:35:08Z</time>
      </trkpt>
      <trkpt lat="59.307254" lon="18.077142">
        <ele>25</ele>
        <time>2019-12-03T06:35:09Z</time>
      </trkpt>
      <trkpt lat="59.30728" lon="18.077129">
        <ele>0</ele>
        <time>2019-12-03T06:35:09Z</time>
      </trkpt>
      <trkpt lat="59.307304" lon="18.077116">
        <ele>25</ele>
        <time>2019-12-03T06:35:10Z</time>
      </trkpt>
      <trkpt lat="59.307327" lon="18.077104">
        <ele>25</ele>
        <time>2019-12-03T06:35:12Z</time>
      </trkpt>
      <trkpt lat="59.307353" lon="18.077091">
        <ele>0</ele>
        <time>2019-12-03T06:35:12Z</time>
      </trkpt>
      <trkpt lat="59.307381" lon="18.077077">
        <ele>25</ele>
        <time>2019-12-03T06:35:13Z</time>
      </trkpt>
      <trkpt lat="59.307411" lon="18.077062">
        <ele>25</ele>
        <time>2019-12-03T06:35:15Z</time>
      </trkpt>
      <trkpt lat="59.30744" lon="18.077049">
        <ele>25</ele>
        <time>2019-12-03T06:35:16Z</time>
      </trkpt>
      <trkpt lat="59.30747" lon="18.077037">
        <ele>25</ele>
        <time>2019-12-03T06:35:17Z</time>
      </trkpt>
      <trkpt lat="59.307498" lon="18.077024">
        <ele>0</ele>
        <time>2019-12-03T06:35:17Z</time>
      </trkpt>
      <trkpt lat="59.307529" lon="18.077011">
        <ele>25</ele>
        <time>2019-12-03T06:35:18Z</time>
      </trkpt>
      <trkpt lat="59.307559" lon="18.077002">
        <ele>25</ele>
        <time>2019-12-03T06:35:20Z</time>
      </trkpt>
      <trkpt lat="59.307588" lon="18.076997">
        <ele>0</ele>
        <time>2019-12-03T06:35:20Z</time>
      </trkpt>
      <trkpt lat="59.307618" lon="18.076998">
        <ele>25</ele>
        <time>2019-12-03T06:35:21Z</time>
      </trkpt>
      <trkpt lat="59.307644" lon="18.076993">
        <ele>25</ele>
        <time>2019-12-03T06:35:23Z</time>
      </trkpt>
      <trkpt lat="59.307664" lon="18.076977">
        <ele>25</ele>
        <time>2019-12-03T06:35:24Z</time>
      </trkpt>
      <trkpt lat="59.307686" lon="18.076971">
        <ele>26</ele>
        <time>2019-12-03T06:35:25Z</time>
      </trkpt>
      <trkpt lat="59.307709" lon="18.076977">
        <ele>26</ele>
        <time>2019-12-03T06:35:26Z</time>
      </trkpt>
      <trkpt lat="59.307727" lon="18.076962">
        <ele>26</ele>
        <time>2019-12-03T06:35:27Z</time>
      </trkpt>
      <trkpt lat="59.307759" lon="18.076949">
        <ele>26</ele>
        <time>2019-12-03T06:35:37Z</time>
      </trkpt>
      <trkpt lat="59.30778" lon="18.076939">
        <ele>25</ele>
        <time>2019-12-03T06:35:38Z</time>
      </trkpt>
      <trkpt lat="59.307804" lon="18.076919">
        <ele>26</ele>
        <time>2019-12-03T06:35:40Z</time>
      </trkpt>
      <trkpt lat="59.307829" lon="18.076932">
        <ele>0</ele>
        <time>2019-12-03T06:35:44Z</time>
      </trkpt>
      <trkpt lat="59.307848" lon="18.076929">
        <ele>29</ele>
        <time>2019-12-03T06:35:58Z</time>
      </trkpt>
      <trkpt lat="59.307874" lon="18.076914">
        <ele>28</ele>
        <time>2019-12-03T06:36:01Z</time>
      </trkpt>
      <trkpt lat="59.307897" lon="18.076901">
        <ele>29</ele>
        <time>2019-12-03T06:36:02Z</time>
      </trkpt>
      <trkpt lat="59.307927" lon="18.076891">
        <ele>29</ele>
        <time>2019-12-03T06:36:04Z</time>
      </trkpt>
      <trkpt lat="59.307955" lon="18.076883">
        <ele>0</ele>
        <time>2019-12-03T06:36:04Z</time>
      </trkpt>
      <trkpt lat="59.307982" lon="18.07688">
        <ele>29</ele>
        <time>2019-12-03T06:36:05Z</time>
      </trkpt>
      <trkpt lat="59.308005" lon="18.076877">
        <ele>29</ele>
        <time>2019-12-03T06:36:07Z</time>
      </trkpt>
      <trkpt lat="59.308023" lon="18.076864">
        <ele>29</ele>
        <time>2019-12-03T06:36:08Z</time>
      </trkpt>
      <trkpt lat="59.308034" lon="18.07682">
        <ele>29</ele>
        <time>2019-12-03T06:36:09Z</time>
      </trkpt>
      <trkpt lat="59.308041" lon="18.076763">
        <ele>0</ele>
        <time>2019-12-03T06:36:09Z</time>
      </trkpt>
      <trkpt lat="59.308063" lon="18.076726">
        <ele>29</ele>
        <time>2019-12-03T06:36:11Z</time>
      </trkpt>
      <trkpt lat="59.308089" lon="18.076704">
        <ele>0</ele>
        <time>2019-12-03T06:36:11Z</time>
      </trkpt>
      <trkpt lat="59.308116" lon="18.076687">
        <ele>29</ele>
        <time>2019-12-03T06:36:12Z</time>
      </trkpt>
      <trkpt lat="59.308144" lon="18.07667">
        <ele>29</ele>
        <time>2019-12-03T06:36:14Z</time>
      </trkpt>
      <trkpt lat="59.30817" lon="18.076649">
        <ele>0</ele>
        <time>2019-12-03T06:36:14Z</time>
      </trkpt>
      <trkpt lat="59.308197" lon="18.076627">
        <ele>30</ele>
        <time>2019-12-03T06:36:15Z</time>
      </trkpt>
      <trkpt lat="59.308222" lon="18.076597">
        <ele>30</ele>
        <time>2019-12-03T06:36:17Z</time>
      </trkpt>
      <trkpt lat="59.308249" lon="18.076575">
        <ele>0</ele>
        <time>2019-12-03T06:36:17Z</time>
      </trkpt>
      <trkpt lat="59.308275" lon="18.076551">
        <ele>30</ele>
        <time>2019-12-03T06:36:18Z</time>
      </trkpt>
      <trkpt lat="59.308301" lon="18.076529">
        <ele>30</ele>
        <time>2019-12-03T06:36:20Z</time>
      </trkpt>
      <trkpt lat="59.308329" lon="18.07651">
        <ele>0</ele>
        <time>2019-12-03T06:36:20Z</time>
      </trkpt>
      <trkpt lat="59.308355" lon="18.07648">
        <ele>30</ele>
        <time>2019-12-03T06:36:21Z</time>
      </trkpt>
      <trkpt lat="59.308378" lon="18.076442">
        <ele>30</ele>
        <time>2019-12-03T06:36:23Z</time>
      </trkpt>
      <trkpt lat="59.308404" lon="18.07642">
        <ele>0</ele>
        <time>2019-12-03T06:36:23Z</time>
      </trkpt>
      <trkpt lat="59.308428" lon="18.076394">
        <ele>30</ele>
        <time>2019-12-03T06:36:24Z</time>
      </trkpt>
      <trkpt lat="59.308453" lon="18.076372">
        <ele>30</ele>
        <time>2019-12-03T06:36:26Z</time>
      </trkpt>
      <trkpt lat="59.308478" lon="18.076359">
        <ele>30</ele>
        <time>2019-12-03T06:36:27Z</time>
      </trkpt>
      <trkpt lat="59.3085" lon="18.076337">
        <ele>0</ele>
        <time>2019-12-03T06:36:27Z</time>
      </trkpt>
      <trkpt lat="59.308529" lon="18.076316">
        <ele>30</ele>
        <time>2019-12-03T06:36:28Z</time>
      </trkpt>
      <trkpt lat="59.30856" lon="18.076295">
        <ele>30</ele>
        <time>2019-12-03T06:36:29Z</time>
      </trkpt>
      <trkpt lat="59.308588" lon="18.076274">
        <ele>0</ele>
        <time>2019-12-03T06:36:30Z</time>
      </trkpt>
      <trkpt lat="59.308611" lon="18.076237">
        <ele>28</ele>
        <time>2019-12-03T06:36:31Z</time>
      </trkpt>
      <trkpt lat="59.308637" lon="18.076202">
        <ele>28</ele>
        <time>2019-12-03T06:36:33Z</time>
      </trkpt>
      <trkpt lat="59.308663" lon="18.076182">
        <ele>0</ele>
        <time>2019-12-03T06:36:33Z</time>
      </trkpt>
      <trkpt lat="59.308688" lon="18.076148">
        <ele>28</ele>
        <time>2019-12-03T06:36:34Z</time>
      </trkpt>
      <trkpt lat="59.308716" lon="18.076123">
        <ele>27</ele>
        <time>2019-12-03T06:36:36Z</time>
      </trkpt>
      <trkpt lat="59.308745" lon="18.076108">
        <ele>0</ele>
        <time>2019-12-03T06:36:36Z</time>
      </trkpt>
      <trkpt lat="59.308768" lon="18.076069">
        <ele>27</ele>
        <time>2019-12-03T06:36:37Z</time>
      </trkpt>
      <trkpt lat="59.308798" lon="18.076055">
        <ele>27</ele>
        <time>2019-12-03T06:36:39Z</time>
      </trkpt>
      <trkpt lat="59.308827" lon="18.076035">
        <ele>27</ele>
        <time>2019-12-03T06:36:40Z</time>
      </trkpt>
      <trkpt lat="59.308854" lon="18.076016">
        <ele>26</ele>
        <time>2019-12-03T06:36:41Z</time>
      </trkpt>
      <trkpt lat="59.30888" lon="18.075997">
        <ele>0</ele>
        <time>2019-12-03T06:36:41Z</time>
      </trkpt>
      <trkpt lat="59.308906" lon="18.075978">
        <ele>26</ele>
        <time>2019-12-03T06:36:42Z</time>
      </trkpt>
      <trkpt lat="59.308932" lon="18.075957">
        <ele>0</ele>
        <time>2019-12-03T06:36:43Z</time>
      </trkpt>
      <trkpt lat="59.308956" lon="18.075934">
        <ele>25</ele>
        <time>2019-12-03T06:36:44Z</time>
      </trkpt>
      <trkpt lat="59.308977" lon="18.075896">
        <ele>25</ele>
        <time>2019-12-03T06:36:46Z</time>
      </trkpt>
      <trkpt lat="59.309006" lon="18.075878">
        <ele>0</ele>
        <time>2019-12-03T06:36:46Z</time>
      </trkpt>
      <trkpt lat="59.309036" lon="18.075862">
        <ele>25</ele>
        <time>2019-12-03T06:36:47Z</time>
      </trkpt>
      <trkpt lat="59.309065" lon="18.075846">
        <ele>25</ele>
        <time>2019-12-03T06:36:48Z</time>
      </trkpt>
      <trkpt lat="59.309094" lon="18.075836">
        <ele>0</ele>
        <time>2019-12-03T06:36:49Z</time>
      </trkpt>
      <trkpt lat="59.309126" lon="18.07583">
        <ele>25</ele>
        <time>2019-12-03T06:36:50Z</time>
      </trkpt>
      <trkpt lat="59.309155" lon="18.075819">
        <ele>25</ele>
        <time>2019-12-03T06:36:52Z</time>
      </trkpt>
      <trkpt lat="59.309183" lon="18.075808">
        <ele>0</ele>
        <time>2019-12-03T06:36:52Z</time>
      </trkpt>
      <trkpt lat="59.309211" lon="18.075795">
        <ele>25</ele>
        <time>2019-12-03T06:36:53Z</time>
      </trkpt>
      <trkpt lat="59.309236" lon="18.075766">
        <ele>24</ele>
        <time>2019-12-03T06:36:55Z</time>
      </trkpt>
      <trkpt lat="59.309262" lon="18.075737">
        <ele>24</ele>
        <time>2019-12-03T06:36:56Z</time>
      </trkpt>
      <trkpt lat="59.30929" lon="18.07572">
        <ele>25</ele>
        <time>2019-12-03T06:36:57Z</time>
      </trkpt>
      <trkpt lat="59.309323" lon="18.075706">
        <ele>24</ele>
        <time>2019-12-03T06:36:58Z</time>
      </trkpt>
      <trkpt lat="59.309357" lon="18.075701">
        <ele>24</ele>
        <time>2019-12-03T06:36:59Z</time>
      </trkpt>
      <trkpt lat="59.309388" lon="18.075689">
        <ele>24</ele>
        <time>2019-12-03T06:37:00Z</time>
      </trkpt>
      <trkpt lat="59.309419" lon="18.07567">
        <ele>0</ele>
        <time>2019-12-03T06:37:00Z</time>
      </trkpt>
      <trkpt lat="59.30945" lon="18.07566">
        <ele>24</ele>
        <time>2019-12-03T06:37:01Z</time>
      </trkpt>
      <trkpt lat="59.309477" lon="18.075643">
        <ele>23</ele>
        <time>2019-12-03T06:37:03Z</time>
      </trkpt>
      <trkpt lat="59.309501" lon="18.07561">
        <ele>23</ele>
        <time>2019-12-03T06:37:04Z</time>
      </trkpt>
      <trkpt lat="59.309526" lon="18.075583">
        <ele>23</ele>
        <time>2019-12-03T06:37:05Z</time>
      </trkpt>
      <trkpt lat="59.309553" lon="18.075557">
        <ele>22</ele>
        <time>2019-12-03T06:37:06Z</time>
      </trkpt>
      <trkpt lat="59.309577" lon="18.075525">
        <ele>0</ele>
        <time>2019-12-03T06:37:06Z</time>
      </trkpt>
      <trkpt lat="59.3096" lon="18.075494">
        <ele>22</ele>
        <time>2019-12-03T06:37:07Z</time>
      </trkpt>
      <trkpt lat="59.309625" lon="18.075466">
        <ele>22</ele>
        <time>2019-12-03T06:37:08Z</time>
      </trkpt>
      <trkpt lat="59.309647" lon="18.075434">
        <ele>0</ele>
        <time>2019-12-03T06:37:09Z</time>
      </trkpt>
      <trkpt lat="59.309672" lon="18.075417">
        <ele>21</ele>
        <time>2019-12-03T06:37:10Z</time>
      </trkpt>
      <trkpt lat="59.309698" lon="18.075399">
        <ele>21</ele>
        <time>2019-12-03T06:37:12Z</time>
      </trkpt>
      <trkpt lat="59.309724" lon="18.075375">
        <ele>0</ele>
        <time>2019-12-03T06:37:12Z</time>
      </trkpt>
      <trkpt lat="59.309749" lon="18.075351">
        <ele>21</ele>
        <time>2019-12-03T06:37:13Z</time>
      </trkpt>
      <trkpt lat="59.309779" lon="18.075337">
        <ele>20</ele>
        <time>2019-12-03T06:37:15Z</time>
      </trkpt>
      <trkpt lat="59.309809" lon="18.075323">
        <ele>20</ele>
        <time>2019-12-03T06:37:16Z</time>
      </trkpt>
      <trkpt lat="59.309838" lon="18.07531">
        <ele>20</ele>
        <time>2019-12-03T06:37:17Z</time>
      </trkpt>
      <trkpt lat="59.309863" lon="18.075291">
        <ele>0</ele>
        <time>2019-12-03T06:37:17Z</time>
      </trkpt>
      <trkpt lat="59.30989" lon="18.075285">
        <ele>20</ele>
        <time>2019-12-03T06:37:18Z</time>
      </trkpt>
      <trkpt lat="59.30992" lon="18.075272">
        <ele>20</ele>
        <time>2019-12-03T06:37:19Z</time>
      </trkpt>
      <trkpt lat="59.309948" lon="18.075251">
        <ele>20</ele>
        <time>2019-12-03T06:37:21Z</time>
      </trkpt>
      <trkpt lat="59.30998" lon="18.075237">
        <ele>20</ele>
        <time>2019-12-03T06:37:22Z</time>
      </trkpt>
      <trkpt lat="59.31001" lon="18.07522">
        <ele>20</ele>
        <time>2019-12-03T06:37:23Z</time>
      </trkpt>
      <trkpt lat="59.310039" lon="18.075203">
        <ele>0</ele>
        <time>2019-12-03T06:37:23Z</time>
      </trkpt>
      <trkpt lat="59.310069" lon="18.07519">
        <ele>20</ele>
        <time>2019-12-03T06:37:24Z</time>
      </trkpt>
      <trkpt lat="59.310095" lon="18.075166">
        <ele>0</ele>
        <time>2019-12-03T06:37:25Z</time>
      </trkpt>
      <trkpt lat="59.310123" lon="18.075148">
        <ele>19</ele>
        <time>2019-12-03T06:37:26Z</time>
      </trkpt>
      <trkpt lat="59.310152" lon="18.075138">
        <ele>0</ele>
        <time>2019-12-03T06:37:27Z</time>
      </trkpt>
      <trkpt lat="59.310179" lon="18.07512">
        <ele>19</ele>
        <time>2019-12-03T06:37:28Z</time>
      </trkpt>
      <trkpt lat="59.310202" lon="18.075098">
        <ele>19</ele>
        <time>2019-12-03T06:37:30Z</time>
      </trkpt>
      <trkpt lat="59.310226" lon="18.075093">
        <ele>0</ele>
        <time>2019-12-03T06:37:30Z</time>
      </trkpt>
      <trkpt lat="59.310248" lon="18.075081">
        <ele>19</ele>
        <time>2019-12-03T06:37:31Z</time>
      </trkpt>
      <trkpt lat="59.310271" lon="18.075059">
        <ele>19</ele>
        <time>2019-12-03T06:37:33Z</time>
      </trkpt>
      <trkpt lat="59.310297" lon="18.075032">
        <ele>19</ele>
        <time>2019-12-03T06:37:34Z</time>
      </trkpt>
      <trkpt lat="59.310326" lon="18.075009">
        <ele>0</ele>
        <time>2019-12-03T06:37:34Z</time>
      </trkpt>
      <trkpt lat="59.310354" lon="18.074988">
        <ele>19</ele>
        <time>2019-12-03T06:37:35Z</time>
      </trkpt>
      <trkpt lat="59.310384" lon="18.074971">
        <ele>19</ele>
        <time>2019-12-03T06:37:37Z</time>
      </trkpt>
      <trkpt lat="59.310416" lon="18.074963">
        <ele>0</ele>
        <time>2019-12-03T06:37:37Z</time>
      </trkpt>
      <trkpt lat="59.31045" lon="18.074959">
        <ele>19</ele>
        <time>2019-12-03T06:37:38Z</time>
      </trkpt>
      <trkpt lat="59.310484" lon="18.074966">
        <ele>20</ele>
        <time>2019-12-03T06:37:40Z</time>
      </trkpt>
      <trkpt lat="59.310515" lon="18.074964">
        <ele>20</ele>
        <time>2019-12-03T06:37:41Z</time>
      </trkpt>
      <trkpt lat="59.31055" lon="18.074967">
        <ele>20</ele>
        <time>2019-12-03T06:37:42Z</time>
      </trkpt>
      <trkpt lat="59.310583" lon="18.074965">
        <ele>0</ele>
        <time>2019-12-03T06:37:42Z</time>
      </trkpt>
      <trkpt lat="59.310615" lon="18.074963">
        <ele>20</ele>
        <time>2019-12-03T06:37:43Z</time>
      </trkpt>
      <trkpt lat="59.310648" lon="18.07496">
        <ele>0</ele>
        <time>2019-12-03T06:37:44Z</time>
      </trkpt>
      <trkpt lat="59.31068" lon="18.074957">
        <ele>20</ele>
        <time>2019-12-03T06:37:45Z</time>
      </trkpt>
      <trkpt lat="59.31071" lon="18.074952">
        <ele>0</ele>
        <time>2019-12-03T06:37:46Z</time>
      </trkpt>
      <trkpt lat="59.31074" lon="18.074948">
        <ele>20</ele>
        <time>2019-12-03T06:37:47Z</time>
      </trkpt>
      <trkpt lat="59.310772" lon="18.074939">
        <ele>20</ele>
        <time>2019-12-03T06:37:49Z</time>
      </trkpt>
      <trkpt lat="59.310799" lon="18.07491">
        <ele>0</ele>
        <time>2019-12-03T06:37:49Z</time>
      </trkpt>
      <trkpt lat="59.310821" lon="18.074873">
        <ele>20</ele>
        <time>2019-12-03T06:37:50Z</time>
      </trkpt>
      <trkpt lat="59.310844" lon="18.074846">
        <ele>20</ele>
        <time>2019-12-03T06:37:51Z</time>
      </trkpt>
      <trkpt lat="59.31087" lon="18.074819">
        <ele>20</ele>
        <time>2019-12-03T06:37:53Z</time>
      </trkpt>
      <trkpt lat="59.310896" lon="18.074788">
        <ele>19</ele>
        <time>2019-12-03T06:37:54Z</time>
      </trkpt>
      <trkpt lat="59.310923" lon="18.074764">
        <ele>19</ele>
        <time>2019-12-03T06:37:55Z</time>
      </trkpt>
      <trkpt lat="59.310949" lon="18.074743">
        <ele>20</ele>
        <time>2019-12-03T06:37:56Z</time>
      </trkpt>
      <trkpt lat="59.310975" lon="18.074727">
        <ele>20</ele>
        <time>2019-12-03T06:37:57Z</time>
      </trkpt>
      <trkpt lat="59.311004" lon="18.07472">
        <ele>21</ele>
        <time>2019-12-03T06:37:58Z</time>
      </trkpt>
      <trkpt lat="59.311033" lon="18.074719">
        <ele>0</ele>
        <time>2019-12-03T06:37:58Z</time>
      </trkpt>
      <trkpt lat="59.311059" lon="18.074712">
        <ele>21</ele>
        <time>2019-12-03T06:37:59Z</time>
      </trkpt>
      <trkpt lat="59.311088" lon="18.074704">
        <ele>22</ele>
        <time>2019-12-03T06:38:01Z</time>
      </trkpt>
      <trkpt lat="59.311115" lon="18.07469">
        <ele>21</ele>
        <time>2019-12-03T06:38:01Z</time>
      </trkpt>
      <trkpt lat="59.31114" lon="18.074678">
        <ele>22</ele>
        <time>2019-12-03T06:38:02Z</time>
      </trkpt>
      <trkpt lat="59.311164" lon="18.074658">
        <ele>0</ele>
        <time>2019-12-03T06:38:03Z</time>
      </trkpt>
      <trkpt lat="59.311188" lon="18.074636">
        <ele>22</ele>
        <time>2019-12-03T06:38:04Z</time>
      </trkpt>
      <trkpt lat="59.311215" lon="18.074612">
        <ele>0</ele>
        <time>2019-12-03T06:38:05Z</time>
      </trkpt>
      <trkpt lat="59.31124" lon="18.074586">
        <ele>22</ele>
        <time>2019-12-03T06:38:06Z</time>
      </trkpt>
      <trkpt lat="59.311266" lon="18.074564">
        <ele>23</ele>
        <time>2019-12-03T06:38:08Z</time>
      </trkpt>
      <trkpt lat="59.311292" lon="18.074533">
        <ele>0</ele>
        <time>2019-12-03T06:38:08Z</time>
      </trkpt>
      <trkpt lat="59.311319" lon="18.074502">
        <ele>23</ele>
        <time>2019-12-03T06:38:09Z</time>
      </trkpt>
      <trkpt lat="59.311348" lon="18.074506">
        <ele>25</ele>
        <time>2019-12-03T06:38:11Z</time>
      </trkpt>
      <trkpt lat="59.311375" lon="18.07449">
        <ele>0</ele>
        <time>2019-12-03T06:38:11Z</time>
      </trkpt>
      <trkpt lat="59.311406" lon="18.074504">
        <ele>25</ele>
        <time>2019-12-03T06:38:12Z</time>
      </trkpt>
      <trkpt lat="59.311432" lon="18.074492">
        <ele>25</ele>
        <time>2019-12-03T06:38:13Z</time>
      </trkpt>
      <trkpt lat="59.311461" lon="18.074494">
        <ele>0</ele>
        <time>2019-12-03T06:38:14Z</time>
      </trkpt>
      <trkpt lat="59.311495" lon="18.07449">
        <ele>26</ele>
        <time>2019-12-03T06:38:15Z</time>
      </trkpt>
      <trkpt lat="59.311525" lon="18.074482">
        <ele>28</ele>
        <time>2019-12-03T06:38:17Z</time>
      </trkpt>
      <trkpt lat="59.311553" lon="18.074484">
        <ele>0</ele>
        <time>2019-12-03T06:38:17Z</time>
      </trkpt>
      <trkpt lat="59.311578" lon="18.074476">
        <ele>28</ele>
        <time>2019-12-03T06:38:18Z</time>
      </trkpt>
      <trkpt lat="59.311608" lon="18.074456">
        <ele>29</ele>
        <time>2019-12-03T06:38:20Z</time>
      </trkpt>
      <trkpt lat="59.311635" lon="18.074424">
        <ele>29</ele>
        <time>2019-12-03T06:38:21Z</time>
      </trkpt>
      <trkpt lat="59.311662" lon="18.074414">
        <ele>29</ele>
        <time>2019-12-03T06:38:22Z</time>
      </trkpt>
      <trkpt lat="59.31169" lon="18.0744">
        <ele>0</ele>
        <time>2019-12-03T06:38:22Z</time>
      </trkpt>
      <trkpt lat="59.311715" lon="18.07438">
        <ele>29</ele>
        <time>2019-12-03T06:38:23Z</time>
      </trkpt>
      <trkpt lat="59.311746" lon="18.074356">
        <ele>0</ele>
        <time>2019-12-03T06:38:24Z</time>
      </trkpt>
      <trkpt lat="59.311776" lon="18.07433">
        <ele>28</ele>
        <time>2019-12-03T06:38:25Z</time>
      </trkpt>
      <trkpt lat="59.311801" lon="18.0743">
        <ele>28</ele>
        <time>2019-12-03T06:38:26Z</time>
      </trkpt>
      <trkpt lat="59.31183" lon="18.074274">
        <ele>28</ele>
        <time>2019-12-03T06:38:28Z</time>
      </trkpt>
      <trkpt lat="59.311859" lon="18.074266">
        <ele>0</ele>
        <time>2019-12-03T06:38:28Z</time>
      </trkpt>
      <trkpt lat="59.311893" lon="18.074257">
        <ele>28</ele>
        <time>2019-12-03T06:38:29Z</time>
      </trkpt>
      <trkpt lat="59.311922" lon="18.074238">
        <ele>27</ele>
        <time>2019-12-03T06:38:31Z</time>
      </trkpt>
      <trkpt lat="59.31195" lon="18.074215">
        <ele>27</ele>
        <time>2019-12-03T06:38:32Z</time>
      </trkpt>
      <trkpt lat="59.311978" lon="18.0742">
        <ele>27</ele>
        <time>2019-12-03T06:38:33Z</time>
      </trkpt>
      <trkpt lat="59.312006" lon="18.074188">
        <ele>0</ele>
        <time>2019-12-03T06:38:33Z</time>
      </trkpt>
      <trkpt lat="59.312034" lon="18.074179">
        <ele>27</ele>
        <time>2019-12-03T06:38:34Z</time>
      </trkpt>
      <trkpt lat="59.31206" lon="18.07417">
        <ele>27</ele>
        <time>2019-12-03T06:38:36Z</time>
      </trkpt>
      <trkpt lat="59.312083" lon="18.07416">
        <ele>0</ele>
        <time>2019-12-03T06:38:36Z</time>
      </trkpt>
      <trkpt lat="59.312108" lon="18.074152">
        <ele>27</ele>
        <time>2019-12-03T06:38:37Z</time>
      </trkpt>
      <trkpt lat="59.312129" lon="18.074134">
        <ele>27</ele>
        <time>2019-12-03T06:38:39Z</time>
      </trkpt>
      <trkpt lat="59.31215" lon="18.074106">
        <ele>0</ele>
        <time>2019-12-03T06:38:39Z</time>
      </trkpt>
      <trkpt lat="59.312174" lon="18.074086">
        <ele>26</ele>
        <time>2019-12-03T06:38:40Z</time>
      </trkpt>
      <trkpt lat="59.312199" lon="18.074062">
        <ele>0</ele>
        <time>2019-12-03T06:38:41Z</time>
      </trkpt>
      <trkpt lat="59.312221" lon="18.074042">
        <ele>26</ele>
        <time>2019-12-03T06:38:42Z</time>
      </trkpt>
      <trkpt lat="59.312244" lon="18.074022">
        <ele>0</ele>
        <time>2019-12-03T06:38:43Z</time>
      </trkpt>
      <trkpt lat="59.312265" lon="18.073996">
        <ele>26</ele>
        <time>2019-12-03T06:38:44Z</time>
      </trkpt>
      <trkpt lat="59.312287" lon="18.073974">
        <ele>25</ele>
        <time>2019-12-03T06:38:46Z</time>
      </trkpt>
      <trkpt lat="59.312308" lon="18.07394">
        <ele>0</ele>
        <time>2019-12-03T06:38:46Z</time>
      </trkpt>
      <trkpt lat="59.312329" lon="18.073916">
        <ele>24</ele>
        <time>2019-12-03T06:38:47Z</time>
      </trkpt>
      <trkpt lat="59.312349" lon="18.073892">
        <ele>23</ele>
        <time>2019-12-03T06:38:49Z</time>
      </trkpt>
      <trkpt lat="59.312371" lon="18.073862">
        <ele>0</ele>
        <time>2019-12-03T06:38:49Z</time>
      </trkpt>
      <trkpt lat="59.312393" lon="18.073831">
        <ele>23</ele>
        <time>2019-12-03T06:38:50Z</time>
      </trkpt>
      <trkpt lat="59.312414" lon="18.0738">
        <ele>22</ele>
        <time>2019-12-03T06:38:52Z</time>
      </trkpt>
      <trkpt lat="59.312435" lon="18.073774">
        <ele>0</ele>
        <time>2019-12-03T06:38:52Z</time>
      </trkpt>
      <trkpt lat="59.312456" lon="18.073752">
        <ele>21</ele>
        <time>2019-12-03T06:38:53Z</time>
      </trkpt>
      <trkpt lat="59.312479" lon="18.073736">
        <ele>21</ele>
        <time>2019-12-03T06:38:55Z</time>
      </trkpt>
      <trkpt lat="59.312501" lon="18.073708">
        <ele>21</ele>
        <time>2019-12-03T06:38:56Z</time>
      </trkpt>
      <trkpt lat="59.312529" lon="18.07369">
        <ele>20</ele>
        <time>2019-12-03T06:38:57Z</time>
      </trkpt>
      <trkpt lat="59.312555" lon="18.073674">
        <ele>0</ele>
        <time>2019-12-03T06:38:57Z</time>
      </trkpt>
      <trkpt lat="59.312585" lon="18.073665">
        <ele>20</ele>
        <time>2019-12-03T06:38:58Z</time>
      </trkpt>
      <trkpt lat="59.312615" lon="18.073655">
        <ele>21</ele>
        <time>2019-12-03T06:39:00Z</time>
      </trkpt>
      <trkpt lat="59.312644" lon="18.073648">
        <ele>0</ele>
        <time>2019-12-03T06:39:00Z</time>
      </trkpt>
      <trkpt lat="59.312672" lon="18.073633">
        <ele>21</ele>
        <time>2019-12-03T06:39:01Z</time>
      </trkpt>
      <trkpt lat="59.312701" lon="18.073623">
        <ele>21</ele>
        <time>2019-12-03T06:39:02Z</time>
      </trkpt>
      <trkpt lat="59.312731" lon="18.073618">
        <ele>21</ele>
        <time>2019-12-03T06:39:04Z</time>
      </trkpt>
      <trkpt lat="59.312761" lon="18.073612">
        <ele>0</ele>
        <time>2019-12-03T06:39:04Z</time>
      </trkpt>
      <trkpt lat="59.312787" lon="18.073611">
        <ele>21</ele>
        <time>2019-12-03T06:39:05Z</time>
      </trkpt>
      <trkpt lat="59.312817" lon="18.073611">
        <ele>21</ele>
        <time>2019-12-03T06:39:07Z</time>
      </trkpt>
      <trkpt lat="59.312846" lon="18.073616">
        <ele>0</ele>
        <time>2019-12-03T06:39:07Z</time>
      </trkpt>
      <trkpt lat="59.312875" lon="18.073607">
        <ele>21</ele>
        <time>2019-12-03T06:39:08Z</time>
      </trkpt>
      <trkpt lat="59.312907" lon="18.073604">
        <ele>21</ele>
        <time>2019-12-03T06:39:10Z</time>
      </trkpt>
      <trkpt lat="59.312937" lon="18.073597">
        <ele>21</ele>
        <time>2019-12-03T06:39:11Z</time>
      </trkpt>
      <trkpt lat="59.312968" lon="18.073596">
        <ele>22</ele>
        <time>2019-12-03T06:39:12Z</time>
      </trkpt>
      <trkpt lat="59.312997" lon="18.073598">
        <ele>0</ele>
        <time>2019-12-03T06:39:12Z</time>
      </trkpt>
      <trkpt lat="59.313028" lon="18.073602">
        <ele>22</ele>
        <time>2019-12-03T06:39:13Z</time>
      </trkpt>
      <trkpt lat="59.313057" lon="18.073601">
        <ele>22</ele>
        <time>2019-12-03T06:39:15Z</time>
      </trkpt>
      <trkpt lat="59.313087" lon="18.073601">
        <ele>0</ele>
        <time>2019-12-03T06:39:15Z</time>
      </trkpt>
      <trkpt lat="59.313116" lon="18.073603">
        <ele>23</ele>
        <time>2019-12-03T06:39:16Z</time>
      </trkpt>
      <trkpt lat="59.313145" lon="18.073604">
        <ele>23</ele>
        <time>2019-12-03T06:39:18Z</time>
      </trkpt>
      <trkpt lat="59.313174" lon="18.073608">
        <ele>0</ele>
        <time>2019-12-03T06:39:18Z</time>
      </trkpt>
      <trkpt lat="59.3132" lon="18.073608">
        <ele>23</ele>
        <time>2019-12-03T06:39:19Z</time>
      </trkpt>
      <trkpt lat="59.313229" lon="18.073605">
        <ele>24</ele>
        <time>2019-12-03T06:39:20Z</time>
      </trkpt>
      <trkpt lat="59.313258" lon="18.073605">
        <ele>0</ele>
        <time>2019-12-03T06:39:21Z</time>
      </trkpt>
      <trkpt lat="59.313288" lon="18.073598">
        <ele>25</ele>
        <time>2019-12-03T06:39:22Z</time>
      </trkpt>
      <trkpt lat="59.313319" lon="18.07359">
        <ele>26</ele>
        <time>2019-12-03T06:39:24Z</time>
      </trkpt>
      <trkpt lat="59.313354" lon="18.073598">
        <ele>0</ele>
        <time>2019-12-03T06:39:24Z</time>
      </trkpt>
      <trkpt lat="59.313387" lon="18.073599">
        <ele>26</ele>
        <time>2019-12-03T06:39:25Z</time>
      </trkpt>
      <trkpt lat="59.313419" lon="18.073593">
        <ele>27</ele>
        <time>2019-12-03T06:39:27Z</time>
      </trkpt>
      <trkpt lat="59.313452" lon="18.073606">
        <ele>0</ele>
        <time>2019-12-03T06:39:27Z</time>
      </trkpt>
      <trkpt lat="59.313481" lon="18.073606">
        <ele>27</ele>
        <time>2019-12-03T06:39:28Z</time>
      </trkpt>
      <trkpt lat="59.313507" lon="18.073593">
        <ele>28</ele>
        <time>2019-12-03T06:39:30Z</time>
      </trkpt>
      <trkpt lat="59.313528" lon="18.073575">
        <ele>28</ele>
        <time>2019-12-03T06:39:31Z</time>
      </trkpt>
      <trkpt lat="59.313546" lon="18.073551">
        <ele>28</ele>
        <time>2019-12-03T06:39:32Z</time>
      </trkpt>
      <trkpt lat="59.313568" lon="18.073529">
        <ele>28</ele>
        <time>2019-12-03T06:39:33Z</time>
      </trkpt>
      <trkpt lat="59.313592" lon="18.073508">
        <ele>28</ele>
        <time>2019-12-03T06:39:34Z</time>
      </trkpt>
      <trkpt lat="59.313615" lon="18.07349">
        <ele>28</ele>
        <time>2019-12-03T06:39:35Z</time>
      </trkpt>
      <trkpt lat="59.313639" lon="18.073471">
        <ele>0</ele>
        <time>2019-12-03T06:39:35Z</time>
      </trkpt>
      <trkpt lat="59.313662" lon="18.073453">
        <ele>28</ele>
        <time>2019-12-03T06:39:36Z</time>
      </trkpt>
      <trkpt lat="59.313685" lon="18.07344">
        <ele>27</ele>
        <time>2019-12-03T06:39:37Z</time>
      </trkpt>
      <trkpt lat="59.31371" lon="18.073431">
        <ele>0</ele>
        <time>2019-12-03T06:39:38Z</time>
      </trkpt>
      <trkpt lat="59.313738" lon="18.073419">
        <ele>26</ele>
        <time>2019-12-03T06:39:39Z</time>
      </trkpt>
      <trkpt lat="59.313768" lon="18.073395">
        <ele>0</ele>
        <time>2019-12-03T06:39:40Z</time>
      </trkpt>
      <trkpt lat="59.313793" lon="18.073372">
        <ele>26</ele>
        <time>2019-12-03T06:39:41Z</time>
      </trkpt>
      <trkpt lat="59.313818" lon="18.073349">
        <ele>25</ele>
        <time>2019-12-03T06:39:43Z</time>
      </trkpt>
      <trkpt lat="59.313842" lon="18.073325">
        <ele>0</ele>
        <time>2019-12-03T06:39:43Z</time>
      </trkpt>
      <trkpt lat="59.313864" lon="18.0733">
        <ele>25</ele>
        <time>2019-12-03T06:39:44Z</time>
      </trkpt>
      <trkpt lat="59.313888" lon="18.073283">
        <ele>25</ele>
        <time>2019-12-03T06:39:46Z</time>
      </trkpt>
      <trkpt lat="59.313909" lon="18.073268">
        <ele>26</ele>
        <time>2019-12-03T06:39:47Z</time>
      </trkpt>
      <trkpt lat="59.31393" lon="18.073254">
        <ele>26</ele>
        <time>2019-12-03T06:39:48Z</time>
      </trkpt>
      <trkpt lat="59.313954" lon="18.073245">
        <ele>27</ele>
        <time>2019-12-03T06:39:49Z</time>
      </trkpt>
      <trkpt lat="59.313981" lon="18.073238">
        <ele>27</ele>
        <time>2019-12-03T06:39:50Z</time>
      </trkpt>
      <trkpt lat="59.314012" lon="18.073234">
        <ele>28</ele>
        <time>2019-12-03T06:39:51Z</time>
      </trkpt>
      <trkpt lat="59.31405" lon="18.073234">
        <ele>0</ele>
        <time>2019-12-03T06:39:51Z</time>
      </trkpt>
      <trkpt lat="59.314085" lon="18.073231">
        <ele>28</ele>
        <time>2019-12-03T06:39:52Z</time>
      </trkpt>
      <trkpt lat="59.314121" lon="18.073225">
        <ele>0</ele>
        <time>2019-12-03T06:39:53Z</time>
      </trkpt>
      <trkpt lat="59.314157" lon="18.073221">
        <ele>29</ele>
        <time>2019-12-03T06:39:54Z</time>
      </trkpt>
      <trkpt lat="59.31419" lon="18.07322">
        <ele>30</ele>
        <time>2019-12-03T06:39:56Z</time>
      </trkpt>
      <trkpt lat="59.314218" lon="18.073216">
        <ele>0</ele>
        <time>2019-12-03T06:39:56Z</time>
      </trkpt>
      <trkpt lat="59.314249" lon="18.073215">
        <ele>31</ele>
        <time>2019-12-03T06:39:57Z</time>
      </trkpt>
      <trkpt lat="59.314272" lon="18.073209">
        <ele>31</ele>
        <time>2019-12-03T06:39:58Z</time>
      </trkpt>
      <trkpt lat="59.314294" lon="18.073203">
        <ele>0</ele>
        <time>2019-12-03T06:39:59Z</time>
      </trkpt>
      <trkpt lat="59.314319" lon="18.073189">
        <ele>31</ele>
        <time>2019-12-03T06:40:00Z</time>
      </trkpt>
      <trkpt lat="59.314346" lon="18.073165">
        <ele>30</ele>
        <time>2019-12-03T06:40:01Z</time>
      </trkpt>
      <trkpt lat="59.314377" lon="18.073135">
        <ele>29</ele>
        <time>2019-12-03T06:40:03Z</time>
      </trkpt>
      <trkpt lat="59.314415" lon="18.073078">
        <ele>29</ele>
        <time>2019-12-03T06:40:04Z</time>
      </trkpt>
      <trkpt lat="59.314449" lon="18.073031">
        <ele>28</ele>
        <time>2019-12-03T06:40:05Z</time>
      </trkpt>
      <trkpt lat="59.314476" lon="18.073">
        <ele>28</ele>
        <time>2019-12-03T06:40:06Z</time>
      </trkpt>
      <trkpt lat="59.314506" lon="18.072974">
        <ele>28</ele>
        <time>2019-12-03T06:40:07Z</time>
      </trkpt>
      <trkpt lat="59.314529" lon="18.07295">
        <ele>28</ele>
        <time>2019-12-03T06:40:08Z</time>
      </trkpt>
      <trkpt lat="59.314555" lon="18.072932">
        <ele>0</ele>
        <time>2019-12-03T06:40:08Z</time>
      </trkpt>
      <trkpt lat="59.314579" lon="18.072914">
        <ele>27</ele>
        <time>2019-12-03T06:40:09Z</time>
      </trkpt>
      <trkpt lat="59.314599" lon="18.072899">
        <ele>0</ele>
        <time>2019-12-03T06:40:10Z</time>
      </trkpt>
      <trkpt lat="59.314627" lon="18.072883">
        <ele>26</ele>
        <time>2019-12-03T06:40:11Z</time>
      </trkpt>
      <trkpt lat="59.314666" lon="18.072889">
        <ele>25</ele>
        <time>2019-12-03T06:40:13Z</time>
      </trkpt>
      <trkpt lat="59.314704" lon="18.072896">
        <ele>0</ele>
        <time>2019-12-03T06:40:13Z</time>
      </trkpt>
      <trkpt lat="59.314734" lon="18.072891">
        <ele>25</ele>
        <time>2019-12-03T06:40:14Z</time>
      </trkpt>
      <trkpt lat="59.314765" lon="18.072892">
        <ele>25</ele>
        <time>2019-12-03T06:40:16Z</time>
      </trkpt>
      <trkpt lat="59.314788" lon="18.07288">
        <ele>0</ele>
        <time>2019-12-03T06:40:16Z</time>
      </trkpt>
      <trkpt lat="59.314814" lon="18.072872">
        <ele>25</ele>
        <time>2019-12-03T06:40:17Z</time>
      </trkpt>
      <trkpt lat="59.314845" lon="18.072869">
        <ele>0</ele>
        <time>2019-12-03T06:40:18Z</time>
      </trkpt>
      <trkpt lat="59.314875" lon="18.072863">
        <ele>25</ele>
        <time>2019-12-03T06:40:19Z</time>
      </trkpt>
      <trkpt lat="59.314905" lon="18.072857">
        <ele>25</ele>
        <time>2019-12-03T06:40:21Z</time>
      </trkpt>
      <trkpt lat="59.314936" lon="18.072848">
        <ele>0</ele>
        <time>2019-12-03T06:40:21Z</time>
      </trkpt>
      <trkpt lat="59.314965" lon="18.07284">
        <ele>25</ele>
        <time>2019-12-03T06:40:22Z</time>
      </trkpt>
      <trkpt lat="59.314994" lon="18.072836">
        <ele>26</ele>
        <time>2019-12-03T06:40:24Z</time>
      </trkpt>
      <trkpt lat="59.315023" lon="18.07283">
        <ele>0</ele>
        <time>2019-12-03T06:40:24Z</time>
      </trkpt>
      <trkpt lat="59.315053" lon="18.072828">
        <ele>26</ele>
        <time>2019-12-03T06:40:25Z</time>
      </trkpt>
      <trkpt lat="59.315079" lon="18.072822">
        <ele>0</ele>
        <time>2019-12-03T06:40:26Z</time>
      </trkpt>
      <trkpt lat="59.315108" lon="18.072826">
        <ele>26</ele>
        <time>2019-12-03T06:40:27Z</time>
      </trkpt>
      <trkpt lat="59.315135" lon="18.072825">
        <ele>26</ele>
        <time>2019-12-03T06:40:29Z</time>
      </trkpt>
      <trkpt lat="59.315163" lon="18.072829">
        <ele>26</ele>
        <time>2019-12-03T06:40:30Z</time>
      </trkpt>
      <trkpt lat="59.31519" lon="18.072834">
        <ele>26</ele>
        <time>2019-12-03T06:40:31Z</time>
      </trkpt>
      <trkpt lat="59.315218" lon="18.072835">
        <ele>27</ele>
        <time>2019-12-03T06:40:32Z</time>
      </trkpt>
      <trkpt lat="59.315247" lon="18.072841">
        <ele>27</ele>
        <time>2019-12-03T06:40:33Z</time>
      </trkpt>
      <trkpt lat="59.315277" lon="18.072841">
        <ele>27</ele>
        <time>2019-12-03T06:40:34Z</time>
      </trkpt>
      <trkpt lat="59.315306" lon="18.072836">
        <ele>0</ele>
        <time>2019-12-03T06:40:34Z</time>
      </trkpt>
      <trkpt lat="59.315335" lon="18.07283">
        <ele>27</ele>
        <time>2019-12-03T06:40:35Z</time>
      </trkpt>
      <trkpt lat="59.315364" lon="18.072828">
        <ele>27</ele>
        <time>2019-12-03T06:40:36Z</time>
      </trkpt>
      <trkpt lat="59.31539" lon="18.072815">
        <ele>0</ele>
        <time>2019-12-03T06:40:37Z</time>
      </trkpt>
      <trkpt lat="59.315413" lon="18.072801">
        <ele>27</ele>
        <time>2019-12-03T06:40:38Z</time>
      </trkpt>
      <trkpt lat="59.315439" lon="18.072787">
        <ele>27</ele>
        <time>2019-12-03T06:40:40Z</time>
      </trkpt>
      <trkpt lat="59.315465" lon="18.072774">
        <ele>0</ele>
        <time>2019-12-03T06:40:40Z</time>
      </trkpt>
      <trkpt lat="59.315491" lon="18.072755">
        <ele>27</ele>
        <time>2019-12-03T06:40:41Z</time>
      </trkpt>
      <trkpt lat="59.315519" lon="18.072741">
        <ele>27</ele>
        <time>2019-12-03T06:40:43Z</time>
      </trkpt>
      <trkpt lat="59.315545" lon="18.072719">
        <ele>28</ele>
        <time>2019-12-03T06:40:44Z</time>
      </trkpt>
      <trkpt lat="59.315571" lon="18.072697">
        <ele>0</ele>
        <time>2019-12-03T06:40:44Z</time>
      </trkpt>
      <trkpt lat="59.315598" lon="18.072682">
        <ele>28</ele>
        <time>2019-12-03T06:40:45Z</time>
      </trkpt>
      <trkpt lat="59.315624" lon="18.072666">
        <ele>28</ele>
        <time>2019-12-03T06:40:47Z</time>
      </trkpt>
      <trkpt lat="59.315649" lon="18.07265">
        <ele>0</ele>
        <time>2019-12-03T06:40:47Z</time>
      </trkpt>
      <trkpt lat="59.315674" lon="18.072631">
        <ele>28</ele>
        <time>2019-12-03T06:40:48Z</time>
      </trkpt>
      <trkpt lat="59.315696" lon="18.072609">
        <ele>28</ele>
        <time>2019-12-03T06:40:50Z</time>
      </trkpt>
      <trkpt lat="59.31572" lon="18.072589">
        <ele>28</ele>
        <time>2019-12-03T06:40:51Z</time>
      </trkpt>
      <trkpt lat="59.315746" lon="18.072571">
        <ele>28</ele>
        <time>2019-12-03T06:40:52Z</time>
      </trkpt>
      <trkpt lat="59.315771" lon="18.072557">
        <ele>0</ele>
        <time>2019-12-03T06:40:52Z</time>
      </trkpt>
      <trkpt lat="59.315792" lon="18.072536">
        <ele>29</ele>
        <time>2019-12-03T06:40:53Z</time>
      </trkpt>
      <trkpt lat="59.315812" lon="18.072511">
        <ele>0</ele>
        <time>2019-12-03T06:40:54Z</time>
      </trkpt>
      <trkpt lat="59.315836" lon="18.072493">
        <ele>29</ele>
        <time>2019-12-03T06:40:55Z</time>
      </trkpt>
      <trkpt lat="59.315856" lon="18.072472">
        <ele>0</ele>
        <time>2019-12-03T06:40:56Z</time>
      </trkpt>
      <trkpt lat="59.315878" lon="18.072453">
        <ele>29</ele>
        <time>2019-12-03T06:40:57Z</time>
      </trkpt>
      <trkpt lat="59.315903" lon="18.07244">
        <ele>29</ele>
        <time>2019-12-03T06:40:59Z</time>
      </trkpt>
      <trkpt lat="59.315926" lon="18.072422">
        <ele>0</ele>
        <time>2019-12-03T06:40:59Z</time>
      </trkpt>
      <trkpt lat="59.31595" lon="18.072409">
        <ele>29</ele>
        <time>2019-12-03T06:41:00Z</time>
      </trkpt>
      <trkpt lat="59.315973" lon="18.072392">
        <ele>30</ele>
        <time>2019-12-03T06:41:02Z</time>
      </trkpt>
      <trkpt lat="59.315994" lon="18.072373">
        <ele>30</ele>
        <time>2019-12-03T06:41:03Z</time>
      </trkpt>
      <trkpt lat="59.316016" lon="18.072357">
        <ele>30</ele>
        <time>2019-12-03T06:41:04Z</time>
      </trkpt>
      <trkpt lat="59.316042" lon="18.072343">
        <ele>30</ele>
        <time>2019-12-03T06:41:05Z</time>
      </trkpt>
      <trkpt lat="59.316065" lon="18.072328">
        <ele>0</ele>
        <time>2019-12-03T06:41:05Z</time>
      </trkpt>
      <trkpt lat="59.316089" lon="18.07231">
        <ele>30</ele>
        <time>2019-12-03T06:41:06Z</time>
      </trkpt>
      <trkpt lat="59.316111" lon="18.072291">
        <ele>30</ele>
        <time>2019-12-03T06:41:08Z</time>
      </trkpt>
      <trkpt lat="59.316166" lon="18.072258">
        <ele>30</ele>
        <time>2019-12-03T06:41:09Z</time>
      </trkpt>
      <trkpt lat="59.31621" lon="18.072201">
        <ele>30</ele>
        <time>2019-12-03T06:41:12Z</time>
      </trkpt>
      <trkpt lat="59.316231" lon="18.072179">
        <ele>30</ele>
        <time>2019-12-03T06:41:13Z</time>
      </trkpt>
      <trkpt lat="59.316254" lon="18.072165">
        <ele>0</ele>
        <time>2019-12-03T06:41:13Z</time>
      </trkpt>
      <trkpt lat="59.31628" lon="18.072156">
        <ele>30</ele>
        <time>2019-12-03T06:41:14Z</time>
      </trkpt>
      <trkpt lat="59.316305" lon="18.072145">
        <ele>0</ele>
        <time>2019-12-03T06:41:15Z</time>
      </trkpt>
      <trkpt lat="59.316328" lon="18.072135">
        <ele>30</ele>
        <time>2019-12-03T06:41:16Z</time>
      </trkpt>
      <trkpt lat="59.316351" lon="18.072116">
        <ele>30</ele>
        <time>2019-12-03T06:41:18Z</time>
      </trkpt>
      <trkpt lat="59.316375" lon="18.072106">
        <ele>0</ele>
        <time>2019-12-03T06:41:18Z</time>
      </trkpt>
      <trkpt lat="59.316399" lon="18.072092">
        <ele>30</ele>
        <time>2019-12-03T06:41:19Z</time>
      </trkpt>
      <trkpt lat="59.316423" lon="18.072083">
        <ele>30</ele>
        <time>2019-12-03T06:41:21Z</time>
      </trkpt>
      <trkpt lat="59.316445" lon="18.072073">
        <ele>31</ele>
        <time>2019-12-03T06:41:22Z</time>
      </trkpt>
      <trkpt lat="59.316469" lon="18.072055">
        <ele>31</ele>
        <time>2019-12-03T06:41:23Z</time>
      </trkpt>
      <trkpt lat="59.316498" lon="18.072048">
        <ele>31</ele>
        <time>2019-12-03T06:41:24Z</time>
      </trkpt>
      <trkpt lat="59.316525" lon="18.072047">
        <ele>0</ele>
        <time>2019-12-03T06:41:24Z</time>
      </trkpt>
      <trkpt lat="59.316554" lon="18.07205">
        <ele>31</ele>
        <time>2019-12-03T06:41:25Z</time>
      </trkpt>
      <trkpt lat="59.316581" lon="18.072049">
        <ele>31</ele>
        <time>2019-12-03T06:41:27Z</time>
      </trkpt>
      <trkpt lat="59.316609" lon="18.072047">
        <ele>0</ele>
        <time>2019-12-03T06:41:27Z</time>
      </trkpt>
      <trkpt lat="59.316629" lon="18.072037">
        <ele>31</ele>
        <time>2019-12-03T06:41:28Z</time>
      </trkpt>
      <trkpt lat="59.31665" lon="18.072027">
        <ele>32</ele>
        <time>2019-12-03T06:41:30Z</time>
      </trkpt>
      <trkpt lat="59.316668" lon="18.072019">
        <ele>32</ele>
        <time>2019-12-03T06:41:31Z</time>
      </trkpt>
      <trkpt lat="59.316691" lon="18.072013">
        <ele>32</ele>
        <time>2019-12-03T06:41:32Z</time>
      </trkpt>
      <trkpt lat="59.316713" lon="18.072003">
        <ele>0</ele>
        <time>2019-12-03T06:41:32Z</time>
      </trkpt>
      <trkpt lat="59.316739" lon="18.071986">
        <ele>32</ele>
        <time>2019-12-03T06:41:33Z</time>
      </trkpt>
      <trkpt lat="59.316766" lon="18.071969">
        <ele>0</ele>
        <time>2019-12-03T06:41:34Z</time>
      </trkpt>
      <trkpt lat="59.316795" lon="18.071953">
        <ele>31</ele>
        <time>2019-12-03T06:41:35Z</time>
      </trkpt>
      <trkpt lat="59.316822" lon="18.071934">
        <ele>31</ele>
        <time>2019-12-03T06:41:37Z</time>
      </trkpt>
      <trkpt lat="59.316852" lon="18.071916">
        <ele>0</ele>
        <time>2019-12-03T06:41:37Z</time>
      </trkpt>
      <trkpt lat="59.316881" lon="18.071893">
        <ele>30</ele>
        <time>2019-12-03T06:41:38Z</time>
      </trkpt>
      <trkpt lat="59.31691" lon="18.071875">
        <ele>30</ele>
        <time>2019-12-03T06:41:40Z</time>
      </trkpt>
      <trkpt lat="59.316938" lon="18.071857">
        <ele>30</ele>
        <time>2019-12-03T06:41:41Z</time>
      </trkpt>
      <trkpt lat="59.316966" lon="18.071839">
        <ele>30</ele>
        <time>2019-12-03T06:41:42Z</time>
      </trkpt>
      <trkpt lat="59.316994" lon="18.071823">
        <ele>30</ele>
        <time>2019-12-03T06:41:43Z</time>
      </trkpt>
      <trkpt lat="59.31702" lon="18.071807">
        <ele>0</ele>
        <time>2019-12-03T06:41:43Z</time>
      </trkpt>
      <trkpt lat="59.317045" lon="18.071792">
        <ele>30</ele>
        <time>2019-12-03T06:41:44Z</time>
      </trkpt>
      <trkpt lat="59.317069" lon="18.071772">
        <ele>30</ele>
        <time>2019-12-03T06:41:46Z</time>
      </trkpt>
      <trkpt lat="59.317095" lon="18.071759">
        <ele>0</ele>
        <time>2019-12-03T06:41:46Z</time>
      </trkpt>
      <trkpt lat="59.317116" lon="18.071737">
        <ele>31</ele>
        <time>2019-12-03T06:41:47Z</time>
      </trkpt>
      <trkpt lat="59.317138" lon="18.071719">
        <ele>31</ele>
        <time>2019-12-03T06:41:49Z</time>
      </trkpt>
      <trkpt lat="59.317164" lon="18.071708">
        <ele>31</ele>
        <time>2019-12-03T06:41:50Z</time>
      </trkpt>
      <trkpt lat="59.317189" lon="18.071695">
        <ele>32</ele>
        <time>2019-12-03T06:41:51Z</time>
      </trkpt>
      <trkpt lat="59.317215" lon="18.071682">
        <ele>0</ele>
        <time>2019-12-03T06:41:51Z</time>
      </trkpt>
      <trkpt lat="59.317237" lon="18.071672">
        <ele>32</ele>
        <time>2019-12-03T06:41:52Z</time>
      </trkpt>
      <trkpt lat="59.317261" lon="18.071666">
        <ele>32</ele>
        <time>2019-12-03T06:41:53Z</time>
      </trkpt>
      <trkpt lat="59.317288" lon="18.071663">
        <ele>32</ele>
        <time>2019-12-03T06:41:55Z</time>
      </trkpt>
      <trkpt lat="59.317313" lon="18.071665">
        <ele>32</ele>
        <time>2019-12-03T06:41:56Z</time>
      </trkpt>
      <trkpt lat="59.317336" lon="18.071663">
        <ele>32</ele>
        <time>2019-12-03T06:41:57Z</time>
      </trkpt>
      <trkpt lat="59.317362" lon="18.071659">
        <ele>32</ele>
        <time>2019-12-03T06:41:58Z</time>
      </trkpt>
      <trkpt lat="59.317386" lon="18.071651">
        <ele>0</ele>
        <time>2019-12-03T06:41:58Z</time>
      </trkpt>
      <trkpt lat="59.317408" lon="18.071647">
        <ele>32</ele>
        <time>2019-12-03T06:41:59Z</time>
      </trkpt>
      <trkpt lat="59.317432" lon="18.071644">
        <ele>32</ele>
        <time>2019-12-03T06:42:01Z</time>
      </trkpt>
      <trkpt lat="59.317459" lon="18.071642">
        <ele>32</ele>
        <time>2019-12-03T06:42:01Z</time>
      </trkpt>
      <trkpt lat="59.31748" lon="18.071629">
        <ele>32</ele>
        <time>2019-12-03T06:42:02Z</time>
      </trkpt>
      <trkpt lat="59.317504" lon="18.071618">
        <ele>0</ele>
        <time>2019-12-03T06:42:03Z</time>
      </trkpt>
      <trkpt lat="59.317526" lon="18.071601">
        <ele>32</ele>
        <time>2019-12-03T06:42:04Z</time>
      </trkpt>
      <trkpt lat="59.317553" lon="18.071589">
        <ele>32</ele>
        <time>2019-12-03T06:42:06Z</time>
      </trkpt>
      <trkpt lat="59.317574" lon="18.071577">
        <ele>31</ele>
        <time>2019-12-03T06:42:07Z</time>
      </trkpt>
      <trkpt lat="59.317599" lon="18.07156">
        <ele>31</ele>
        <time>2019-12-03T06:42:08Z</time>
      </trkpt>
      <trkpt lat="59.317627" lon="18.071552">
        <ele>32</ele>
        <time>2019-12-03T06:42:09Z</time>
      </trkpt>
      <trkpt lat="59.317653" lon="18.071543">
        <ele>32</ele>
        <time>2019-12-03T06:42:10Z</time>
      </trkpt>
      <trkpt lat="59.317678" lon="18.071523">
        <ele>0</ele>
        <time>2019-12-03T06:42:10Z</time>
      </trkpt>
      <trkpt lat="59.317702" lon="18.071508">
        <ele>32</ele>
        <time>2019-12-03T06:42:11Z</time>
      </trkpt>
      <trkpt lat="59.317728" lon="18.071497">
        <ele>0</ele>
        <time>2019-12-03T06:42:12Z</time>
      </trkpt>
      <trkpt lat="59.317789" lon="18.071472">
        <ele>33</ele>
        <time>2019-12-03T06:42:15Z</time>
      </trkpt>
      <trkpt lat="59.317824" lon="18.071455">
        <ele>0</ele>
        <time>2019-12-03T06:42:15Z</time>
      </trkpt>
      <trkpt lat="59.317856" lon="18.071436">
        <ele>33</ele>
        <time>2019-12-03T06:42:16Z</time>
      </trkpt>
      <trkpt lat="59.317955" lon="18.071349">
        <ele>33</ele>
        <time>2019-12-03T06:42:21Z</time>
      </trkpt>
      <trkpt lat="59.318029" lon="18.071337">
        <ele>34</ele>
        <time>2019-12-03T06:42:24Z</time>
      </trkpt>
      <trkpt lat="59.318048" lon="18.071334">
        <ele>0</ele>
        <time>2019-12-03T06:42:24Z</time>
      </trkpt>
      <trkpt lat="59.318088" lon="18.071313">
        <ele>34</ele>
        <time>2019-12-03T06:42:27Z</time>
      </trkpt>
      <trkpt lat="59.318109" lon="18.071292">
        <ele>34</ele>
        <time>2019-12-03T06:42:28Z</time>
      </trkpt>
      <trkpt lat="59.318133" lon="18.071275">
        <ele>34</ele>
        <time>2019-12-03T06:42:29Z</time>
      </trkpt>
      <trkpt lat="59.318157" lon="18.071256">
        <ele>0</ele>
        <time>2019-12-03T06:42:29Z</time>
      </trkpt>
      <trkpt lat="59.318185" lon="18.071244">
        <ele>34</ele>
        <time>2019-12-03T06:42:30Z</time>
      </trkpt>
      <trkpt lat="59.318213" lon="18.071234">
        <ele>0</ele>
        <time>2019-12-03T06:42:31Z</time>
      </trkpt>
      <trkpt lat="59.318244" lon="18.07122">
        <ele>34</ele>
        <time>2019-12-03T06:42:32Z</time>
      </trkpt>
      <trkpt lat="59.31827" lon="18.071205">
        <ele>34</ele>
        <time>2019-12-03T06:42:34Z</time>
      </trkpt>
      <trkpt lat="59.318295" lon="18.071196">
        <ele>0</ele>
        <time>2019-12-03T06:42:34Z</time>
      </trkpt>
      <trkpt lat="59.318322" lon="18.071174">
        <ele>34</ele>
        <time>2019-12-03T06:42:35Z</time>
      </trkpt>
      <trkpt lat="59.318348" lon="18.071144">
        <ele>33</ele>
        <time>2019-12-03T06:42:37Z</time>
      </trkpt>
      <trkpt lat="59.318376" lon="18.071111">
        <ele>33</ele>
        <time>2019-12-03T06:42:38Z</time>
      </trkpt>
      <trkpt lat="59.318403" lon="18.071097">
        <ele>34</ele>
        <time>2019-12-03T06:42:39Z</time>
      </trkpt>
      <trkpt lat="59.318428" lon="18.071078">
        <ele>34</ele>
        <time>2019-12-03T06:42:40Z</time>
      </trkpt>
      <trkpt lat="59.318451" lon="18.071062">
        <ele>0</ele>
        <time>2019-12-03T06:42:40Z</time>
      </trkpt>
      <trkpt lat="59.318475" lon="18.071056">
        <ele>34</ele>
        <time>2019-12-03T06:42:41Z</time>
      </trkpt>
      <trkpt lat="59.318505" lon="18.071032">
        <ele>35</ele>
        <time>2019-12-03T06:42:43Z</time>
      </trkpt>
      <trkpt lat="59.31853" lon="18.070982">
        <ele>0</ele>
        <time>2019-12-03T06:42:43Z</time>
      </trkpt>
      <trkpt lat="59.318561" lon="18.070953">
        <ele>35</ele>
        <time>2019-12-03T06:42:44Z</time>
      </trkpt>
      <trkpt lat="59.318591" lon="18.070926">
        <ele>35</ele>
        <time>2019-12-03T06:42:46Z</time>
      </trkpt>
      <trkpt lat="59.318623" lon="18.070915">
        <ele>35</ele>
        <time>2019-12-03T06:42:47Z</time>
      </trkpt>
      <trkpt lat="59.318654" lon="18.070903">
        <ele>35</ele>
        <time>2019-12-03T06:42:48Z</time>
      </trkpt>
      <trkpt lat="59.318685" lon="18.070897">
        <ele>0</ele>
        <time>2019-12-03T06:42:48Z</time>
      </trkpt>
      <trkpt lat="59.318714" lon="18.070882">
        <ele>35</ele>
        <time>2019-12-03T06:42:49Z</time>
      </trkpt>
      <trkpt lat="59.318742" lon="18.070876">
        <ele>35</ele>
        <time>2019-12-03T06:42:50Z</time>
      </trkpt>
      <trkpt lat="59.318771" lon="18.070875">
        <ele>0</ele>
        <time>2019-12-03T06:42:51Z</time>
      </trkpt>
      <trkpt lat="59.318802" lon="18.070875">
        <ele>35</ele>
        <time>2019-12-03T06:42:52Z</time>
      </trkpt>
      <trkpt lat="59.318834" lon="18.07088">
        <ele>36</ele>
        <time>2019-12-03T06:42:54Z</time>
      </trkpt>
      <trkpt lat="59.318863" lon="18.070869">
        <ele>0</ele>
        <time>2019-12-03T06:42:54Z</time>
      </trkpt>
      <trkpt lat="59.318885" lon="18.070851">
        <ele>35</ele>
        <time>2019-12-03T06:42:55Z</time>
      </trkpt>
      <trkpt lat="59.318914" lon="18.070838">
        <ele>0</ele>
        <time>2019-12-03T06:42:56Z</time>
      </trkpt>
      <trkpt lat="59.318945" lon="18.070824">
        <ele>35</ele>
        <time>2019-12-03T06:42:57Z</time>
      </trkpt>
      <trkpt lat="59.318976" lon="18.070815">
        <ele>35</ele>
        <time>2019-12-03T06:42:59Z</time>
      </trkpt>
      <trkpt lat="59.319008" lon="18.070809">
        <ele>0</ele>
        <time>2019-12-03T06:42:59Z</time>
      </trkpt>
      <trkpt lat="59.319042" lon="18.070793">
        <ele>35</ele>
        <time>2019-12-03T06:43:00Z</time>
      </trkpt>
      <trkpt lat="59.319075" lon="18.070785">
        <ele>34</ele>
        <time>2019-12-03T06:43:02Z</time>
      </trkpt>
      <trkpt lat="59.319112" lon="18.070784">
        <ele>34</ele>
        <time>2019-12-03T06:43:03Z</time>
      </trkpt>
      <trkpt lat="59.31914" lon="18.070772">
        <ele>34</ele>
        <time>2019-12-03T06:43:04Z</time>
      </trkpt>
      <trkpt lat="59.319168" lon="18.070755">
        <ele>0</ele>
        <time>2019-12-03T06:43:04Z</time>
      </trkpt>
      <trkpt lat="59.319198" lon="18.070738">
        <ele>34</ele>
        <time>2019-12-03T06:43:05Z</time>
      </trkpt>
      <trkpt lat="59.319224" lon="18.070725">
        <ele>34</ele>
        <time>2019-12-03T06:43:07Z</time>
      </trkpt>
      <trkpt lat="59.319253" lon="18.070715">
        <ele>0</ele>
        <time>2019-12-03T06:43:07Z</time>
      </trkpt>
      <trkpt lat="59.319282" lon="18.070702">
        <ele>34</ele>
        <time>2019-12-03T06:43:08Z</time>
      </trkpt>
      <trkpt lat="59.319316" lon="18.070698">
        <ele>34</ele>
        <time>2019-12-03T06:43:09Z</time>
      </trkpt>
      <trkpt lat="59.319346" lon="18.070688">
        <ele>0</ele>
        <time>2019-12-03T06:43:10Z</time>
      </trkpt>
      <trkpt lat="59.319375" lon="18.070678">
        <ele>34</ele>
        <time>2019-12-03T06:43:11Z</time>
      </trkpt>
      <trkpt lat="59.319402" lon="18.070673">
        <ele>0</ele>
        <time>2019-12-03T06:43:12Z</time>
      </trkpt>
      <trkpt lat="59.31943" lon="18.07066">
        <ele>34</ele>
        <time>2019-12-03T06:43:13Z</time>
      </trkpt>
      <trkpt lat="59.319458" lon="18.070651">
        <ele>33</ele>
        <time>2019-12-03T06:43:15Z</time>
      </trkpt>
      <trkpt lat="59.319486" lon="18.070644">
        <ele>0</ele>
        <time>2019-12-03T06:43:15Z</time>
      </trkpt>
      <trkpt lat="59.319513" lon="18.070635">
        <ele>33</ele>
        <time>2019-12-03T06:43:16Z</time>
      </trkpt>
      <trkpt lat="59.319541" lon="18.070619">
        <ele>33</ele>
        <time>2019-12-03T06:43:18Z</time>
      </trkpt>
      <trkpt lat="59.31957" lon="18.070596">
        <ele>32</ele>
        <time>2019-12-03T06:43:19Z</time>
      </trkpt>
      <trkpt lat="59.319601" lon="18.070565">
        <ele>31</ele>
        <time>2019-12-03T06:43:20Z</time>
      </trkpt>
      <trkpt lat="59.319639" lon="18.070522">
        <ele>0</ele>
        <time>2019-12-03T06:43:20Z</time>
      </trkpt>
      <trkpt lat="59.319676" lon="18.070479">
        <ele>31</ele>
        <time>2019-12-03T06:43:21Z</time>
      </trkpt>
      <trkpt lat="59.319704" lon="18.070459">
        <ele>32</ele>
        <time>2019-12-03T06:43:23Z</time>
      </trkpt>
      <trkpt lat="59.319734" lon="18.070456">
        <ele>0</ele>
        <time>2019-12-03T06:43:23Z</time>
      </trkpt>
      <trkpt lat="59.31976" lon="18.070443">
        <ele>32</ele>
        <time>2019-12-03T06:43:24Z</time>
      </trkpt>
      <trkpt lat="59.319787" lon="18.07043">
        <ele>32</ele>
        <time>2019-12-03T06:43:26Z</time>
      </trkpt>
      <trkpt lat="59.319806" lon="18.070412">
        <ele>0</ele>
        <time>2019-12-03T06:43:26Z</time>
      </trkpt>
      <trkpt lat="59.319836" lon="18.070421">
        <ele>31</ele>
        <time>2019-12-03T06:43:27Z</time>
      </trkpt>
      <trkpt lat="59.319877" lon="18.070487">
        <ele>30</ele>
        <time>2019-12-03T06:43:28Z</time>
      </trkpt>
      <trkpt lat="59.319906" lon="18.070561">
        <ele>29</ele>
        <time>2019-12-03T06:43:30Z</time>
      </trkpt>
      <trkpt lat="59.319935" lon="18.070639">
        <ele>0</ele>
        <time>2019-12-03T06:43:30Z</time>
      </trkpt>
      <trkpt lat="59.319962" lon="18.070715">
        <ele>29</ele>
        <time>2019-12-03T06:43:31Z</time>
      </trkpt>
      <trkpt lat="59.31998" lon="18.070791">
        <ele>28</ele>
        <time>2019-12-03T06:43:33Z</time>
      </trkpt>
      <trkpt lat="59.319998" lon="18.070853">
        <ele>28</ele>
        <time>2019-12-03T06:43:34Z</time>
      </trkpt>
      <trkpt lat="59.320006" lon="18.070894">
        <ele>28</ele>
        <time>2019-12-03T06:43:35Z</time>
      </trkpt>
      <trkpt lat="59.320029" lon="18.070932">
        <ele>28</ele>
        <time>2019-12-03T06:43:36Z</time>
      </trkpt>
      <trkpt lat="59.320054" lon="18.070983">
        <ele>28</ele>
        <time>2019-12-03T06:43:37Z</time>
      </trkpt>
      <trkpt lat="59.320077" lon="18.07103">
        <ele>28</ele>
        <time>2019-12-03T06:43:38Z</time>
      </trkpt>
      <trkpt lat="59.3201" lon="18.071073">
        <ele>0</ele>
        <time>2019-12-03T06:43:38Z</time>
      </trkpt>
      <trkpt lat="59.320122" lon="18.071111">
        <ele>27</ele>
        <time>2019-12-03T06:43:39Z</time>
      </trkpt>
      <trkpt lat="59.320147" lon="18.071144">
        <ele>27</ele>
        <time>2019-12-03T06:43:41Z</time>
      </trkpt>
      <trkpt lat="59.320175" lon="18.071166">
        <ele>0</ele>
        <time>2019-12-03T06:43:41Z</time>
      </trkpt>
      <trkpt lat="59.320204" lon="18.071179">
        <ele>26</ele>
        <time>2019-12-03T06:43:42Z</time>
      </trkpt>
      <trkpt lat="59.320233" lon="18.071188">
        <ele>26</ele>
        <time>2019-12-03T06:43:43Z</time>
      </trkpt>
      <trkpt lat="59.320261" lon="18.07121">
        <ele>25</ele>
        <time>2019-12-03T06:43:45Z</time>
      </trkpt>
      <trkpt lat="59.320286" lon="18.071245">
        <ele>0</ele>
        <time>2019-12-03T06:43:45Z</time>
      </trkpt>
      <trkpt lat="59.320306" lon="18.071288">
        <ele>25</ele>
        <time>2019-12-03T06:43:46Z</time>
      </trkpt>
      <trkpt lat="59.32033" lon="18.071334">
        <ele>0</ele>
        <time>2019-12-03T06:43:47Z</time>
      </trkpt>
      <trkpt lat="59.320357" lon="18.071371">
        <ele>25</ele>
        <time>2019-12-03T06:43:48Z</time>
      </trkpt>
      <trkpt lat="59.320385" lon="18.071401">
        <ele>0</ele>
        <time>2019-12-03T06:43:49Z</time>
      </trkpt>
      <trkpt lat="59.320413" lon="18.071426">
        <ele>24</ele>
        <time>2019-12-03T06:43:50Z</time>
      </trkpt>
      <trkpt lat="59.320439" lon="18.071449">
        <ele>24</ele>
        <time>2019-12-03T06:43:51Z</time>
      </trkpt>
      <trkpt lat="59.320464" lon="18.07147">
        <ele>23</ele>
        <time>2019-12-03T06:43:53Z</time>
      </trkpt>
      <trkpt lat="59.32049" lon="18.071484">
        <ele>0</ele>
        <time>2019-12-03T06:43:53Z</time>
      </trkpt>
      <trkpt lat="59.320515" lon="18.071491">
        <ele>23</ele>
        <time>2019-12-03T06:43:54Z</time>
      </trkpt>
      <trkpt lat="59.320544" lon="18.071496">
        <ele>22</ele>
        <time>2019-12-03T06:43:56Z</time>
      </trkpt>
      <trkpt lat="59.320572" lon="18.071498">
        <ele>0</ele>
        <time>2019-12-03T06:43:56Z</time>
      </trkpt>
      <trkpt lat="59.3206" lon="18.071503">
        <ele>22</ele>
        <time>2019-12-03T06:43:57Z</time>
      </trkpt>
      <trkpt lat="59.320627" lon="18.071507">
        <ele>21</ele>
        <time>2019-12-03T06:43:59Z</time>
      </trkpt>
      <trkpt lat="59.320655" lon="18.071516">
        <ele>0</ele>
        <time>2019-12-03T06:43:59Z</time>
      </trkpt>
      <trkpt lat="59.320682" lon="18.071525">
        <ele>21</ele>
        <time>2019-12-03T06:44:00Z</time>
      </trkpt>
      <trkpt lat="59.32071" lon="18.07154">
        <ele>20</ele>
        <time>2019-12-03T06:44:02Z</time>
      </trkpt>
      <trkpt lat="59.320736" lon="18.071557">
        <ele>0</ele>
        <time>2019-12-03T06:44:02Z</time>
      </trkpt>
      <trkpt lat="59.320761" lon="18.071584">
        <ele>20</ele>
        <time>2019-12-03T06:44:03Z</time>
      </trkpt>
      <trkpt lat="59.320787" lon="18.071617">
        <ele>0</ele>
        <time>2019-12-03T06:44:04Z</time>
      </trkpt>
      <trkpt lat="59.32081" lon="18.071657">
        <ele>20</ele>
        <time>2019-12-03T06:44:05Z</time>
      </trkpt>
      <trkpt lat="59.320828" lon="18.071707">
        <ele>0</ele>
        <time>2019-12-03T06:44:06Z</time>
      </trkpt>
      <trkpt lat="59.320843" lon="18.071759">
        <ele>20</ele>
        <time>2019-12-03T06:44:07Z</time>
      </trkpt>
      <trkpt lat="59.320857" lon="18.071811">
        <ele>19</ele>
        <time>2019-12-03T06:44:09Z</time>
      </trkpt>
      <trkpt lat="59.32087" lon="18.071864">
        <ele>0</ele>
        <time>2019-12-03T06:44:09Z</time>
      </trkpt>
      <trkpt lat="59.320882" lon="18.071918">
        <ele>19</ele>
        <time>2019-12-03T06:44:10Z</time>
      </trkpt>
      <trkpt lat="59.320895" lon="18.071971">
        <ele>19</ele>
        <time>2019-12-03T06:44:12Z</time>
      </trkpt>
      <trkpt lat="59.32091" lon="18.072023">
        <ele>19</ele>
        <time>2019-12-03T06:44:13Z</time>
      </trkpt>
      <trkpt lat="59.320926" lon="18.072073">
        <ele>19</ele>
        <time>2019-12-03T06:44:14Z</time>
      </trkpt>
      <trkpt lat="59.320944" lon="18.072117">
        <ele>19</ele>
        <time>2019-12-03T06:44:15Z</time>
      </trkpt>
      <trkpt lat="59.320965" lon="18.072157">
        <ele>19</ele>
        <time>2019-12-03T06:44:16Z</time>
      </trkpt>
      <trkpt lat="59.320987" lon="18.072192">
        <ele>0</ele>
        <time>2019-12-03T06:44:16Z</time>
      </trkpt>
      <trkpt lat="59.321012" lon="18.072213">
        <ele>18</ele>
        <time>2019-12-03T06:44:17Z</time>
      </trkpt>
      <trkpt lat="59.321039" lon="18.072229">
        <ele>17</ele>
        <time>2019-12-03T06:44:19Z</time>
      </trkpt>
      <trkpt lat="59.321066" lon="18.072246">
        <ele>17</ele>
        <time>2019-12-03T06:44:20Z</time>
      </trkpt>
      <trkpt lat="59.321093" lon="18.072267">
        <ele>17</ele>
        <time>2019-12-03T06:44:21Z</time>
      </trkpt>
      <trkpt lat="59.32112" lon="18.072288">
        <ele>17</ele>
        <time>2019-12-03T06:44:22Z</time>
      </trkpt>
      <trkpt lat="59.321149" lon="18.072311">
        <ele>16</ele>
        <time>2019-12-03T06:44:23Z</time>
      </trkpt>
      <trkpt lat="59.321178" lon="18.072333">
        <ele>0</ele>
        <time>2019-12-03T06:44:23Z</time>
      </trkpt>
      <trkpt lat="59.321207" lon="18.072354">
        <ele>16</ele>
        <time>2019-12-03T06:44:24Z</time>
      </trkpt>
      <trkpt lat="59.321237" lon="18.072374">
        <ele>15</ele>
        <time>2019-12-03T06:44:26Z</time>
      </trkpt>
      <trkpt lat="59.321266" lon="18.072392">
        <ele>15</ele>
        <time>2019-12-03T06:44:27Z</time>
      </trkpt>
      <trkpt lat="59.321296" lon="18.072412">
        <ele>15</ele>
        <time>2019-12-03T06:44:28Z</time>
      </trkpt>
      <trkpt lat="59.321325" lon="18.072432">
        <ele>0</ele>
        <time>2019-12-03T06:44:28Z</time>
      </trkpt>
      <trkpt lat="59.321353" lon="18.072451">
        <ele>14</ele>
        <time>2019-12-03T06:44:29Z</time>
      </trkpt>
      <trkpt lat="59.321381" lon="18.072472">
        <ele>14</ele>
        <time>2019-12-03T06:44:31Z</time>
      </trkpt>
      <trkpt lat="59.321408" lon="18.072491">
        <ele>14</ele>
        <time>2019-12-03T06:44:32Z</time>
      </trkpt>
      <trkpt lat="59.321436" lon="18.072512">
        <ele>0</ele>
        <time>2019-12-03T06:44:32Z</time>
      </trkpt>
      <trkpt lat="59.321463" lon="18.07253">
        <ele>13</ele>
        <time>2019-12-03T06:44:33Z</time>
      </trkpt>
      <trkpt lat="59.32149" lon="18.072549">
        <ele>13</ele>
        <time>2019-12-03T06:44:35Z</time>
      </trkpt>
      <trkpt lat="59.321517" lon="18.072566">
        <ele>12</ele>
        <time>2019-12-03T06:44:36Z</time>
      </trkpt>
      <trkpt lat="59.321547" lon="18.072585">
        <ele>12</ele>
        <time>2019-12-03T06:44:37Z</time>
      </trkpt>
      <trkpt lat="59.321576" lon="18.072603">
        <ele>12</ele>
        <time>2019-12-03T06:44:38Z</time>
      </trkpt>
      <trkpt lat="59.321604" lon="18.072621">
        <ele>12</ele>
        <time>2019-12-03T06:44:39Z</time>
      </trkpt>
      <trkpt lat="59.321635" lon="18.07264">
        <ele>11</ele>
        <time>2019-12-03T06:44:40Z</time>
      </trkpt>
      <trkpt lat="59.321662" lon="18.072661">
        <ele>0</ele>
        <time>2019-12-03T06:44:40Z</time>
      </trkpt>
      <trkpt lat="59.321686" lon="18.072679">
        <ele>11</ele>
        <time>2019-12-03T06:44:41Z</time>
      </trkpt>
      <trkpt lat="59.321713" lon="18.072693">
        <ele>0</ele>
        <time>2019-12-03T06:44:42Z</time>
      </trkpt>
      <trkpt lat="59.321742" lon="18.072709">
        <ele>10</ele>
        <time>2019-12-03T06:44:43Z</time>
      </trkpt>
      <trkpt lat="59.321769" lon="18.072728">
        <ele>0</ele>
        <time>2019-12-03T06:44:44Z</time>
      </trkpt>
      <trkpt lat="59.321794" lon="18.072752">
        <ele>10</ele>
        <time>2019-12-03T06:44:45Z</time>
      </trkpt>
      <trkpt lat="59.321817" lon="18.072773">
        <ele>10</ele>
        <time>2019-12-03T06:44:47Z</time>
      </trkpt>
      <trkpt lat="59.321841" lon="18.072784">
        <ele>0</ele>
        <time>2019-12-03T06:44:47Z</time>
      </trkpt>
      <trkpt lat="59.321869" lon="18.072789">
        <ele>9</ele>
        <time>2019-12-03T06:44:48Z</time>
      </trkpt>
      <trkpt lat="59.321898" lon="18.072798">
        <ele>9</ele>
        <time>2019-12-03T06:44:50Z</time>
      </trkpt>
      <trkpt lat="59.321924" lon="18.072821">
        <ele>0</ele>
        <time>2019-12-03T06:44:50Z</time>
      </trkpt>
      <trkpt lat="59.321944" lon="18.072846">
        <ele>9</ele>
        <time>2019-12-03T06:44:51Z</time>
      </trkpt>
      <trkpt lat="59.321966" lon="18.072877">
        <ele>10</ele>
        <time>2019-12-03T06:44:53Z</time>
      </trkpt>
      <trkpt lat="59.321986" lon="18.072916">
        <ele>0</ele>
        <time>2019-12-03T06:44:53Z</time>
      </trkpt>
      <trkpt lat="59.322" lon="18.072939">
        <ele>10</ele>
        <time>2019-12-03T06:44:54Z</time>
      </trkpt>
      <trkpt lat="59.322012" lon="18.072974">
        <ele>10</ele>
        <time>2019-12-03T06:44:56Z</time>
      </trkpt>
      <trkpt lat="59.322012" lon="18.073038">
        <ele>10</ele>
        <time>2019-12-03T06:44:57Z</time>
      </trkpt>
      <trkpt lat="59.322004" lon="18.073085">
        <ele>10</ele>
        <time>2019-12-03T06:44:59Z</time>
      </trkpt>
      <trkpt lat="59.321997" lon="18.073137">
        <ele>10</ele>
        <time>2019-12-03T06:45:00Z</time>
      </trkpt>
      <trkpt lat="59.321989" lon="18.073191">
        <ele>0</ele>
        <time>2019-12-03T06:45:00Z</time>
      </trkpt>
      <trkpt lat="59.321981" lon="18.073242">
        <ele>11</ele>
        <time>2019-12-03T06:45:01Z</time>
      </trkpt>
      <trkpt lat="59.321973" lon="18.073296">
        <ele>11</ele>
        <time>2019-12-03T06:45:02Z</time>
      </trkpt>
      <trkpt lat="59.321967" lon="18.073348">
        <ele>0</ele>
        <time>2019-12-03T06:45:03Z</time>
      </trkpt>
      <trkpt lat="59.321959" lon="18.073397">
        <ele>11</ele>
        <time>2019-12-03T06:45:04Z</time>
      </trkpt>
      <trkpt lat="59.321952" lon="18.073445">
        <ele>11</ele>
        <time>2019-12-03T06:45:06Z</time>
      </trkpt>
      <trkpt lat="59.321944" lon="18.073498">
        <ele>0</ele>
        <time>2019-12-03T06:45:06Z</time>
      </trkpt>
      <trkpt lat="59.321938" lon="18.073548">
        <ele>11</ele>
        <time>2019-12-03T06:45:07Z</time>
      </trkpt>
      <trkpt lat="59.321929" lon="18.073604">
        <ele>11</ele>
        <time>2019-12-03T06:45:09Z</time>
      </trkpt>
      <trkpt lat="59.321923" lon="18.073658">
        <ele>0</ele>
        <time>2019-12-03T06:45:09Z</time>
      </trkpt>
      <trkpt lat="59.321919" lon="18.073708">
        <ele>11</ele>
        <time>2019-12-03T06:45:10Z</time>
      </trkpt>
      <trkpt lat="59.321922" lon="18.073759">
        <ele>10</ele>
        <time>2019-12-03T06:45:11Z</time>
      </trkpt>
      <trkpt lat="59.321936" lon="18.073802">
        <ele>9</ele>
        <time>2019-12-03T06:45:13Z</time>
      </trkpt>
      <trkpt lat="59.321959" lon="18.073834">
        <ele>0</ele>
        <time>2019-12-03T06:45:13Z</time>
      </trkpt>
      <trkpt lat="59.32199" lon="18.07387">
        <ele>9</ele>
        <time>2019-12-03T06:45:14Z</time>
      </trkpt>
      <trkpt lat="59.322021" lon="18.073906">
        <ele>8</ele>
        <time>2019-12-03T06:45:16Z</time>
      </trkpt>
      <trkpt lat="59.322052" lon="18.073934">
        <ele>8</ele>
        <time>2019-12-03T06:45:17Z</time>
      </trkpt>
      <trkpt lat="59.322081" lon="18.073958">
        <ele>8</ele>
        <time>2019-12-03T06:45:18Z</time>
      </trkpt>
      <trkpt lat="59.322109" lon="18.073986">
        <ele>0</ele>
        <time>2019-12-03T06:45:18Z</time>
      </trkpt>
      <trkpt lat="59.322137" lon="18.074016">
        <ele>8</ele>
        <time>2019-12-03T06:45:19Z</time>
      </trkpt>
      <trkpt lat="59.322162" lon="18.074033">
        <ele>0</ele>
        <time>2019-12-03T06:45:20Z</time>
      </trkpt>
      <trkpt lat="59.322188" lon="18.074053">
        <ele>7</ele>
        <time>2019-12-03T06:45:21Z</time>
      </trkpt>
      <trkpt lat="59.322217" lon="18.074066">
        <ele>0</ele>
        <time>2019-12-03T06:45:22Z</time>
      </trkpt>
      <trkpt lat="59.32225" lon="18.074086">
        <ele>6</ele>
        <time>2019-12-03T06:45:23Z</time>
      </trkpt>
      <trkpt lat="59.32228" lon="18.07411">
        <ele>6</ele>
        <time>2019-12-03T06:45:25Z</time>
      </trkpt>
      <trkpt lat="59.322305" lon="18.074125">
        <ele>0</ele>
        <time>2019-12-03T06:45:25Z</time>
      </trkpt>
      <trkpt lat="59.322331" lon="18.074144">
        <ele>6</ele>
        <time>2019-12-03T06:45:26Z</time>
      </trkpt>
      <trkpt lat="59.322356" lon="18.074174">
        <ele>6</ele>
        <time>2019-12-03T06:45:27Z</time>
      </trkpt>
      <trkpt lat="59.32238" lon="18.074206">
        <ele>5</ele>
        <time>2019-12-03T06:45:29Z</time>
      </trkpt>
      <trkpt lat="59.322405" lon="18.074231">
        <ele>0</ele>
        <time>2019-12-03T06:45:29Z</time>
      </trkpt>
      <trkpt lat="59.322434" lon="18.074253">
        <ele>5</ele>
        <time>2019-12-03T06:45:30Z</time>
      </trkpt>
      <trkpt lat="59.32246" lon="18.074288">
        <ele>5</ele>
        <time>2019-12-03T06:45:32Z</time>
      </trkpt>
      <trkpt lat="59.322483" lon="18.074322">
        <ele>5</ele>
        <time>2019-12-03T06:45:33Z</time>
      </trkpt>
      <trkpt lat="59.322509" lon="18.074351">
        <ele>5</ele>
        <time>2019-12-03T06:45:34Z</time>
      </trkpt>
      <trkpt lat="59.322533" lon="18.074379">
        <ele>0</ele>
        <time>2019-12-03T06:45:34Z</time>
      </trkpt>
      <trkpt lat="59.322556" lon="18.074411">
        <ele>5</ele>
        <time>2019-12-03T06:45:35Z</time>
      </trkpt>
      <trkpt lat="59.322581" lon="18.074438">
        <ele>4</ele>
        <time>2019-12-03T06:45:37Z</time>
      </trkpt>
      <trkpt lat="59.322609" lon="18.074456">
        <ele>0</ele>
        <time>2019-12-03T06:45:37Z</time>
      </trkpt>
      <trkpt lat="59.322636" lon="18.074484">
        <ele>4</ele>
        <time>2019-12-03T06:45:38Z</time>
      </trkpt>
      <trkpt lat="59.32266" lon="18.074508">
        <ele>0</ele>
        <time>2019-12-03T06:45:39Z</time>
      </trkpt>
      <trkpt lat="59.322682" lon="18.074534">
        <ele>4</ele>
        <time>2019-12-03T06:45:40Z</time>
      </trkpt>
      <trkpt lat="59.322704" lon="18.074559">
        <ele>0</ele>
        <time>2019-12-03T06:45:41Z</time>
      </trkpt>
      <trkpt lat="59.322728" lon="18.074592">
        <ele>4</ele>
        <time>2019-12-03T06:45:42Z</time>
      </trkpt>
      <trkpt lat="59.322756" lon="18.074618">
        <ele>4</ele>
        <time>2019-12-03T06:45:43Z</time>
      </trkpt>
      <trkpt lat="59.322783" lon="18.074647">
        <ele>3</ele>
        <time>2019-12-03T06:45:44Z</time>
      </trkpt>
      <trkpt lat="59.322809" lon="18.074684">
        <ele>3</ele>
        <time>2019-12-03T06:45:46Z</time>
      </trkpt>
      <trkpt lat="59.322836" lon="18.074713">
        <ele>0</ele>
        <time>2019-12-03T06:45:46Z</time>
      </trkpt>
      <trkpt lat="59.322864" lon="18.074738">
        <ele>3</ele>
        <time>2019-12-03T06:45:47Z</time>
      </trkpt>
      <trkpt lat="59.322889" lon="18.07477">
        <ele>3</ele>
        <time>2019-12-03T06:45:49Z</time>
      </trkpt>
      <trkpt lat="59.322914" lon="18.074803">
        <ele>3</ele>
        <time>2019-12-03T06:45:50Z</time>
      </trkpt>
      <trkpt lat="59.32294" lon="18.074829">
        <ele>3</ele>
        <time>2019-12-03T06:45:51Z</time>
      </trkpt>
      <trkpt lat="59.322965" lon="18.074859">
        <ele>0</ele>
        <time>2019-12-03T06:45:51Z</time>
      </trkpt>
      <trkpt lat="59.322994" lon="18.074879">
        <ele>3</ele>
        <time>2019-12-03T06:45:52Z</time>
      </trkpt>
      <trkpt lat="59.323025" lon="18.074898">
        <ele>3</ele>
        <time>2019-12-03T06:45:54Z</time>
      </trkpt>
      <trkpt lat="59.323056" lon="18.074918">
        <ele>0</ele>
        <time>2019-12-03T06:45:54Z</time>
      </trkpt>
      <trkpt lat="59.323086" lon="18.074935">
        <ele>2</ele>
        <time>2019-12-03T06:45:55Z</time>
      </trkpt>
      <trkpt lat="59.323115" lon="18.074947">
        <ele>2</ele>
        <time>2019-12-03T06:45:57Z</time>
      </trkpt>
      <trkpt lat="59.323139" lon="18.074969">
        <ele>0</ele>
        <time>2019-12-03T06:45:57Z</time>
      </trkpt>
      <trkpt lat="59.323164" lon="18.074987">
        <ele>2</ele>
        <time>2019-12-03T06:45:58Z</time>
      </trkpt>
      <trkpt lat="59.32319" lon="18.074999">
        <ele>2</ele>
        <time>2019-12-03T06:45:59Z</time>
      </trkpt>
      <trkpt lat="59.323218" lon="18.075003">
        <ele>0</ele>
        <time>2019-12-03T06:46:00Z</time>
      </trkpt>
      <trkpt lat="59.323244" lon="18.075003">
        <ele>1</ele>
        <time>2019-12-03T06:46:01Z</time>
      </trkpt>
      <trkpt lat="59.32327" lon="18.075006">
        <ele>1</ele>
        <time>2019-12-03T06:46:03Z</time>
      </trkpt>
      <trkpt lat="59.323294" lon="18.075014">
        <ele>1</ele>
        <time>2019-12-03T06:46:04Z</time>
      </trkpt>
      <trkpt lat="59.323322" lon="18.075028">
        <ele>0</ele>
        <time>2019-12-03T06:46:05Z</time>
      </trkpt>
      <trkpt lat="59.323351" lon="18.075055">
        <ele>0</ele>
        <time>2019-12-03T06:46:06Z</time>
      </trkpt>
      <trkpt lat="59.32338" lon="18.07509">
        <ele>0</ele>
        <time>2019-12-03T06:46:07Z</time>
      </trkpt>
      <trkpt lat="59.32344" lon="18.07514">
        <ele>0</ele>
        <time>2019-12-03T06:46:08Z</time>
      </trkpt>
      <trkpt lat="59.323469" lon="18.075164">
        <ele>0</ele>
        <time>2019-12-03T06:46:09Z</time>
      </trkpt>
      <trkpt lat="59.3235" lon="18.075184">
        <ele>0</ele>
        <time>2019-12-03T06:46:11Z</time>
      </trkpt>
      <trkpt lat="59.323528" lon="18.075197">
        <ele>0</ele>
        <time>2019-12-03T06:46:11Z</time>
      </trkpt>
      <trkpt lat="59.323556" lon="18.07521">
        <ele>0</ele>
        <time>2019-12-03T06:46:12Z</time>
      </trkpt>
      <trkpt lat="59.323584" lon="18.075226">
        <ele>0</ele>
        <time>2019-12-03T06:46:14Z</time>
      </trkpt>
      <trkpt lat="59.323615" lon="18.075232">
        <ele>0</ele>
        <time>2019-12-03T06:46:14Z</time>
      </trkpt>
      <trkpt lat="59.323651" lon="18.075204">
        <ele>0</ele>
        <time>2019-12-03T06:46:15Z</time>
      </trkpt>
      <trkpt lat="59.32368" lon="18.075216">
        <ele>0</ele>
        <time>2019-12-03T06:46:17Z</time>
      </trkpt>
      <trkpt lat="59.323711" lon="18.075224">
        <ele>0</ele>
        <time>2019-12-03T06:46:17Z</time>
      </trkpt>
      <trkpt lat="59.323738" lon="18.07523">
        <ele>0</ele>
        <time>2019-12-03T06:46:19Z</time>
      </trkpt>
      <trkpt lat="59.323765" lon="18.075244">
        <ele>0</ele>
        <time>2019-12-03T06:46:20Z</time>
      </trkpt>
      <trkpt lat="59.323793" lon="18.075249">
        <ele>0</ele>
        <time>2019-12-03T06:46:21Z</time>
      </trkpt>
      <trkpt lat="59.32382" lon="18.075267">
        <ele>0</ele>
        <time>2019-12-03T06:46:22Z</time>
      </trkpt>
      <trkpt lat="59.323848" lon="18.075272">
        <ele>0</ele>
        <time>2019-12-03T06:46:23Z</time>
      </trkpt>
      <trkpt lat="59.323877" lon="18.07527">
        <ele>0</ele>
        <time>2019-12-03T06:46:24Z</time>
      </trkpt>
      <trkpt lat="59.323911" lon="18.075259">
        <ele>0</ele>
        <time>2019-12-03T06:46:25Z</time>
      </trkpt>
      <trkpt lat="59.323946" lon="18.075256">
        <ele>0</ele>
        <time>2019-12-03T06:46:25Z</time>
      </trkpt>
      <trkpt lat="59.323976" lon="18.075266">
        <ele>0</ele>
        <time>2019-12-03T06:46:26Z</time>
      </trkpt>
      <trkpt lat="59.324004" lon="18.075276">
        <ele>0</ele>
        <time>2019-12-03T06:46:28Z</time>
      </trkpt>
      <trkpt lat="59.32403" lon="18.075292">
        <ele>0</ele>
        <time>2019-12-03T06:46:28Z</time>
      </trkpt>
      <trkpt lat="59.324054" lon="18.075311">
        <ele>0</ele>
        <time>2019-12-03T06:46:29Z</time>
      </trkpt>
      <trkpt lat="59.32408" lon="18.075322">
        <ele>0</ele>
        <time>2019-12-03T06:46:31Z</time>
      </trkpt>
      <trkpt lat="59.32411" lon="18.075322">
        <ele>0</ele>
        <time>2019-12-03T06:46:31Z</time>
      </trkpt>
      <trkpt lat="59.32414" lon="18.075326">
        <ele>0</ele>
        <time>2019-12-03T06:46:32Z</time>
      </trkpt>
      <trkpt lat="59.32417" lon="18.07532">
        <ele>0</ele>
        <time>2019-12-03T06:46:34Z</time>
      </trkpt>
      <trkpt lat="59.324196" lon="18.07533">
        <ele>0</ele>
        <time>2019-12-03T06:46:34Z</time>
      </trkpt>
      <trkpt lat="59.324223" lon="18.075338">
        <ele>0</ele>
        <time>2019-12-03T06:46:35Z</time>
      </trkpt>
      <trkpt lat="59.324248" lon="18.075344">
        <ele>0</ele>
        <time>2019-12-03T06:46:36Z</time>
      </trkpt>
      <trkpt lat="59.32427" lon="18.075352">
        <ele>0</ele>
        <time>2019-12-03T06:46:37Z</time>
      </trkpt>
      <trkpt lat="59.324296" lon="18.075362">
        <ele>0</ele>
        <time>2019-12-03T06:46:38Z</time>
      </trkpt>
      <trkpt lat="59.324328" lon="18.075364">
        <ele>0</ele>
        <time>2019-12-03T06:46:39Z</time>
      </trkpt>
      <trkpt lat="59.324355" lon="18.075366">
        <ele>0</ele>
        <time>2019-12-03T06:46:41Z</time>
      </trkpt>
      <trkpt lat="59.32438" lon="18.075384">
        <ele>0</ele>
        <time>2019-12-03T06:46:41Z</time>
      </trkpt>
      <trkpt lat="59.324405" lon="18.075406">
        <ele>0</ele>
        <time>2019-12-03T06:46:42Z</time>
      </trkpt>
      <trkpt lat="59.324442" lon="18.07542">
        <ele>0</ele>
        <time>2019-12-03T06:46:44Z</time>
      </trkpt>
      <trkpt lat="59.324472" lon="18.075428">
        <ele>0</ele>
        <time>2019-12-03T06:46:44Z</time>
      </trkpt>
      <trkpt lat="59.3245" lon="18.075434">
        <ele>0</ele>
        <time>2019-12-03T06:46:45Z</time>
      </trkpt>
      <trkpt lat="59.324532" lon="18.075434">
        <ele>0</ele>
        <time>2019-12-03T06:46:47Z</time>
      </trkpt>
      <trkpt lat="59.324564" lon="18.075444">
        <ele>0</ele>
        <time>2019-12-03T06:46:48Z</time>
      </trkpt>
      <trkpt lat="59.324594" lon="18.075454">
        <ele>0</ele>
        <time>2019-12-03T06:46:49Z</time>
      </trkpt>
      <trkpt lat="59.324622" lon="18.075467">
        <ele>0</ele>
        <time>2019-12-03T06:46:50Z</time>
      </trkpt>
      <trkpt lat="59.324651" lon="18.075478">
        <ele>0</ele>
        <time>2019-12-03T06:46:51Z</time>
      </trkpt>
      <trkpt lat="59.324679" lon="18.07549">
        <ele>0</ele>
        <time>2019-12-03T06:46:51Z</time>
      </trkpt>
      <trkpt lat="59.324708" lon="18.075494">
        <ele>0</ele>
        <time>2019-12-03T06:46:52Z</time>
      </trkpt>
      <trkpt lat="59.32474" lon="18.075504">
        <ele>0</ele>
        <time>2019-12-03T06:46:54Z</time>
      </trkpt>
      <trkpt lat="59.324769" lon="18.075515">
        <ele>0</ele>
        <time>2019-12-03T06:46:55Z</time>
      </trkpt>
      <trkpt lat="59.324796" lon="18.075532">
        <ele>0</ele>
        <time>2019-12-03T06:46:55Z</time>
      </trkpt>
      <trkpt lat="59.32482" lon="18.075544">
        <ele>0</ele>
        <time>2019-12-03T06:46:56Z</time>
      </trkpt>
      <trkpt lat="59.324845" lon="18.075546">
        <ele>0</ele>
        <time>2019-12-03T06:46:58Z</time>
      </trkpt>
      <trkpt lat="59.32487" lon="18.075556">
        <ele>0</ele>
        <time>2019-12-03T06:46:58Z</time>
      </trkpt>
      <trkpt lat="59.324896" lon="18.075556">
        <ele>0</ele>
        <time>2019-12-03T06:46:59Z</time>
      </trkpt>
      <trkpt lat="59.324928" lon="18.075568">
        <ele>1</ele>
        <time>2019-12-03T06:47:01Z</time>
      </trkpt>
      <trkpt lat="59.324962" lon="18.075554">
        <ele>1</ele>
        <time>2019-12-03T06:47:02Z</time>
      </trkpt>
      <trkpt lat="59.324995" lon="18.075538">
        <ele>1</ele>
        <time>2019-12-03T06:47:03Z</time>
      </trkpt>
      <trkpt lat="59.325021" lon="18.075532">
        <ele>0</ele>
        <time>2019-12-03T06:47:03Z</time>
      </trkpt>
      <trkpt lat="59.325044" lon="18.075546">
        <ele>1</ele>
        <time>2019-12-03T06:47:04Z</time>
      </trkpt>
      <trkpt lat="59.325071" lon="18.075558">
        <ele>0</ele>
        <time>2019-12-03T06:47:06Z</time>
      </trkpt>
      <trkpt lat="59.325097" lon="18.075565">
        <ele>0</ele>
        <time>2019-12-03T06:47:06Z</time>
      </trkpt>
      <trkpt lat="59.325123" lon="18.075566">
        <ele>0</ele>
        <time>2019-12-03T06:47:07Z</time>
      </trkpt>
      <trkpt lat="59.325151" lon="18.07556">
        <ele>1</ele>
        <time>2019-12-03T06:47:09Z</time>
      </trkpt>
      <trkpt lat="59.325181" lon="18.075545">
        <ele>0</ele>
        <time>2019-12-03T06:47:09Z</time>
      </trkpt>
      <trkpt lat="59.325209" lon="18.075544">
        <ele>1</ele>
        <time>2019-12-03T06:47:10Z</time>
      </trkpt>
      <trkpt lat="59.325237" lon="18.075542">
        <ele>1</ele>
        <time>2019-12-03T06:47:12Z</time>
      </trkpt>
      <trkpt lat="59.325262" lon="18.075538">
        <ele>0</ele>
        <time>2019-12-03T06:47:12Z</time>
      </trkpt>
      <trkpt lat="59.325292" lon="18.07553">
        <ele>1</ele>
        <time>2019-12-03T06:47:13Z</time>
      </trkpt>
      <trkpt lat="59.325318" lon="18.075534">
        <ele>0</ele>
        <time>2019-12-03T06:47:14Z</time>
      </trkpt>
      <trkpt lat="59.325342" lon="18.075542">
        <ele>0</ele>
        <time>2019-12-03T06:47:15Z</time>
      </trkpt>
      <trkpt lat="59.325365" lon="18.075552">
        <ele>0</ele>
        <time>2019-12-03T06:47:16Z</time>
      </trkpt>
      <trkpt lat="59.325397" lon="18.075561">
        <ele>0</ele>
        <time>2019-12-03T06:47:17Z</time>
      </trkpt>
      <trkpt lat="59.325429" lon="18.075564">
        <ele>0</ele>
        <time>2019-12-03T06:47:19Z</time>
      </trkpt>
      <trkpt lat="59.32546" lon="18.075576">
        <ele>0</ele>
        <time>2019-12-03T06:47:19Z</time>
      </trkpt>
      <trkpt lat="59.325488" lon="18.075573">
        <ele>0</ele>
        <time>2019-12-03T06:47:20Z</time>
      </trkpt>
      <trkpt lat="59.325519" lon="18.075559">
        <ele>1</ele>
        <time>2019-12-03T06:47:22Z</time>
      </trkpt>
      <trkpt lat="59.325556" lon="18.07552">
        <ele>1</ele>
        <time>2019-12-03T06:47:23Z</time>
      </trkpt>
      <trkpt lat="59.325589" lon="18.075501">
        <ele>1</ele>
        <time>2019-12-03T06:47:24Z</time>
      </trkpt>
      <trkpt lat="59.325621" lon="18.075507">
        <ele>1</ele>
        <time>2019-12-03T06:47:25Z</time>
      </trkpt>
      <trkpt lat="59.325649" lon="18.075511">
        <ele>1</ele>
        <time>2019-12-03T06:47:26Z</time>
      </trkpt>
      <trkpt lat="59.325676" lon="18.075513">
        <ele>0</ele>
        <time>2019-12-03T06:47:26Z</time>
      </trkpt>
      <trkpt lat="59.325701" lon="18.075508">
        <ele>1</ele>
        <time>2019-12-03T06:47:27Z</time>
      </trkpt>
      <trkpt lat="59.325725" lon="18.075503">
        <ele>1</ele>
        <time>2019-12-03T06:47:29Z</time>
      </trkpt>
      <trkpt lat="59.325753" lon="18.075486">
        <ele>0</ele>
        <time>2019-12-03T06:47:30Z</time>
      </trkpt>
      <trkpt lat="59.325785" lon="18.075477">
        <ele>0</ele>
        <time>2019-12-03T06:47:31Z</time>
      </trkpt>
      <trkpt lat="59.325817" lon="18.075468">
        <ele>0</ele>
        <time>2019-12-03T06:47:32Z</time>
      </trkpt>
      <trkpt lat="59.325849" lon="18.075452">
        <ele>0</ele>
        <time>2019-12-03T06:47:33Z</time>
      </trkpt>
      <trkpt lat="59.325873" lon="18.075426">
        <ele>0</ele>
        <time>2019-12-03T06:47:33Z</time>
      </trkpt>
      <trkpt lat="59.325895" lon="18.075397">
        <ele>0</ele>
        <time>2019-12-03T06:47:34Z</time>
      </trkpt>
      <trkpt lat="59.325918" lon="18.075366">
        <ele>0</ele>
        <time>2019-12-03T06:47:35Z</time>
      </trkpt>
      <trkpt lat="59.325941" lon="18.075332">
        <ele>0</ele>
        <time>2019-12-03T06:47:36Z</time>
      </trkpt>
      <trkpt lat="59.325964" lon="18.075304">
        <ele>1</ele>
        <time>2019-12-03T06:47:38Z</time>
      </trkpt>
      <trkpt lat="59.325988" lon="18.075275">
        <ele>0</ele>
        <time>2019-12-03T06:47:38Z</time>
      </trkpt>
      <trkpt lat="59.32601" lon="18.075244">
        <ele>1</ele>
        <time>2019-12-03T06:47:39Z</time>
      </trkpt>
      <trkpt lat="59.326028" lon="18.075206">
        <ele>1</ele>
        <time>2019-12-03T06:47:41Z</time>
      </trkpt>
      <trkpt lat="59.326045" lon="18.075177">
        <ele>0</ele>
        <time>2019-12-03T06:47:41Z</time>
      </trkpt>
      <trkpt lat="59.326066" lon="18.075167">
        <ele>1</ele>
        <time>2019-12-03T06:47:42Z</time>
      </trkpt>
      <trkpt lat="59.32609" lon="18.075173">
        <ele>1</ele>
        <time>2019-12-03T06:47:44Z</time>
      </trkpt>
      <trkpt lat="59.326115" lon="18.075194">
        <ele>0</ele>
        <time>2019-12-03T06:47:44Z</time>
      </trkpt>
      <trkpt lat="59.326141" lon="18.075208">
        <ele>1</ele>
        <time>2019-12-03T06:47:45Z</time>
      </trkpt>
      <trkpt lat="59.326168" lon="18.075208">
        <ele>1</ele>
        <time>2019-12-03T06:47:47Z</time>
      </trkpt>
      <trkpt lat="59.326193" lon="18.075191">
        <ele>0</ele>
        <time>2019-12-03T06:47:47Z</time>
      </trkpt>
      <trkpt lat="59.326217" lon="18.075167">
        <ele>1</ele>
        <time>2019-12-03T06:47:48Z</time>
      </trkpt>
      <trkpt lat="59.326241" lon="18.07514">
        <ele>2</ele>
        <time>2019-12-03T06:47:50Z</time>
      </trkpt>
      <trkpt lat="59.326265" lon="18.075114">
        <ele>2</ele>
        <time>2019-12-03T06:47:51Z</time>
      </trkpt>
      <trkpt lat="59.326287" lon="18.075085">
        <ele>2</ele>
        <time>2019-12-03T06:47:52Z</time>
      </trkpt>
      <trkpt lat="59.326309" lon="18.075053">
        <ele>0</ele>
        <time>2019-12-03T06:47:52Z</time>
      </trkpt>
      <trkpt lat="59.326332" lon="18.075021">
        <ele>2</ele>
        <time>2019-12-03T06:47:53Z</time>
      </trkpt>
      <trkpt lat="59.326356" lon="18.074989">
        <ele>2</ele>
        <time>2019-12-03T06:47:55Z</time>
      </trkpt>
      <trkpt lat="59.326381" lon="18.074964">
        <ele>0</ele>
        <time>2019-12-03T06:47:55Z</time>
      </trkpt>
      <trkpt lat="59.326406" lon="18.074937">
        <ele>2</ele>
        <time>2019-12-03T06:47:56Z</time>
      </trkpt>
      <trkpt lat="59.326431" lon="18.074909">
        <ele>2</ele>
        <time>2019-12-03T06:47:58Z</time>
      </trkpt>
      <trkpt lat="59.326455" lon="18.07488">
        <ele>2</ele>
        <time>2019-12-03T06:47:59Z</time>
      </trkpt>
      <trkpt lat="59.326478" lon="18.074849">
        <ele>3</ele>
        <time>2019-12-03T06:48:00Z</time>
      </trkpt>
      <trkpt lat="59.326503" lon="18.074822">
        <ele>0</ele>
        <time>2019-12-03T06:48:00Z</time>
      </trkpt>
      <trkpt lat="59.326529" lon="18.074797">
        <ele>3</ele>
        <time>2019-12-03T06:48:01Z</time>
      </trkpt>
      <trkpt lat="59.326556" lon="18.074779">
        <ele>0</ele>
        <time>2019-12-03T06:48:02Z</time>
      </trkpt>
      <trkpt lat="59.326582" lon="18.074755">
        <ele>3</ele>
        <time>2019-12-03T06:48:03Z</time>
      </trkpt>
      <trkpt lat="59.326608" lon="18.074735">
        <ele>3</ele>
        <time>2019-12-03T06:48:05Z</time>
      </trkpt>
      <trkpt lat="59.326633" lon="18.074714">
        <ele>0</ele>
        <time>2019-12-03T06:48:05Z</time>
      </trkpt>
      <trkpt lat="59.326659" lon="18.074693">
        <ele>3</ele>
        <time>2019-12-03T06:48:06Z</time>
      </trkpt>
      <trkpt lat="59.326686" lon="18.074671">
        <ele>3</ele>
        <time>2019-12-03T06:48:08Z</time>
      </trkpt>
      <trkpt lat="59.326714" lon="18.074647">
        <ele>0</ele>
        <time>2019-12-03T06:48:08Z</time>
      </trkpt>
      <trkpt lat="59.326739" lon="18.074625">
        <ele>3</ele>
        <time>2019-12-03T06:48:09Z</time>
      </trkpt>
      <trkpt lat="59.326765" lon="18.074604">
        <ele>3</ele>
        <time>2019-12-03T06:48:11Z</time>
      </trkpt>
      <trkpt lat="59.326791" lon="18.074584">
        <ele>0</ele>
        <time>2019-12-03T06:48:11Z</time>
      </trkpt>
      <trkpt lat="59.326818" lon="18.074564">
        <ele>3</ele>
        <time>2019-12-03T06:48:12Z</time>
      </trkpt>
      <trkpt lat="59.326845" lon="18.074547">
        <ele>0</ele>
        <time>2019-12-03T06:48:13Z</time>
      </trkpt>
      <trkpt lat="59.326868" lon="18.074523">
        <ele>3</ele>
        <time>2019-12-03T06:48:14Z</time>
      </trkpt>
      <trkpt lat="59.326891" lon="18.07449">
        <ele>4</ele>
        <time>2019-12-03T06:48:16Z</time>
      </trkpt>
      <trkpt lat="59.326915" lon="18.074459">
        <ele>0</ele>
        <time>2019-12-03T06:48:16Z</time>
      </trkpt>
      <trkpt lat="59.326939" lon="18.074428">
        <ele>4</ele>
        <time>2019-12-03T06:48:17Z</time>
      </trkpt>
      <trkpt lat="59.326963" lon="18.074397">
        <ele>4</ele>
        <time>2019-12-03T06:48:19Z</time>
      </trkpt>
      <trkpt lat="59.326988" lon="18.074366">
        <ele>0</ele>
        <time>2019-12-03T06:48:19Z</time>
      </trkpt>
      <trkpt lat="59.327011" lon="18.074337">
        <ele>4</ele>
        <time>2019-12-03T06:48:20Z</time>
      </trkpt>
      <trkpt lat="59.327036" lon="18.074308">
        <ele>4</ele>
        <time>2019-12-03T06:48:22Z</time>
      </trkpt>
      <trkpt lat="59.327062" lon="18.074277">
        <ele>0</ele>
        <time>2019-12-03T06:48:22Z</time>
      </trkpt>
      <trkpt lat="59.327088" lon="18.074247">
        <ele>4</ele>
        <time>2019-12-03T06:48:23Z</time>
      </trkpt>
      <trkpt lat="59.327113" lon="18.074218">
        <ele>4</ele>
        <time>2019-12-03T06:48:25Z</time>
      </trkpt>
      <trkpt lat="59.327137" lon="18.07419">
        <ele>5</ele>
        <time>2019-12-03T06:48:26Z</time>
      </trkpt>
      <trkpt lat="59.327162" lon="18.074161">
        <ele>5</ele>
        <time>2019-12-03T06:48:27Z</time>
      </trkpt>
      <trkpt lat="59.327186" lon="18.074132">
        <ele>5</ele>
        <time>2019-12-03T06:48:28Z</time>
      </trkpt>
      <trkpt lat="59.32721" lon="18.074104">
        <ele>5</ele>
        <time>2019-12-03T06:48:29Z</time>
      </trkpt>
      <trkpt lat="59.327234" lon="18.074078">
        <ele>5</ele>
        <time>2019-12-03T06:48:30Z</time>
      </trkpt>
      <trkpt lat="59.327257" lon="18.07405">
        <ele>0</ele>
        <time>2019-12-03T06:48:30Z</time>
      </trkpt>
      <trkpt lat="59.327281" lon="18.074023">
        <ele>5</ele>
        <time>2019-12-03T06:48:31Z</time>
      </trkpt>
      <trkpt lat="59.327306" lon="18.074">
        <ele>0</ele>
        <time>2019-12-03T06:48:32Z</time>
      </trkpt>
      <trkpt lat="59.32733" lon="18.073975">
        <ele>5</ele>
        <time>2019-12-03T06:48:33Z</time>
      </trkpt>
      <trkpt lat="59.327353" lon="18.073948">
        <ele>5</ele>
        <time>2019-12-03T06:48:35Z</time>
      </trkpt>
      <trkpt lat="59.327376" lon="18.073921">
        <ele>0</ele>
        <time>2019-12-03T06:48:35Z</time>
      </trkpt>
      <trkpt lat="59.3274" lon="18.073893">
        <ele>5</ele>
        <time>2019-12-03T06:48:36Z</time>
      </trkpt>
      <trkpt lat="59.327425" lon="18.073869">
        <ele>0</ele>
        <time>2019-12-03T06:48:37Z</time>
      </trkpt>
      <trkpt lat="59.32745" lon="18.073841">
        <ele>5</ele>
        <time>2019-12-03T06:48:38Z</time>
      </trkpt>
      <trkpt lat="59.327475" lon="18.073816">
        <ele>5</ele>
        <time>2019-12-03T06:48:40Z</time>
      </trkpt>
      <trkpt lat="59.327499" lon="18.073785">
        <ele>0</ele>
        <time>2019-12-03T06:48:40Z</time>
      </trkpt>
      <trkpt lat="59.327523" lon="18.073755">
        <ele>5</ele>
        <time>2019-12-03T06:48:41Z</time>
      </trkpt>
      <trkpt lat="59.327546" lon="18.073729">
        <ele>6</ele>
        <time>2019-12-03T06:48:43Z</time>
      </trkpt>
      <trkpt lat="59.327572" lon="18.073702">
        <ele>6</ele>
        <time>2019-12-03T06:48:44Z</time>
      </trkpt>
      <trkpt lat="59.327596" lon="18.073673">
        <ele>6</ele>
        <time>2019-12-03T06:48:45Z</time>
      </trkpt>
      <trkpt lat="59.327621" lon="18.073649">
        <ele>0</ele>
        <time>2019-12-03T06:48:45Z</time>
      </trkpt>
      <trkpt lat="59.327646" lon="18.073626">
        <ele>6</ele>
        <time>2019-12-03T06:48:46Z</time>
      </trkpt>
      <trkpt lat="59.327669" lon="18.073599">
        <ele>6</ele>
        <time>2019-12-03T06:48:48Z</time>
      </trkpt>
      <trkpt lat="59.327693" lon="18.073572">
        <ele>0</ele>
        <time>2019-12-03T06:48:48Z</time>
      </trkpt>
      <trkpt lat="59.327716" lon="18.073544">
        <ele>6</ele>
        <time>2019-12-03T06:48:49Z</time>
      </trkpt>
      <trkpt lat="59.32774" lon="18.073518">
        <ele>6</ele>
        <time>2019-12-03T06:48:50Z</time>
      </trkpt>
      <trkpt lat="59.327763" lon="18.073492">
        <ele>0</ele>
        <time>2019-12-03T06:48:51Z</time>
      </trkpt>
      <trkpt lat="59.327787" lon="18.073467">
        <ele>6</ele>
        <time>2019-12-03T06:48:52Z</time>
      </trkpt>
      <trkpt lat="59.327811" lon="18.073439">
        <ele>6</ele>
        <time>2019-12-03T06:48:54Z</time>
      </trkpt>
      <trkpt lat="59.327834" lon="18.073413">
        <ele>0</ele>
        <time>2019-12-03T06:48:54Z</time>
      </trkpt>
      <trkpt lat="59.327857" lon="18.073386">
        <ele>6</ele>
        <time>2019-12-03T06:48:55Z</time>
      </trkpt>
      <trkpt lat="59.327881" lon="18.073359">
        <ele>6</ele>
        <time>2019-12-03T06:48:56Z</time>
      </trkpt>
      <trkpt lat="59.327904" lon="18.073333">
        <ele>6</ele>
        <time>2019-12-03T06:48:58Z</time>
      </trkpt>
      <trkpt lat="59.327928" lon="18.073307">
        <ele>0</ele>
        <time>2019-12-03T06:48:58Z</time>
      </trkpt>
      <trkpt lat="59.327953" lon="18.073283">
        <ele>6</ele>
        <time>2019-12-03T06:48:59Z</time>
      </trkpt>
      <trkpt lat="59.327978" lon="18.073261">
        <ele>6</ele>
        <time>2019-12-03T06:49:01Z</time>
      </trkpt>
      <trkpt lat="59.328004" lon="18.07324">
        <ele>6</ele>
        <time>2019-12-03T06:49:02Z</time>
      </trkpt>
      <trkpt lat="59.32803" lon="18.073219">
        <ele>6</ele>
        <time>2019-12-03T06:49:03Z</time>
      </trkpt>
      <trkpt lat="59.328055" lon="18.073203">
        <ele>0</ele>
        <time>2019-12-03T06:49:03Z</time>
      </trkpt>
      <trkpt lat="59.328082" lon="18.07319">
        <ele>6</ele>
        <time>2019-12-03T06:49:04Z</time>
      </trkpt>
      <trkpt lat="59.328108" lon="18.073176">
        <ele>6</ele>
        <time>2019-12-03T06:49:06Z</time>
      </trkpt>
      <trkpt lat="59.328135" lon="18.073163">
        <ele>0</ele>
        <time>2019-12-03T06:49:06Z</time>
      </trkpt>
      <trkpt lat="59.328161" lon="18.073151">
        <ele>6</ele>
        <time>2019-12-03T06:49:07Z</time>
      </trkpt>
      <trkpt lat="59.328189" lon="18.073142">
        <ele>0</ele>
        <time>2019-12-03T06:49:08Z</time>
      </trkpt>
      <trkpt lat="59.328216" lon="18.073138">
        <ele>6</ele>
        <time>2019-12-03T06:49:09Z</time>
      </trkpt>
      <trkpt lat="59.328243" lon="18.073138">
        <ele>0</ele>
        <time>2019-12-03T06:49:10Z</time>
      </trkpt>
      <trkpt lat="59.32827" lon="18.073141">
        <ele>6</ele>
        <time>2019-12-03T06:49:11Z</time>
      </trkpt>
      <trkpt lat="59.328296" lon="18.073146">
        <ele>6</ele>
        <time>2019-12-03T06:49:13Z</time>
      </trkpt>
      <trkpt lat="59.328321" lon="18.073152">
        <ele>0</ele>
        <time>2019-12-03T06:49:13Z</time>
      </trkpt>
      <trkpt lat="59.328347" lon="18.073158">
        <ele>6</ele>
        <time>2019-12-03T06:49:14Z</time>
      </trkpt>
      <trkpt lat="59.328374" lon="18.073167">
        <ele>6</ele>
        <time>2019-12-03T06:49:15Z</time>
      </trkpt>
      <trkpt lat="59.328401" lon="18.073176">
        <ele>6</ele>
        <time>2019-12-03T06:49:17Z</time>
      </trkpt>
      <trkpt lat="59.328427" lon="18.073181">
        <ele>0</ele>
        <time>2019-12-03T06:49:17Z</time>
      </trkpt>
      <trkpt lat="59.328453" lon="18.073187">
        <ele>6</ele>
        <time>2019-12-03T06:49:18Z</time>
      </trkpt>
      <trkpt lat="59.328482" lon="18.073191">
        <ele>6</ele>
        <time>2019-12-03T06:49:20Z</time>
      </trkpt>
      <trkpt lat="59.32851" lon="18.073201">
        <ele>6</ele>
        <time>2019-12-03T06:49:21Z</time>
      </trkpt>
      <trkpt lat="59.328537" lon="18.073207">
        <ele>6</ele>
        <time>2019-12-03T06:49:22Z</time>
      </trkpt>
      <trkpt lat="59.328566" lon="18.073211">
        <ele>0</ele>
        <time>2019-12-03T06:49:22Z</time>
      </trkpt>
      <trkpt lat="59.328596" lon="18.073217">
        <ele>6</ele>
        <time>2019-12-03T06:49:23Z</time>
      </trkpt>
      <trkpt lat="59.328625" lon="18.073225">
        <ele>6</ele>
        <time>2019-12-03T06:49:25Z</time>
      </trkpt>
      <trkpt lat="59.328654" lon="18.073236">
        <ele>0</ele>
        <time>2019-12-03T06:49:25Z</time>
      </trkpt>
      <trkpt lat="59.328682" lon="18.073248">
        <ele>6</ele>
        <time>2019-12-03T06:49:26Z</time>
      </trkpt>
      <trkpt lat="59.328709" lon="18.073254">
        <ele>0</ele>
        <time>2019-12-03T06:49:27Z</time>
      </trkpt>
      <trkpt lat="59.328737" lon="18.07326">
        <ele>6</ele>
        <time>2019-12-03T06:49:28Z</time>
      </trkpt>
      <trkpt lat="59.328764" lon="18.073265">
        <ele>0</ele>
        <time>2019-12-03T06:49:29Z</time>
      </trkpt>
      <trkpt lat="59.328791" lon="18.073272">
        <ele>6</ele>
        <time>2019-12-03T06:49:30Z</time>
      </trkpt>
      <trkpt lat="59.328818" lon="18.073279">
        <ele>6</ele>
        <time>2019-12-03T06:49:32Z</time>
      </trkpt>
      <trkpt lat="59.328846" lon="18.073286">
        <ele>0</ele>
        <time>2019-12-03T06:49:32Z</time>
      </trkpt>
      <trkpt lat="59.328874" lon="18.073294">
        <ele>6</ele>
        <time>2019-12-03T06:49:33Z</time>
      </trkpt>
      <trkpt lat="59.328902" lon="18.0733">
        <ele>6</ele>
        <time>2019-12-03T06:49:35Z</time>
      </trkpt>
      <trkpt lat="59.32893" lon="18.073309">
        <ele>0</ele>
        <time>2019-12-03T06:49:35Z</time>
      </trkpt>
      <trkpt lat="59.328958" lon="18.073313">
        <ele>6</ele>
        <time>2019-12-03T06:49:36Z</time>
      </trkpt>
      <trkpt lat="59.328986" lon="18.073319">
        <ele>5</ele>
        <time>2019-12-03T06:49:38Z</time>
      </trkpt>
      <trkpt lat="59.329013" lon="18.073323">
        <ele>0</ele>
        <time>2019-12-03T06:49:38Z</time>
      </trkpt>
      <trkpt lat="59.329039" lon="18.073329">
        <ele>5</ele>
        <time>2019-12-03T06:49:39Z</time>
      </trkpt>
      <trkpt lat="59.329066" lon="18.073335">
        <ele>5</ele>
        <time>2019-12-03T06:49:41Z</time>
      </trkpt>
      <trkpt lat="59.329093" lon="18.073341">
        <ele>0</ele>
        <time>2019-12-03T06:49:41Z</time>
      </trkpt>
      <trkpt lat="59.32912" lon="18.073347">
        <ele>5</ele>
        <time>2019-12-03T06:49:42Z</time>
      </trkpt>
      <trkpt lat="59.329147" lon="18.073354">
        <ele>5</ele>
        <time>2019-12-03T06:49:44Z</time>
      </trkpt>
      <trkpt lat="59.329174" lon="18.073358">
        <ele>5</ele>
        <time>2019-12-03T06:49:45Z</time>
      </trkpt>
      <trkpt lat="59.329202" lon="18.073364">
        <ele>5</ele>
        <time>2019-12-03T06:49:46Z</time>
      </trkpt>
      <trkpt lat="59.329229" lon="18.073369">
        <ele>0</ele>
        <time>2019-12-03T06:49:46Z</time>
      </trkpt>
      <trkpt lat="59.329256" lon="18.073373">
        <ele>5</ele>
        <time>2019-12-03T06:49:47Z</time>
      </trkpt>
      <trkpt lat="59.329284" lon="18.073379">
        <ele>0</ele>
        <time>2019-12-03T06:49:48Z</time>
      </trkpt>
      <trkpt lat="59.32931" lon="18.073385">
        <ele>5</ele>
        <time>2019-12-03T06:49:49Z</time>
      </trkpt>
      <trkpt lat="59.329337" lon="18.073391">
        <ele>0</ele>
        <time>2019-12-03T06:49:50Z</time>
      </trkpt>
      <trkpt lat="59.329364" lon="18.073397">
        <ele>5</ele>
        <time>2019-12-03T06:49:51Z</time>
      </trkpt>
      <trkpt lat="59.32939" lon="18.073404">
        <ele>5</ele>
        <time>2019-12-03T06:49:53Z</time>
      </trkpt>
      <trkpt lat="59.329415" lon="18.073409">
        <ele>0</ele>
        <time>2019-12-03T06:49:53Z</time>
      </trkpt>
      <trkpt lat="59.329439" lon="18.073417">
        <ele>5</ele>
        <time>2019-12-03T06:49:54Z</time>
      </trkpt>
      <trkpt lat="59.329463" lon="18.073432">
        <ele>5</ele>
        <time>2019-12-03T06:49:56Z</time>
      </trkpt>
      <trkpt lat="59.329486" lon="18.073455">
        <ele>6</ele>
        <time>2019-12-03T06:49:57Z</time>
      </trkpt>
      <trkpt lat="59.329505" lon="18.073486">
        <ele>6</ele>
        <time>2019-12-03T06:49:58Z</time>
      </trkpt>
      <trkpt lat="59.329523" lon="18.073525">
        <ele>0</ele>
        <time>2019-12-03T06:49:58Z</time>
      </trkpt>
      <trkpt lat="59.329537" lon="18.073574">
        <ele>6</ele>
        <time>2019-12-03T06:49:59Z</time>
      </trkpt>
      <trkpt lat="59.329551" lon="18.073626">
        <ele>6</ele>
        <time>2019-12-03T06:50:01Z</time>
      </trkpt>
      <trkpt lat="59.329565" lon="18.073677">
        <ele>6</ele>
        <time>2019-12-03T06:50:02Z</time>
      </trkpt>
      <trkpt lat="59.329577" lon="18.073727">
        <ele>6</ele>
        <time>2019-12-03T06:50:03Z</time>
      </trkpt>
      <trkpt lat="59.329588" lon="18.073777">
        <ele>6</ele>
        <time>2019-12-03T06:50:04Z</time>
      </trkpt>
      <trkpt lat="59.329593" lon="18.073827">
        <ele>0</ele>
        <time>2019-12-03T06:50:04Z</time>
      </trkpt>
      <trkpt lat="59.329595" lon="18.073879">
        <ele>6</ele>
        <time>2019-12-03T06:50:05Z</time>
      </trkpt>
      <trkpt lat="59.329596" lon="18.073931">
        <ele>6</ele>
        <time>2019-12-03T06:50:06Z</time>
      </trkpt>
      <trkpt lat="59.329597" lon="18.073982">
        <ele>0</ele>
        <time>2019-12-03T06:50:07Z</time>
      </trkpt>
      <trkpt lat="59.329602" lon="18.074035">
        <ele>7</ele>
        <time>2019-12-03T06:50:08Z</time>
      </trkpt>
      <trkpt lat="59.329607" lon="18.074092">
        <ele>7</ele>
        <time>2019-12-03T06:50:09Z</time>
      </trkpt>
      <trkpt lat="59.329615" lon="18.074152">
        <ele>7</ele>
        <time>2019-12-03T06:50:11Z</time>
      </trkpt>
      <trkpt lat="59.329621" lon="18.074206">
        <ele>0</ele>
        <time>2019-12-03T06:50:11Z</time>
      </trkpt>
      <trkpt lat="59.329627" lon="18.07426">
        <ele>7</ele>
        <time>2019-12-03T06:50:12Z</time>
      </trkpt>
      <trkpt lat="59.329633" lon="18.074315">
        <ele>7</ele>
        <time>2019-12-03T06:50:14Z</time>
      </trkpt>
      <trkpt lat="59.329636" lon="18.074365">
        <ele>7</ele>
        <time>2019-12-03T06:50:15Z</time>
      </trkpt>
      <trkpt lat="59.329642" lon="18.074403">
        <ele>8</ele>
        <time>2019-12-03T06:50:16Z</time>
      </trkpt>
      <trkpt lat="59.329654" lon="18.074441">
        <ele>0</ele>
        <time>2019-12-03T06:50:16Z</time>
      </trkpt>
      <trkpt lat="59.329665" lon="18.074486">
        <ele>8</ele>
        <time>2019-12-03T06:50:17Z</time>
      </trkpt>
      <trkpt lat="59.329673" lon="18.07453">
        <ele>9</ele>
        <time>2019-12-03T06:50:19Z</time>
      </trkpt>
      <trkpt lat="59.32968" lon="18.074567">
        <ele>0</ele>
        <time>2019-12-03T06:50:19Z</time>
      </trkpt>
      <trkpt lat="59.329688" lon="18.074606">
        <ele>9</ele>
        <time>2019-12-03T06:50:20Z</time>
      </trkpt>
      <trkpt lat="59.329694" lon="18.074648">
        <ele>9</ele>
        <time>2019-12-03T06:50:22Z</time>
      </trkpt>
      <trkpt lat="59.329707" lon="18.074687">
        <ele>0</ele>
        <time>2019-12-03T06:50:22Z</time>
      </trkpt>
      <trkpt lat="59.329727" lon="18.074714">
        <ele>9</ele>
        <time>2019-12-03T06:50:23Z</time>
      </trkpt>
      <trkpt lat="59.329752" lon="18.074744">
        <ele>0</ele>
        <time>2019-12-03T06:50:24Z</time>
      </trkpt>
      <trkpt lat="59.329771" lon="18.07477">
        <ele>9</ele>
        <time>2019-12-03T06:50:25Z</time>
      </trkpt>
      <trkpt lat="59.329785" lon="18.074796">
        <ele>0</ele>
        <time>2019-12-03T06:50:26Z</time>
      </trkpt>
      <trkpt lat="59.329803" lon="18.074824">
        <ele>9</ele>
        <time>2019-12-03T06:50:27Z</time>
      </trkpt>
      <trkpt lat="59.329826" lon="18.074849">
        <ele>0</ele>
        <time>2019-12-03T06:50:28Z</time>
      </trkpt>
      <trkpt lat="59.32985" lon="18.074872">
        <ele>9</ele>
        <time>2019-12-03T06:50:29Z</time>
      </trkpt>
      <trkpt lat="59.329873" lon="18.074893">
        <ele>8</ele>
        <time>2019-12-03T06:50:31Z</time>
      </trkpt>
      <trkpt lat="59.329895" lon="18.074921">
        <ele>0</ele>
        <time>2019-12-03T06:50:31Z</time>
      </trkpt>
      <trkpt lat="59.329916" lon="18.074951">
        <ele>8</ele>
        <time>2019-12-03T06:50:32Z</time>
      </trkpt>
      <trkpt lat="59.329935" lon="18.074988">
        <ele>8</ele>
        <time>2019-12-03T06:50:34Z</time>
      </trkpt>
      <trkpt lat="59.329954" lon="18.075022">
        <ele>8</ele>
        <time>2019-12-03T06:50:35Z</time>
      </trkpt>
      <trkpt lat="59.329975" lon="18.075062">
        <ele>8</ele>
        <time>2019-12-03T06:50:36Z</time>
      </trkpt>
      <trkpt lat="59.329995" lon="18.0751">
        <ele>8</ele>
        <time>2019-12-03T06:50:37Z</time>
      </trkpt>
      <trkpt lat="59.330022" lon="18.075135">
        <ele>8</ele>
        <time>2019-12-03T06:50:38Z</time>
      </trkpt>
      <trkpt lat="59.33005" lon="18.07517">
        <ele>7</ele>
        <time>2019-12-03T06:50:39Z</time>
      </trkpt>
      <trkpt lat="59.330071" lon="18.075199">
        <ele>0</ele>
        <time>2019-12-03T06:50:39Z</time>
      </trkpt>
      <trkpt lat="59.330093" lon="18.075229">
        <ele>7</ele>
        <time>2019-12-03T06:50:40Z</time>
      </trkpt>
      <trkpt lat="59.330118" lon="18.075254">
        <ele>7</ele>
        <time>2019-12-03T06:50:42Z</time>
      </trkpt>
      <trkpt lat="59.33014" lon="18.075286">
        <ele>0</ele>
        <time>2019-12-03T06:50:42Z</time>
      </trkpt>
      <trkpt lat="59.330165" lon="18.07531">
        <ele>7</ele>
        <time>2019-12-03T06:50:43Z</time>
      </trkpt>
      <trkpt lat="59.330191" lon="18.075341">
        <ele>7</ele>
        <time>2019-12-03T06:50:44Z</time>
      </trkpt>
      <trkpt lat="59.330217" lon="18.075368">
        <ele>0</ele>
        <time>2019-12-03T06:50:45Z</time>
      </trkpt>
      <trkpt lat="59.330244" lon="18.075394">
        <ele>7</ele>
        <time>2019-12-03T06:50:46Z</time>
      </trkpt>
      <trkpt lat="59.330271" lon="18.07542">
        <ele>7</ele>
        <time>2019-12-03T06:50:47Z</time>
      </trkpt>
      <trkpt lat="59.330295" lon="18.075449">
        <ele>7</ele>
        <time>2019-12-03T06:50:49Z</time>
      </trkpt>
      <trkpt lat="59.330319" lon="18.075471">
        <ele>7</ele>
        <time>2019-12-03T06:50:50Z</time>
      </trkpt>
      <trkpt lat="59.330343" lon="18.0755">
        <ele>7</ele>
        <time>2019-12-03T06:50:51Z</time>
      </trkpt>
      <trkpt lat="59.330366" lon="18.075529">
        <ele>7</ele>
        <time>2019-12-03T06:50:52Z</time>
      </trkpt>
      <trkpt lat="59.330388" lon="18.075565">
        <ele>7</ele>
        <time>2019-12-03T06:50:53Z</time>
      </trkpt>
      <trkpt lat="59.330411" lon="18.075601">
        <ele>7</ele>
        <time>2019-12-03T06:50:54Z</time>
      </trkpt>
      <trkpt lat="59.330434" lon="18.075633">
        <ele>0</ele>
        <time>2019-12-03T06:50:54Z</time>
      </trkpt>
      <trkpt lat="59.330462" lon="18.075667">
        <ele>7</ele>
        <time>2019-12-03T06:50:55Z</time>
      </trkpt>
      <trkpt lat="59.330487" lon="18.075697">
        <ele>7</ele>
        <time>2019-12-03T06:50:57Z</time>
      </trkpt>
      <trkpt lat="59.330516" lon="18.07573">
        <ele>0</ele>
        <time>2019-12-03T06:50:57Z</time>
      </trkpt>
      <trkpt lat="59.330542" lon="18.075764">
        <ele>7</ele>
        <time>2019-12-03T06:50:58Z</time>
      </trkpt>
      <trkpt lat="59.330564" lon="18.075802">
        <ele>7</ele>
        <time>2019-12-03T06:51:00Z</time>
      </trkpt>
      <trkpt lat="59.33059" lon="18.075835">
        <ele>7</ele>
        <time>2019-12-03T06:51:01Z</time>
      </trkpt>
      <trkpt lat="59.330618" lon="18.075862">
        <ele>7</ele>
        <time>2019-12-03T06:51:02Z</time>
      </trkpt>
      <trkpt lat="59.330643" lon="18.075897">
        <ele>0</ele>
        <time>2019-12-03T06:51:02Z</time>
      </trkpt>
      <trkpt lat="59.330664" lon="18.075926">
        <ele>7</ele>
        <time>2019-12-03T06:51:03Z</time>
      </trkpt>
      <trkpt lat="59.330687" lon="18.075959">
        <ele>7</ele>
        <time>2019-12-03T06:51:04Z</time>
      </trkpt>
      <trkpt lat="59.330712" lon="18.076002">
        <ele>6</ele>
        <time>2019-12-03T06:51:06Z</time>
      </trkpt>
      <trkpt lat="59.330736" lon="18.076041">
        <ele>6</ele>
        <time>2019-12-03T06:51:07Z</time>
      </trkpt>
      <trkpt lat="59.330762" lon="18.076075">
        <ele>7</ele>
        <time>2019-12-03T06:51:08Z</time>
      </trkpt>
      <trkpt lat="59.330789" lon="18.07611">
        <ele>6</ele>
        <time>2019-12-03T06:51:09Z</time>
      </trkpt>
      <trkpt lat="59.330814" lon="18.076147">
        <ele>6</ele>
        <time>2019-12-03T06:51:10Z</time>
      </trkpt>
      <trkpt lat="59.330837" lon="18.076187">
        <ele>6</ele>
        <time>2019-12-03T06:51:11Z</time>
      </trkpt>
      <trkpt lat="59.330863" lon="18.076221">
        <ele>0</ele>
        <time>2019-12-03T06:51:11Z</time>
      </trkpt>
      <trkpt lat="59.33089" lon="18.076248">
        <ele>6</ele>
        <time>2019-12-03T06:51:12Z</time>
      </trkpt>
      <trkpt lat="59.330918" lon="18.076279">
        <ele>6</ele>
        <time>2019-12-03T06:51:14Z</time>
      </trkpt>
      <trkpt lat="59.330945" lon="18.076311">
        <ele>0</ele>
        <time>2019-12-03T06:51:14Z</time>
      </trkpt>
      <trkpt lat="59.330974" lon="18.076338">
        <ele>6</ele>
        <time>2019-12-03T06:51:15Z</time>
      </trkpt>
      <trkpt lat="59.331002" lon="18.076366">
        <ele>5</ele>
        <time>2019-12-03T06:51:17Z</time>
      </trkpt>
      <trkpt lat="59.331027" lon="18.076392">
        <ele>0</ele>
        <time>2019-12-03T06:51:17Z</time>
      </trkpt>
      <trkpt lat="59.331052" lon="18.076416">
        <ele>5</ele>
        <time>2019-12-03T06:51:18Z</time>
      </trkpt>
      <trkpt lat="59.331078" lon="18.076442">
        <ele>0</ele>
        <time>2019-12-03T06:51:19Z</time>
      </trkpt>
      <trkpt lat="59.331109" lon="18.076463">
        <ele>5</ele>
        <time>2019-12-03T06:51:20Z</time>
      </trkpt>
      <trkpt lat="59.331137" lon="18.076492">
        <ele>0</ele>
        <time>2019-12-03T06:51:21Z</time>
      </trkpt>
      <trkpt lat="59.331163" lon="18.076535">
        <ele>6</ele>
        <time>2019-12-03T06:51:22Z</time>
      </trkpt>
      <trkpt lat="59.331178" lon="18.076595">
        <ele>7</ele>
        <time>2019-12-03T06:51:24Z</time>
      </trkpt>
      <trkpt lat="59.331201" lon="18.076626">
        <ele>0</ele>
        <time>2019-12-03T06:51:24Z</time>
      </trkpt>
      <trkpt lat="59.331223" lon="18.076667">
        <ele>7</ele>
        <time>2019-12-03T06:51:25Z</time>
      </trkpt>
      <trkpt lat="59.331244" lon="18.076698">
        <ele>8</ele>
        <time>2019-12-03T06:51:27Z</time>
      </trkpt>
      <trkpt lat="59.331267" lon="18.076725">
        <ele>8</ele>
        <time>2019-12-03T06:51:28Z</time>
      </trkpt>
      <trkpt lat="59.331284" lon="18.076746">
        <ele>8</ele>
        <time>2019-12-03T06:51:29Z</time>
      </trkpt>
      <trkpt lat="59.331321" lon="18.076722">
        <ele>8</ele>
        <time>2019-12-03T06:51:31Z</time>
      </trkpt>
      <trkpt lat="59.331338" lon="18.076691">
        <ele>7</ele>
        <time>2019-12-03T06:51:32Z</time>
      </trkpt>
      <trkpt lat="59.331351" lon="18.076658">
        <ele>0</ele>
        <time>2019-12-03T06:51:32Z</time>
      </trkpt>
      <trkpt lat="59.331363" lon="18.076626">
        <ele>7</ele>
        <time>2019-12-03T06:51:33Z</time>
      </trkpt>
      <trkpt lat="59.331378" lon="18.076598">
        <ele>7</ele>
        <time>2019-12-03T06:51:35Z</time>
      </trkpt>
      <trkpt lat="59.331395" lon="18.076566">
        <ele>7</ele>
        <time>2019-12-03T06:51:36Z</time>
      </trkpt>
      <trkpt lat="59.331412" lon="18.076533">
        <ele>7</ele>
        <time>2019-12-03T06:51:37Z</time>
      </trkpt>
      <trkpt lat="59.33143" lon="18.076505">
        <ele>7</ele>
        <time>2019-12-03T06:51:38Z</time>
      </trkpt>
      <trkpt lat="59.331447" lon="18.076475">
        <ele>0</ele>
        <time>2019-12-03T06:51:38Z</time>
      </trkpt>
      <trkpt lat="59.331466" lon="18.076445">
        <ele>7</ele>
        <time>2019-12-03T06:51:39Z</time>
      </trkpt>
      <trkpt lat="59.331486" lon="18.076419">
        <ele>0</ele>
        <time>2019-12-03T06:51:40Z</time>
      </trkpt>
      <trkpt lat="59.331506" lon="18.076393">
        <ele>6</ele>
        <time>2019-12-03T06:51:42Z</time>
      </trkpt>
      <trkpt lat="59.331527" lon="18.076366">
        <ele>0</ele>
        <time>2019-12-03T06:51:42Z</time>
      </trkpt>
      <trkpt lat="59.331551" lon="18.076345">
        <ele>6</ele>
        <time>2019-12-03T06:51:43Z</time>
      </trkpt>
      <trkpt lat="59.331575" lon="18.076322">
        <ele>6</ele>
        <time>2019-12-03T06:51:45Z</time>
      </trkpt>
      <trkpt lat="59.331599" lon="18.076307">
        <ele>0</ele>
        <time>2019-12-03T06:51:45Z</time>
      </trkpt>
      <trkpt lat="59.331625" lon="18.076292">
        <ele>6</ele>
        <time>2019-12-03T06:51:46Z</time>
      </trkpt>
      <trkpt lat="59.331649" lon="18.076271">
        <ele>6</ele>
        <time>2019-12-03T06:51:48Z</time>
      </trkpt>
      <trkpt lat="59.331672" lon="18.076256">
        <ele>0</ele>
        <time>2019-12-03T06:51:48Z</time>
      </trkpt>
      <trkpt lat="59.331698" lon="18.076243">
        <ele>6</ele>
        <time>2019-12-03T06:51:49Z</time>
      </trkpt>
      <trkpt lat="59.331725" lon="18.076234">
        <ele>6</ele>
        <time>2019-12-03T06:51:51Z</time>
      </trkpt>
      <trkpt lat="59.33175" lon="18.076226">
        <ele>0</ele>
        <time>2019-12-03T06:51:51Z</time>
      </trkpt>
      <trkpt lat="59.331778" lon="18.076221">
        <ele>6</ele>
        <time>2019-12-03T06:51:52Z</time>
      </trkpt>
      <trkpt lat="59.331805" lon="18.07621">
        <ele>6</ele>
        <time>2019-12-03T06:51:54Z</time>
      </trkpt>
      <trkpt lat="59.331832" lon="18.076201">
        <ele>6</ele>
        <time>2019-12-03T06:51:55Z</time>
      </trkpt>
      <trkpt lat="59.331859" lon="18.076196">
        <ele>6</ele>
        <time>2019-12-03T06:51:56Z</time>
      </trkpt>
      <trkpt lat="59.331885" lon="18.076202">
        <ele>6</ele>
        <time>2019-12-03T06:51:57Z</time>
      </trkpt>
      <trkpt lat="59.331912" lon="18.076212">
        <ele>6</ele>
        <time>2019-12-03T06:51:58Z</time>
      </trkpt>
      <trkpt lat="59.331938" lon="18.076227">
        <ele>0</ele>
        <time>2019-12-03T06:51:58Z</time>
      </trkpt>
      <trkpt lat="59.331965" lon="18.076244">
        <ele>6</ele>
        <time>2019-12-03T06:51:59Z</time>
      </trkpt>
      <trkpt lat="59.331991" lon="18.07626">
        <ele>6</ele>
        <time>2019-12-03T06:52:00Z</time>
      </trkpt>
      <trkpt lat="59.332016" lon="18.076281">
        <ele>5</ele>
        <time>2019-12-03T06:52:01Z</time>
      </trkpt>
      <trkpt lat="59.332041" lon="18.076304">
        <ele>6</ele>
        <time>2019-12-03T06:52:02Z</time>
      </trkpt>
      <trkpt lat="59.332068" lon="18.076332">
        <ele>6</ele>
        <time>2019-12-03T06:52:04Z</time>
      </trkpt>
      <trkpt lat="59.332092" lon="18.076365">
        <ele>0</ele>
        <time>2019-12-03T06:52:04Z</time>
      </trkpt>
      <trkpt lat="59.332114" lon="18.076404">
        <ele>6</ele>
        <time>2019-12-03T06:52:05Z</time>
      </trkpt>
      <trkpt lat="59.332136" lon="18.07644">
        <ele>6</ele>
        <time>2019-12-03T06:52:07Z</time>
      </trkpt>
      <trkpt lat="59.332157" lon="18.076479">
        <ele>0</ele>
        <time>2019-12-03T06:52:07Z</time>
      </trkpt>
      <trkpt lat="59.332179" lon="18.076518">
        <ele>6</ele>
        <time>2019-12-03T06:52:08Z</time>
      </trkpt>
      <trkpt lat="59.332198" lon="18.076558">
        <ele>6</ele>
        <time>2019-12-03T06:52:10Z</time>
      </trkpt>
      <trkpt lat="59.332218" lon="18.076599">
        <ele>6</ele>
        <time>2019-12-03T06:52:11Z</time>
      </trkpt>
      <trkpt lat="59.332238" lon="18.076641">
        <ele>6</ele>
        <time>2019-12-03T06:52:12Z</time>
      </trkpt>
      <trkpt lat="59.332254" lon="18.076684">
        <ele>6</ele>
        <time>2019-12-03T06:52:13Z</time>
      </trkpt>
      <trkpt lat="59.332271" lon="18.076728">
        <ele>6</ele>
        <time>2019-12-03T06:52:14Z</time>
      </trkpt>
      <trkpt lat="59.332287" lon="18.076774">
        <ele>6</ele>
        <time>2019-12-03T06:52:15Z</time>
      </trkpt>
      <trkpt lat="59.332303" lon="18.076823">
        <ele>0</ele>
        <time>2019-12-03T06:52:15Z</time>
      </trkpt>
      <trkpt lat="59.332316" lon="18.076873">
        <ele>6</ele>
        <time>2019-12-03T06:52:16Z</time>
      </trkpt>
      <trkpt lat="59.33233" lon="18.076922">
        <ele>6</ele>
        <time>2019-12-03T06:52:17Z</time>
      </trkpt>
      <trkpt lat="59.332341" lon="18.076968">
        <ele>0</ele>
        <time>2019-12-03T06:52:18Z</time>
      </trkpt>
      <trkpt lat="59.332351" lon="18.077015">
        <ele>6</ele>
        <time>2019-12-03T06:52:19Z</time>
      </trkpt>
      <trkpt lat="59.332362" lon="18.077063">
        <ele>0</ele>
        <time>2019-12-03T06:52:20Z</time>
      </trkpt>
      <trkpt lat="59.332372" lon="18.077115">
        <ele>6</ele>
        <time>2019-12-03T06:52:21Z</time>
      </trkpt>
      <trkpt lat="59.332379" lon="18.077161">
        <ele>6</ele>
        <time>2019-12-03T06:52:23Z</time>
      </trkpt>
      <trkpt lat="59.332386" lon="18.077197">
        <ele>0</ele>
        <time>2019-12-03T06:52:23Z</time>
      </trkpt>
      <trkpt lat="59.33242" lon="18.077233">
        <ele>6</ele>
        <time>2019-12-03T06:52:26Z</time>
      </trkpt>
      <trkpt lat="59.332444" lon="18.077244">
        <ele>6</ele>
        <time>2019-12-03T06:52:27Z</time>
      </trkpt>
      <trkpt lat="59.332468" lon="18.077251">
        <ele>7</ele>
        <time>2019-12-03T06:52:28Z</time>
      </trkpt>
      <trkpt lat="59.33249" lon="18.077267">
        <ele>7</ele>
        <time>2019-12-03T06:52:29Z</time>
      </trkpt>
      <trkpt lat="59.33251" lon="18.077285">
        <ele>7</ele>
        <time>2019-12-03T06:52:30Z</time>
      </trkpt>
      <trkpt lat="59.332539" lon="18.077299">
        <ele>7</ele>
        <time>2019-12-03T06:52:31Z</time>
      </trkpt>
      <trkpt lat="59.332565" lon="18.077318">
        <ele>0</ele>
        <time>2019-12-03T06:52:31Z</time>
      </trkpt>
      <trkpt lat="59.332591" lon="18.077335">
        <ele>8</ele>
        <time>2019-12-03T06:52:32Z</time>
      </trkpt>
      <trkpt lat="59.332617" lon="18.077349">
        <ele>8</ele>
        <time>2019-12-03T06:52:34Z</time>
      </trkpt>
      <trkpt lat="59.332644" lon="18.077367">
        <ele>0</ele>
        <time>2019-12-03T06:52:34Z</time>
      </trkpt>
      <trkpt lat="59.332671" lon="18.077379">
        <ele>8</ele>
        <time>2019-12-03T06:52:35Z</time>
      </trkpt>
      <trkpt lat="59.332698" lon="18.077393">
        <ele>8</ele>
        <time>2019-12-03T06:52:36Z</time>
      </trkpt>
      <trkpt lat="59.332723" lon="18.077398">
        <ele>0</ele>
        <time>2019-12-03T06:52:37Z</time>
      </trkpt>
      <trkpt lat="59.332747" lon="18.077388">
        <ele>8</ele>
        <time>2019-12-03T06:52:38Z</time>
      </trkpt>
      <trkpt lat="59.332776" lon="18.077393">
        <ele>0</ele>
        <time>2019-12-03T06:52:39Z</time>
      </trkpt>
      <trkpt lat="59.332803" lon="18.077404">
        <ele>8</ele>
        <time>2019-12-03T06:52:40Z</time>
      </trkpt>
      <trkpt lat="59.332831" lon="18.07741">
        <ele>8</ele>
        <time>2019-12-03T06:52:42Z</time>
      </trkpt>
      <trkpt lat="59.332857" lon="18.07742">
        <ele>0</ele>
        <time>2019-12-03T06:52:42Z</time>
      </trkpt>
      <trkpt lat="59.33288" lon="18.077417">
        <ele>8</ele>
        <time>2019-12-03T06:52:43Z</time>
      </trkpt>
      <trkpt lat="59.3329" lon="18.077429">
        <ele>8</ele>
        <time>2019-12-03T06:52:45Z</time>
      </trkpt>
      <trkpt lat="59.332922" lon="18.077456">
        <ele>0</ele>
        <time>2019-12-03T06:52:45Z</time>
      </trkpt>
      <trkpt lat="59.332949" lon="18.077471">
        <ele>8</ele>
        <time>2019-12-03T06:52:46Z</time>
      </trkpt>
      <trkpt lat="59.332982" lon="18.07748">
        <ele>8</ele>
        <time>2019-12-03T06:52:48Z</time>
      </trkpt>
      <trkpt lat="59.333013" lon="18.077492">
        <ele>8</ele>
        <time>2019-12-03T06:52:49Z</time>
      </trkpt>
      <trkpt lat="59.33304" lon="18.077498">
        <ele>9</ele>
        <time>2019-12-03T06:52:50Z</time>
      </trkpt>
      <trkpt lat="59.33307" lon="18.077506">
        <ele>0</ele>
        <time>2019-12-03T06:52:50Z</time>
      </trkpt>
      <trkpt lat="59.333098" lon="18.077513">
        <ele>9</ele>
        <time>2019-12-03T06:52:51Z</time>
      </trkpt>
      <trkpt lat="59.333125" lon="18.07752">
        <ele>9</ele>
        <time>2019-12-03T06:52:53Z</time>
      </trkpt>
      <trkpt lat="59.333148" lon="18.077534">
        <ele>0</ele>
        <time>2019-12-03T06:52:53Z</time>
      </trkpt>
      <trkpt lat="59.333167" lon="18.077547">
        <ele>9</ele>
        <time>2019-12-03T06:52:54Z</time>
      </trkpt>
      <trkpt lat="59.333195" lon="18.077585">
        <ele>9</ele>
        <time>2019-12-03T06:52:56Z</time>
      </trkpt>
      <trkpt lat="59.333212" lon="18.077605">
        <ele>9</ele>
        <time>2019-12-03T06:52:57Z</time>
      </trkpt>
      <trkpt lat="59.333233" lon="18.07762">
        <ele>0</ele>
        <time>2019-12-03T06:52:58Z</time>
      </trkpt>
      <trkpt lat="59.333259" lon="18.077632">
        <ele>9</ele>
        <time>2019-12-03T06:52:59Z</time>
      </trkpt>
      <trkpt lat="59.333288" lon="18.077646">
        <ele>9</ele>
        <time>2019-12-03T06:53:01Z</time>
      </trkpt>
      <trkpt lat="59.333313" lon="18.077664">
        <ele>8</ele>
        <time>2019-12-03T06:53:01Z</time>
      </trkpt>
      <trkpt lat="59.333338" lon="18.077689">
        <ele>8</ele>
        <time>2019-12-03T06:53:02Z</time>
      </trkpt>
      <trkpt lat="59.333361" lon="18.077711">
        <ele>8</ele>
        <time>2019-12-03T06:53:04Z</time>
      </trkpt>
      <trkpt lat="59.333392" lon="18.07772">
        <ele>8</ele>
        <time>2019-12-03T06:53:05Z</time>
      </trkpt>
      <trkpt lat="59.333421" lon="18.07772">
        <ele>8</ele>
        <time>2019-12-03T06:53:06Z</time>
      </trkpt>
      <trkpt lat="59.33345" lon="18.077745">
        <ele>8</ele>
        <time>2019-12-03T06:53:07Z</time>
      </trkpt>
      <trkpt lat="59.333478" lon="18.077773">
        <ele>8</ele>
        <time>2019-12-03T06:53:08Z</time>
      </trkpt>
      <trkpt lat="59.333503" lon="18.077797">
        <ele>8</ele>
        <time>2019-12-03T06:53:09Z</time>
      </trkpt>
      <trkpt lat="59.333527" lon="18.077817">
        <ele>0</ele>
        <time>2019-12-03T06:53:09Z</time>
      </trkpt>
      <trkpt lat="59.33355" lon="18.077836">
        <ele>8</ele>
        <time>2019-12-03T06:53:10Z</time>
      </trkpt>
      <trkpt lat="59.333576" lon="18.077849">
        <ele>8</ele>
        <time>2019-12-03T06:53:12Z</time>
      </trkpt>
      <trkpt lat="59.333602" lon="18.077865">
        <ele>0</ele>
        <time>2019-12-03T06:53:12Z</time>
      </trkpt>
      <trkpt lat="59.33363" lon="18.077881">
        <ele>7</ele>
        <time>2019-12-03T06:53:13Z</time>
      </trkpt>
      <trkpt lat="59.333661" lon="18.077895">
        <ele>7</ele>
        <time>2019-12-03T06:53:14Z</time>
      </trkpt>
      <trkpt lat="59.3337" lon="18.077907">
        <ele>0</ele>
        <time>2019-12-03T06:53:15Z</time>
      </trkpt>
      <trkpt lat="59.333733" lon="18.077923">
        <ele>7</ele>
        <time>2019-12-03T06:53:16Z</time>
      </trkpt>
      <trkpt lat="59.333765" lon="18.07794">
        <ele>0</ele>
        <time>2019-12-03T06:53:17Z</time>
      </trkpt>
      <trkpt lat="59.333797" lon="18.077958">
        <ele>7</ele>
        <time>2019-12-03T06:53:18Z</time>
      </trkpt>
      <trkpt lat="59.333827" lon="18.077972">
        <ele>7</ele>
        <time>2019-12-03T06:53:20Z</time>
      </trkpt>
      <trkpt lat="59.333854" lon="18.077989">
        <ele>0</ele>
        <time>2019-12-03T06:53:20Z</time>
      </trkpt>
      <trkpt lat="59.333877" lon="18.078006">
        <ele>7</ele>
        <time>2019-12-03T06:53:21Z</time>
      </trkpt>
      <trkpt lat="59.333899" lon="18.078022">
        <ele>7</ele>
        <time>2019-12-03T06:53:23Z</time>
      </trkpt>
      <trkpt lat="59.333922" lon="18.07804">
        <ele>0</ele>
        <time>2019-12-03T06:53:23Z</time>
      </trkpt>
      <trkpt lat="59.333943" lon="18.078055">
        <ele>7</ele>
        <time>2019-12-03T06:53:24Z</time>
      </trkpt>
      <trkpt lat="59.333966" lon="18.07807">
        <ele>7</ele>
        <time>2019-12-03T06:53:26Z</time>
      </trkpt>
      <trkpt lat="59.333996" lon="18.078082">
        <ele>7</ele>
        <time>2019-12-03T06:53:27Z</time>
      </trkpt>
      <trkpt lat="59.334027" lon="18.078104">
        <ele>7</ele>
        <time>2019-12-03T06:53:28Z</time>
      </trkpt>
      <trkpt lat="59.334053" lon="18.078121">
        <ele>0</ele>
        <time>2019-12-03T06:53:28Z</time>
      </trkpt>
      <trkpt lat="59.33408" lon="18.078131">
        <ele>7</ele>
        <time>2019-12-03T06:53:29Z</time>
      </trkpt>
      <trkpt lat="59.334103" lon="18.078142">
        <ele>7</ele>
        <time>2019-12-03T06:53:31Z</time>
      </trkpt>
      <trkpt lat="59.334124" lon="18.078164">
        <ele>0</ele>
        <time>2019-12-03T06:53:31Z</time>
      </trkpt>
      <trkpt lat="59.334139" lon="18.078197">
        <ele>8</ele>
        <time>2019-12-03T06:53:32Z</time>
      </trkpt>
      <trkpt lat="59.33416" lon="18.078228">
        <ele>8</ele>
        <time>2019-12-03T06:53:34Z</time>
      </trkpt>
      <trkpt lat="59.334183" lon="18.078257">
        <ele>0</ele>
        <time>2019-12-03T06:53:34Z</time>
      </trkpt>
      <trkpt lat="59.334206" lon="18.078284">
        <ele>8</ele>
        <time>2019-12-03T06:53:35Z</time>
      </trkpt>
      <trkpt lat="59.334231" lon="18.078313">
        <ele>0</ele>
        <time>2019-12-03T06:53:36Z</time>
      </trkpt>
      <trkpt lat="59.334253" lon="18.078337">
        <ele>8</ele>
        <time>2019-12-03T06:53:37Z</time>
      </trkpt>
      <trkpt lat="59.334283" lon="18.078355">
        <ele>8</ele>
        <time>2019-12-03T06:53:39Z</time>
      </trkpt>
      <trkpt lat="59.334313" lon="18.078373">
        <ele>0</ele>
        <time>2019-12-03T06:53:39Z</time>
      </trkpt>
      <trkpt lat="59.334342" lon="18.078398">
        <ele>8</ele>
        <time>2019-12-03T06:53:40Z</time>
      </trkpt>
      <trkpt lat="59.334366" lon="18.078423">
        <ele>8</ele>
        <time>2019-12-03T06:53:42Z</time>
      </trkpt>
      <trkpt lat="59.334396" lon="18.078445">
        <ele>0</ele>
        <time>2019-12-03T06:53:42Z</time>
      </trkpt>
      <trkpt lat="59.334422" lon="18.078469">
        <ele>8</ele>
        <time>2019-12-03T06:53:43Z</time>
      </trkpt>
      <trkpt lat="59.334456" lon="18.07849">
        <ele>8</ele>
        <time>2019-12-03T06:53:45Z</time>
      </trkpt>
      <trkpt lat="59.334485" lon="18.078511">
        <ele>8</ele>
        <time>2019-12-03T06:53:46Z</time>
      </trkpt>
      <trkpt lat="59.33451" lon="18.078532">
        <ele>8</ele>
        <time>2019-12-03T06:53:47Z</time>
      </trkpt>
      <trkpt lat="59.334535" lon="18.078553">
        <ele>0</ele>
        <time>2019-12-03T06:53:47Z</time>
      </trkpt>
      <trkpt lat="59.334558" lon="18.078575">
        <ele>8</ele>
        <time>2019-12-03T06:53:48Z</time>
      </trkpt>
      <trkpt lat="59.334583" lon="18.078593">
        <ele>8</ele>
        <time>2019-12-03T06:53:49Z</time>
      </trkpt>
      <trkpt lat="59.33461" lon="18.078612">
        <ele>8</ele>
        <time>2019-12-03T06:53:51Z</time>
      </trkpt>
      <trkpt lat="59.334637" lon="18.078633">
        <ele>0</ele>
        <time>2019-12-03T06:53:51Z</time>
      </trkpt>
      <trkpt lat="59.334661" lon="18.078655">
        <ele>8</ele>
        <time>2019-12-03T06:53:52Z</time>
      </trkpt>
      <trkpt lat="59.334683" lon="18.078676">
        <ele>0</ele>
        <time>2019-12-03T06:53:53Z</time>
      </trkpt>
      <trkpt lat="59.3347" lon="18.078696">
        <ele>8</ele>
        <time>2019-12-03T06:53:54Z</time>
      </trkpt>
      <trkpt lat="59.334721" lon="18.078704">
        <ele>0</ele>
        <time>2019-12-03T06:53:55Z</time>
      </trkpt>
      <trkpt lat="59.334756" lon="18.078733">
        <ele>8</ele>
        <time>2019-12-03T06:53:58Z</time>
      </trkpt>
      <trkpt lat="59.334776" lon="18.078749">
        <ele>0</ele>
        <time>2019-12-03T06:53:58Z</time>
      </trkpt>
      <trkpt lat="59.334794" lon="18.078765">
        <ele>8</ele>
        <time>2019-12-03T06:53:59Z</time>
      </trkpt>
      <trkpt lat="59.334814" lon="18.078782">
        <ele>9</ele>
        <time>2019-12-03T06:54:01Z</time>
      </trkpt>
      <trkpt lat="59.334832" lon="18.078805">
        <ele>8</ele>
        <time>2019-12-03T06:54:01Z</time>
      </trkpt>
      <trkpt lat="59.334851" lon="18.078826">
        <ele>9</ele>
        <time>2019-12-03T06:54:02Z</time>
      </trkpt>
      <trkpt lat="59.334871" lon="18.078848">
        <ele>9</ele>
        <time>2019-12-03T06:54:04Z</time>
      </trkpt>
      <trkpt lat="59.334891" lon="18.078869">
        <ele>9</ele>
        <time>2019-12-03T06:54:05Z</time>
      </trkpt>
      <trkpt lat="59.334911" lon="18.078893">
        <ele>9</ele>
        <time>2019-12-03T06:54:06Z</time>
      </trkpt>
      <trkpt lat="59.33494" lon="18.078918">
        <ele>0</ele>
        <time>2019-12-03T06:54:06Z</time>
      </trkpt>
      <trkpt lat="59.334967" lon="18.078937">
        <ele>9</ele>
        <time>2019-12-03T06:54:07Z</time>
      </trkpt>
      <trkpt lat="59.334994" lon="18.078957">
        <ele>9</ele>
        <time>2019-12-03T06:54:09Z</time>
      </trkpt>
      <trkpt lat="59.335017" lon="18.078979">
        <ele>0</ele>
        <time>2019-12-03T06:54:09Z</time>
      </trkpt>
      <trkpt lat="59.335043" lon="18.079002">
        <ele>9</ele>
        <time>2019-12-03T06:54:10Z</time>
      </trkpt>
      <trkpt lat="59.335068" lon="18.079024">
        <ele>9</ele>
        <time>2019-12-03T06:54:12Z</time>
      </trkpt>
      <trkpt lat="59.335092" lon="18.079051">
        <ele>0</ele>
        <time>2019-12-03T06:54:12Z</time>
      </trkpt>
      <trkpt lat="59.335113" lon="18.079075">
        <ele>9</ele>
        <time>2019-12-03T06:54:13Z</time>
      </trkpt>
      <trkpt lat="59.335136" lon="18.079098">
        <ele>0</ele>
        <time>2019-12-03T06:54:14Z</time>
      </trkpt>
      <trkpt lat="59.335159" lon="18.079113">
        <ele>9</ele>
        <time>2019-12-03T06:54:15Z</time>
      </trkpt>
      <trkpt lat="59.335182" lon="18.079134">
        <ele>9</ele>
        <time>2019-12-03T06:54:17Z</time>
      </trkpt>
      <trkpt lat="59.335207" lon="18.079159">
        <ele>0</ele>
        <time>2019-12-03T06:54:17Z</time>
      </trkpt>
      <trkpt lat="59.335231" lon="18.079187">
        <ele>9</ele>
        <time>2019-12-03T06:54:18Z</time>
      </trkpt>
      <trkpt lat="59.335253" lon="18.079214">
        <ele>10</ele>
        <time>2019-12-03T06:54:20Z</time>
      </trkpt>
      <trkpt lat="59.335275" lon="18.079235">
        <ele>10</ele>
        <time>2019-12-03T06:54:21Z</time>
      </trkpt>
      <trkpt lat="59.335294" lon="18.079252">
        <ele>10</ele>
        <time>2019-12-03T06:54:22Z</time>
      </trkpt>
      <trkpt lat="59.335318" lon="18.07927">
        <ele>10</ele>
        <time>2019-12-03T06:54:23Z</time>
      </trkpt>
      <trkpt lat="59.335343" lon="18.079297">
        <ele>10</ele>
        <time>2019-12-03T06:54:24Z</time>
      </trkpt>
      <trkpt lat="59.335366" lon="18.079323">
        <ele>10</ele>
        <time>2019-12-03T06:54:25Z</time>
      </trkpt>
      <trkpt lat="59.33539" lon="18.079346">
        <ele>0</ele>
        <time>2019-12-03T06:54:25Z</time>
      </trkpt>
      <trkpt lat="59.335415" lon="18.079364">
        <ele>10</ele>
        <time>2019-12-03T06:54:26Z</time>
      </trkpt>
      <trkpt lat="59.335439" lon="18.079376">
        <ele>11</ele>
        <time>2019-12-03T06:54:28Z</time>
      </trkpt>
      <trkpt lat="59.335464" lon="18.079394">
        <ele>0</ele>
        <time>2019-12-03T06:54:28Z</time>
      </trkpt>
      <trkpt lat="59.335489" lon="18.079419">
        <ele>11</ele>
        <time>2019-12-03T06:54:29Z</time>
      </trkpt>
      <trkpt lat="59.335514" lon="18.079439">
        <ele>11</ele>
        <time>2019-12-03T06:54:31Z</time>
      </trkpt>
      <trkpt lat="59.335535" lon="18.079462">
        <ele>0</ele>
        <time>2019-12-03T06:54:31Z</time>
      </trkpt>
      <trkpt lat="59.335559" lon="18.079486">
        <ele>11</ele>
        <time>2019-12-03T06:54:32Z</time>
      </trkpt>
      <trkpt lat="59.33558" lon="18.079515">
        <ele>0</ele>
        <time>2019-12-03T06:54:33Z</time>
      </trkpt>
      <trkpt lat="59.335599" lon="18.079545">
        <ele>11</ele>
        <time>2019-12-03T06:54:34Z</time>
      </trkpt>
      <trkpt lat="59.335624" lon="18.079575">
        <ele>12</ele>
        <time>2019-12-03T06:54:36Z</time>
      </trkpt>
      <trkpt lat="59.335647" lon="18.079601">
        <ele>0</ele>
        <time>2019-12-03T06:54:36Z</time>
      </trkpt>
      <trkpt lat="59.335668" lon="18.079628">
        <ele>12</ele>
        <time>2019-12-03T06:54:37Z</time>
      </trkpt>
      <trkpt lat="59.335693" lon="18.079654">
        <ele>13</ele>
        <time>2019-12-03T06:54:39Z</time>
      </trkpt>
      <trkpt lat="59.335719" lon="18.079679">
        <ele>13</ele>
        <time>2019-12-03T06:54:40Z</time>
      </trkpt>
      <trkpt lat="59.335744" lon="18.0797">
        <ele>13</ele>
        <time>2019-12-03T06:54:41Z</time>
      </trkpt>
      <trkpt lat="59.335768" lon="18.079714">
        <ele>13</ele>
        <time>2019-12-03T06:54:42Z</time>
      </trkpt>
      <trkpt lat="59.335794" lon="18.079727">
        <ele>0</ele>
        <time>2019-12-03T06:54:42Z</time>
      </trkpt>
      <trkpt lat="59.335819" lon="18.079742">
        <ele>15</ele>
        <time>2019-12-03T06:54:43Z</time>
      </trkpt>
      <trkpt lat="59.335854" lon="18.079765">
        <ele>0</ele>
        <time>2019-12-03T06:54:44Z</time>
      </trkpt>
      <trkpt lat="59.335879" lon="18.079775">
        <ele>14</ele>
        <time>2019-12-03T06:54:45Z</time>
      </trkpt>
      <trkpt lat="59.335907" lon="18.079787">
        <ele>0</ele>
        <time>2019-12-03T06:54:46Z</time>
      </trkpt>
      <trkpt lat="59.335934" lon="18.0798">
        <ele>15</ele>
        <time>2019-12-03T06:54:47Z</time>
      </trkpt>
      <trkpt lat="59.335964" lon="18.079823">
        <ele>15</ele>
        <time>2019-12-03T06:54:49Z</time>
      </trkpt>
      <trkpt lat="59.335996" lon="18.079842">
        <ele>0</ele>
        <time>2019-12-03T06:54:49Z</time>
      </trkpt>
      <trkpt lat="59.336028" lon="18.079861">
        <ele>15</ele>
        <time>2019-12-03T06:54:50Z</time>
      </trkpt>
      <trkpt lat="59.336058" lon="18.079877">
        <ele>15</ele>
        <time>2019-12-03T06:54:51Z</time>
      </trkpt>
      <trkpt lat="59.336088" lon="18.07989">
        <ele>0</ele>
        <time>2019-12-03T06:54:52Z</time>
      </trkpt>
      <trkpt lat="59.336117" lon="18.0799">
        <ele>16</ele>
        <time>2019-12-03T06:54:53Z</time>
      </trkpt>
      <trkpt lat="59.336148" lon="18.079914">
        <ele>16</ele>
        <time>2019-12-03T06:54:55Z</time>
      </trkpt>
      <trkpt lat="59.336177" lon="18.079932">
        <ele>16</ele>
        <time>2019-12-03T06:54:56Z</time>
      </trkpt>
      <trkpt lat="59.336205" lon="18.079946">
        <ele>16</ele>
        <time>2019-12-03T06:54:57Z</time>
      </trkpt>
      <trkpt lat="59.336235" lon="18.079961">
        <ele>16</ele>
        <time>2019-12-03T06:54:58Z</time>
      </trkpt>
      <trkpt lat="59.336262" lon="18.079976">
        <ele>0</ele>
        <time>2019-12-03T06:54:58Z</time>
      </trkpt>
      <trkpt lat="59.336294" lon="18.079992">
        <ele>16</ele>
        <time>2019-12-03T06:54:59Z</time>
      </trkpt>
      <trkpt lat="59.336328" lon="18.080008">
        <ele>15</ele>
        <time>2019-12-03T06:55:01Z</time>
      </trkpt>
      <trkpt lat="59.33636" lon="18.080023">
        <ele>15</ele>
        <time>2019-12-03T06:55:02Z</time>
      </trkpt>
      <trkpt lat="59.33639" lon="18.080044">
        <ele>0</ele>
        <time>2019-12-03T06:55:02Z</time>
      </trkpt>
      <trkpt lat="59.336424" lon="18.080055">
        <ele>15</ele>
        <time>2019-12-03T06:55:03Z</time>
      </trkpt>
      <trkpt lat="59.336457" lon="18.080068">
        <ele>15</ele>
        <time>2019-12-03T06:55:04Z</time>
      </trkpt>
      <trkpt lat="59.336489" lon="18.080087">
        <ele>0</ele>
        <time>2019-12-03T06:55:05Z</time>
      </trkpt>
      <trkpt lat="59.336519" lon="18.080109">
        <ele>15</ele>
        <time>2019-12-03T06:55:06Z</time>
      </trkpt>
      <trkpt lat="59.336551" lon="18.08013">
        <ele>14</ele>
        <time>2019-12-03T06:55:08Z</time>
      </trkpt>
      <trkpt lat="59.336583" lon="18.080147">
        <ele>0</ele>
        <time>2019-12-03T06:55:08Z</time>
      </trkpt>
      <trkpt lat="59.336616" lon="18.080164">
        <ele>14</ele>
        <time>2019-12-03T06:55:09Z</time>
      </trkpt>
      <trkpt lat="59.336648" lon="18.080183">
        <ele>14</ele>
        <time>2019-12-03T06:55:10Z</time>
      </trkpt>
      <trkpt lat="59.336676" lon="18.0802">
        <ele>0</ele>
        <time>2019-12-03T06:55:11Z</time>
      </trkpt>
      <trkpt lat="59.336705" lon="18.080221">
        <ele>14</ele>
        <time>2019-12-03T06:55:12Z</time>
      </trkpt>
      <trkpt lat="59.336733" lon="18.080243">
        <ele>14</ele>
        <time>2019-12-03T06:55:14Z</time>
      </trkpt>
      <trkpt lat="59.336762" lon="18.080264">
        <ele>0</ele>
        <time>2019-12-03T06:55:14Z</time>
      </trkpt>
      <trkpt lat="59.336792" lon="18.080281">
        <ele>14</ele>
        <time>2019-12-03T06:55:15Z</time>
      </trkpt>
      <trkpt lat="59.33682" lon="18.080302">
        <ele>14</ele>
        <time>2019-12-03T06:55:17Z</time>
      </trkpt>
      <trkpt lat="59.336848" lon="18.08032">
        <ele>13</ele>
        <time>2019-12-03T06:55:18Z</time>
      </trkpt>
      <trkpt lat="59.336873" lon="18.080342">
        <ele>0</ele>
        <time>2019-12-03T06:55:18Z</time>
      </trkpt>
      <trkpt lat="59.336898" lon="18.08037">
        <ele>13</ele>
        <time>2019-12-03T06:55:19Z</time>
      </trkpt>
      <trkpt lat="59.336926" lon="18.080394">
        <ele>13</ele>
        <time>2019-12-03T06:55:21Z</time>
      </trkpt>
      <trkpt lat="59.336956" lon="18.080416">
        <ele>13</ele>
        <time>2019-12-03T06:55:22Z</time>
      </trkpt>
      <trkpt lat="59.336985" lon="18.080437">
        <ele>13</ele>
        <time>2019-12-03T06:55:23Z</time>
      </trkpt>
      <trkpt lat="59.337013" lon="18.080458">
        <ele>13</ele>
        <time>2019-12-03T06:55:24Z</time>
      </trkpt>
      <trkpt lat="59.337041" lon="18.080481">
        <ele>13</ele>
        <time>2019-12-03T06:55:25Z</time>
      </trkpt>
      <trkpt lat="59.337067" lon="18.080505">
        <ele>13</ele>
        <time>2019-12-03T06:55:26Z</time>
      </trkpt>
      <trkpt lat="59.337097" lon="18.080521">
        <ele>0</ele>
        <time>2019-12-03T06:55:26Z</time>
      </trkpt>
      <trkpt lat="59.337127" lon="18.080539">
        <ele>13</ele>
        <time>2019-12-03T06:55:27Z</time>
      </trkpt>
      <trkpt lat="59.337148" lon="18.080579">
        <ele>0</ele>
        <time>2019-12-03T06:55:28Z</time>
      </trkpt>
      <trkpt lat="59.337167" lon="18.080626">
        <ele>14</ele>
        <time>2019-12-03T06:55:29Z</time>
      </trkpt>
      <trkpt lat="59.337188" lon="18.080662">
        <ele>0</ele>
        <time>2019-12-03T06:55:30Z</time>
      </trkpt>
      <trkpt lat="59.337212" lon="18.080694">
        <ele>15</ele>
        <time>2019-12-03T06:55:31Z</time>
      </trkpt>
      <trkpt lat="59.337242" lon="18.080719">
        <ele>15</ele>
        <time>2019-12-03T06:55:33Z</time>
      </trkpt>
      <trkpt lat="59.337271" lon="18.080737">
        <ele>0</ele>
        <time>2019-12-03T06:55:33Z</time>
      </trkpt>
      <trkpt lat="59.3373" lon="18.080758">
        <ele>15</ele>
        <time>2019-12-03T06:55:34Z</time>
      </trkpt>
      <trkpt lat="59.337326" lon="18.080785">
        <ele>15</ele>
        <time>2019-12-03T06:55:35Z</time>
      </trkpt>
      <trkpt lat="59.337354" lon="18.080806">
        <ele>15</ele>
        <time>2019-12-03T06:55:37Z</time>
      </trkpt>
      <trkpt lat="59.337384" lon="18.080822">
        <ele>0</ele>
        <time>2019-12-03T06:55:37Z</time>
      </trkpt>
      <trkpt lat="59.337416" lon="18.08084">
        <ele>15</ele>
        <time>2019-12-03T06:55:38Z</time>
      </trkpt>
      <trkpt lat="59.337443" lon="18.080863">
        <ele>16</ele>
        <time>2019-12-03T06:55:40Z</time>
      </trkpt>
      <trkpt lat="59.337473" lon="18.080881">
        <ele>16</ele>
        <time>2019-12-03T06:55:41Z</time>
      </trkpt>
      <trkpt lat="59.3375" lon="18.080905">
        <ele>16</ele>
        <time>2019-12-03T06:55:42Z</time>
      </trkpt>
      <trkpt lat="59.33753" lon="18.080919">
        <ele>0</ele>
        <time>2019-12-03T06:55:42Z</time>
      </trkpt>
      <trkpt lat="59.337557" lon="18.080938">
        <ele>16</ele>
        <time>2019-12-03T06:55:43Z</time>
      </trkpt>
      <trkpt lat="59.337583" lon="18.080956">
        <ele>16</ele>
        <time>2019-12-03T06:55:45Z</time>
      </trkpt>
      <trkpt lat="59.337611" lon="18.080978">
        <ele>0</ele>
        <time>2019-12-03T06:55:45Z</time>
      </trkpt>
      <trkpt lat="59.337636" lon="18.081003">
        <ele>16</ele>
        <time>2019-12-03T06:55:46Z</time>
      </trkpt>
      <trkpt lat="59.337665" lon="18.081025">
        <ele>0</ele>
        <time>2019-12-03T06:55:47Z</time>
      </trkpt>
      <trkpt lat="59.337695" lon="18.081045">
        <ele>15</ele>
        <time>2019-12-03T06:55:48Z</time>
      </trkpt>
      <trkpt lat="59.337727" lon="18.08106">
        <ele>0</ele>
        <time>2019-12-03T06:55:49Z</time>
      </trkpt>
      <trkpt lat="59.337757" lon="18.081073">
        <ele>15</ele>
        <time>2019-12-03T06:55:50Z</time>
      </trkpt>
      <trkpt lat="59.337786" lon="18.081088">
        <ele>0</ele>
        <time>2019-12-03T06:55:51Z</time>
      </trkpt>
      <trkpt lat="59.337817" lon="18.081103">
        <ele>15</ele>
        <time>2019-12-03T06:55:52Z</time>
      </trkpt>
      <trkpt lat="59.33785" lon="18.08112">
        <ele>14</ele>
        <time>2019-12-03T06:55:54Z</time>
      </trkpt>
      <trkpt lat="59.337878" lon="18.081143">
        <ele>0</ele>
        <time>2019-12-03T06:55:54Z</time>
      </trkpt>
      <trkpt lat="59.337905" lon="18.081163">
        <ele>14</ele>
        <time>2019-12-03T06:55:55Z</time>
      </trkpt>
      <trkpt lat="59.337933" lon="18.081183">
        <ele>14</ele>
        <time>2019-12-03T06:55:57Z</time>
      </trkpt>
      <trkpt lat="59.33796" lon="18.081199">
        <ele>14</ele>
        <time>2019-12-03T06:55:58Z</time>
      </trkpt>
      <trkpt lat="59.337992" lon="18.081217">
        <ele>13</ele>
        <time>2019-12-03T06:55:59Z</time>
      </trkpt>
      <trkpt lat="59.338022" lon="18.081229">
        <ele>0</ele>
        <time>2019-12-03T06:55:59Z</time>
      </trkpt>
      <trkpt lat="59.338051" lon="18.081248">
        <ele>13</ele>
        <time>2019-12-03T06:56:00Z</time>
      </trkpt>
      <trkpt lat="59.338077" lon="18.081267">
        <ele>13</ele>
        <time>2019-12-03T06:56:02Z</time>
      </trkpt>
      <trkpt lat="59.338104" lon="18.081291">
        <ele>0</ele>
        <time>2019-12-03T06:56:02Z</time>
      </trkpt>
      <trkpt lat="59.338127" lon="18.081323">
        <ele>13</ele>
        <time>2019-12-03T06:56:03Z</time>
      </trkpt>
      <trkpt lat="59.338154" lon="18.08134">
        <ele>13</ele>
        <time>2019-12-03T06:56:05Z</time>
      </trkpt>
      <trkpt lat="59.338184" lon="18.081355">
        <ele>0</ele>
        <time>2019-12-03T06:56:05Z</time>
      </trkpt>
      <trkpt lat="59.33821" lon="18.081381">
        <ele>12</ele>
        <time>2019-12-03T06:56:06Z</time>
      </trkpt>
      <trkpt lat="59.33824" lon="18.081394">
        <ele>12</ele>
        <time>2019-12-03T06:56:07Z</time>
      </trkpt>
      <trkpt lat="59.338266" lon="18.081412">
        <ele>13</ele>
        <time>2019-12-03T06:56:08Z</time>
      </trkpt>
      <trkpt lat="59.338293" lon="18.081445">
        <ele>15</ele>
        <time>2019-12-03T06:56:10Z</time>
      </trkpt>
      <trkpt lat="59.338313" lon="18.081505">
        <ele>0</ele>
        <time>2019-12-03T06:56:10Z</time>
      </trkpt>
      <trkpt lat="59.338328" lon="18.081558">
        <ele>15</ele>
        <time>2019-12-03T06:56:11Z</time>
      </trkpt>
      <trkpt lat="59.338348" lon="18.081599">
        <ele>16</ele>
        <time>2019-12-03T06:56:13Z</time>
      </trkpt>
      <trkpt lat="59.338367" lon="18.081637">
        <ele>16</ele>
        <time>2019-12-03T06:56:14Z</time>
      </trkpt>
      <trkpt lat="59.338393" lon="18.081661">
        <ele>17</ele>
        <time>2019-12-03T06:56:15Z</time>
      </trkpt>
      <trkpt lat="59.338415" lon="18.081687">
        <ele>17</ele>
        <time>2019-12-03T06:56:16Z</time>
      </trkpt>
      <trkpt lat="59.338437" lon="18.081718">
        <ele>17</ele>
        <time>2019-12-03T06:56:17Z</time>
      </trkpt>
      <trkpt lat="59.338466" lon="18.081737">
        <ele>16</ele>
        <time>2019-12-03T06:56:18Z</time>
      </trkpt>
      <trkpt lat="59.338495" lon="18.081757">
        <ele>0</ele>
        <time>2019-12-03T06:56:18Z</time>
      </trkpt>
      <trkpt lat="59.338524" lon="18.081771">
        <ele>16</ele>
        <time>2019-12-03T06:56:19Z</time>
      </trkpt>
      <trkpt lat="59.338553" lon="18.081789">
        <ele>16</ele>
        <time>2019-12-03T06:56:21Z</time>
      </trkpt>
      <trkpt lat="59.33858" lon="18.081806">
        <ele>0</ele>
        <time>2019-12-03T06:56:21Z</time>
      </trkpt>
      <trkpt lat="59.33861" lon="18.081823">
        <ele>16</ele>
        <time>2019-12-03T06:56:22Z</time>
      </trkpt>
      <trkpt lat="59.338639" lon="18.081843">
        <ele>16</ele>
        <time>2019-12-03T06:56:24Z</time>
      </trkpt>
      <trkpt lat="59.338666" lon="18.081862">
        <ele>0</ele>
        <time>2019-12-03T06:56:24Z</time>
      </trkpt>
      <trkpt lat="59.338697" lon="18.08188">
        <ele>16</ele>
        <time>2019-12-03T06:56:25Z</time>
      </trkpt>
      <trkpt lat="59.338725" lon="18.081902">
        <ele>16</ele>
        <time>2019-12-03T06:56:27Z</time>
      </trkpt>
      <trkpt lat="59.338753" lon="18.081922">
        <ele>0</ele>
        <time>2019-12-03T06:56:27Z</time>
      </trkpt>
      <trkpt lat="59.33878" lon="18.081939">
        <ele>16</ele>
        <time>2019-12-03T06:56:28Z</time>
      </trkpt>
      <trkpt lat="59.338807" lon="18.08196">
        <ele>16</ele>
        <time>2019-12-03T06:56:30Z</time>
      </trkpt>
      <trkpt lat="59.338835" lon="18.08198">
        <ele>0</ele>
        <time>2019-12-03T06:56:30Z</time>
      </trkpt>
      <trkpt lat="59.338864" lon="18.082">
        <ele>16</ele>
        <time>2019-12-03T06:56:31Z</time>
      </trkpt>
      <trkpt lat="59.338891" lon="18.082019">
        <ele>16</ele>
        <time>2019-12-03T06:56:33Z</time>
      </trkpt>
      <trkpt lat="59.338918" lon="18.082037">
        <ele>0</ele>
        <time>2019-12-03T06:56:33Z</time>
      </trkpt>
      <trkpt lat="59.338945" lon="18.082061">
        <ele>16</ele>
        <time>2019-12-03T06:56:34Z</time>
      </trkpt>
      <trkpt lat="59.338974" lon="18.082078">
        <ele>16</ele>
        <time>2019-12-03T06:56:36Z</time>
      </trkpt>
      <trkpt lat="59.339001" lon="18.082101">
        <ele>15</ele>
        <time>2019-12-03T06:56:37Z</time>
      </trkpt>
      <trkpt lat="59.339028" lon="18.082119">
        <ele>15</ele>
        <time>2019-12-03T06:56:38Z</time>
      </trkpt>
      <trkpt lat="59.339057" lon="18.082138">
        <ele>15</ele>
        <time>2019-12-03T06:56:39Z</time>
      </trkpt>
      <trkpt lat="59.339087" lon="18.082147">
        <ele>15</ele>
        <time>2019-12-03T06:56:40Z</time>
      </trkpt>
      <trkpt lat="59.339117" lon="18.082157">
        <ele>15</ele>
        <time>2019-12-03T06:56:41Z</time>
      </trkpt>
      <trkpt lat="59.339146" lon="18.08217">
        <ele>0</ele>
        <time>2019-12-03T06:56:41Z</time>
      </trkpt>
      <trkpt lat="59.339169" lon="18.082199">
        <ele>16</ele>
        <time>2019-12-03T06:56:42Z</time>
      </trkpt>
      <trkpt lat="59.33919" lon="18.082242">
        <ele>17</ele>
        <time>2019-12-03T06:56:44Z</time>
      </trkpt>
      <trkpt lat="59.33921" lon="18.082291">
        <ele>0</ele>
        <time>2019-12-03T06:56:44Z</time>
      </trkpt>
      <trkpt lat="59.339231" lon="18.082338">
        <ele>17</ele>
        <time>2019-12-03T06:56:45Z</time>
      </trkpt>
      <trkpt lat="59.339255" lon="18.08237">
        <ele>0</ele>
        <time>2019-12-03T06:56:46Z</time>
      </trkpt>
      <trkpt lat="59.33928" lon="18.082406">
        <ele>18</ele>
        <time>2019-12-03T06:56:47Z</time>
      </trkpt>
      <trkpt lat="59.339302" lon="18.082451">
        <ele>19</ele>
        <time>2019-12-03T06:56:49Z</time>
      </trkpt>
      <trkpt lat="59.339323" lon="18.082491">
        <ele>0</ele>
        <time>2019-12-03T06:56:49Z</time>
      </trkpt>
      <trkpt lat="59.339346" lon="18.082526">
        <ele>19</ele>
        <time>2019-12-03T06:56:50Z</time>
      </trkpt>
      <trkpt lat="59.339365" lon="18.082567">
        <ele>19</ele>
        <time>2019-12-03T06:56:52Z</time>
      </trkpt>
      <trkpt lat="59.339381" lon="18.082612">
        <ele>0</ele>
        <time>2019-12-03T06:56:52Z</time>
      </trkpt>
      <trkpt lat="59.339393" lon="18.082665">
        <ele>19</ele>
        <time>2019-12-03T06:56:53Z</time>
      </trkpt>
      <trkpt lat="59.339405" lon="18.082721">
        <ele>20</ele>
        <time>2019-12-03T06:56:55Z</time>
      </trkpt>
      <trkpt lat="59.339411" lon="18.082772">
        <ele>20</ele>
        <time>2019-12-03T06:56:56Z</time>
      </trkpt>
      <trkpt lat="59.339403" lon="18.082826">
        <ele>20</ele>
        <time>2019-12-03T06:56:57Z</time>
      </trkpt>
      <trkpt lat="59.339393" lon="18.082874">
        <ele>0</ele>
        <time>2019-12-03T06:56:57Z</time>
      </trkpt>
      <trkpt lat="59.339382" lon="18.082927">
        <ele>19</ele>
        <time>2019-12-03T06:56:58Z</time>
      </trkpt>
      <trkpt lat="59.339368" lon="18.082971">
        <ele>19</ele>
        <time>2019-12-03T06:56:59Z</time>
      </trkpt>
      <trkpt lat="59.339349" lon="18.083024">
        <ele>20</ele>
        <time>2019-12-03T06:57:01Z</time>
      </trkpt>
      <trkpt lat="59.33933" lon="18.083074">
        <ele>19</ele>
        <time>2019-12-03T06:57:01Z</time>
      </trkpt>
      <trkpt lat="59.339314" lon="18.083128">
        <ele>20</ele>
        <time>2019-12-03T06:57:02Z</time>
      </trkpt>
      <trkpt lat="59.339298" lon="18.083183">
        <ele>0</ele>
        <time>2019-12-03T06:57:03Z</time>
      </trkpt>
      <trkpt lat="59.339285" lon="18.083238">
        <ele>20</ele>
        <time>2019-12-03T06:57:04Z</time>
      </trkpt>
      <trkpt lat="59.339269" lon="18.083291">
        <ele>0</ele>
        <time>2019-12-03T06:57:05Z</time>
      </trkpt>
      <trkpt lat="59.339252" lon="18.083338">
        <ele>20</ele>
        <time>2019-12-03T06:57:06Z</time>
      </trkpt>
      <trkpt lat="59.339236" lon="18.083391">
        <ele>19</ele>
        <time>2019-12-03T06:57:08Z</time>
      </trkpt>
      <trkpt lat="59.339218" lon="18.083441">
        <ele>0</ele>
        <time>2019-12-03T06:57:08Z</time>
      </trkpt>
      <trkpt lat="59.339205" lon="18.083477">
        <ele>19</ele>
        <time>2019-12-03T06:57:09Z</time>
      </trkpt>
      <trkpt lat="59.339205" lon="18.083514">
        <ele>19</ele>
        <time>2019-12-03T06:57:11Z</time>
      </trkpt>
      <trkpt lat="59.339215" lon="18.083574">
        <ele>19</ele>
        <time>2019-12-03T06:57:12Z</time>
      </trkpt>
      <trkpt lat="59.339253" lon="18.083633">
        <ele>18</ele>
        <time>2019-12-03T06:57:14Z</time>
      </trkpt>
      <trkpt lat="59.339286" lon="18.08366">
        <ele>0</ele>
        <time>2019-12-03T06:57:14Z</time>
      </trkpt>
      <trkpt lat="59.339325" lon="18.083692">
        <ele>17</ele>
        <time>2019-12-03T06:57:15Z</time>
      </trkpt>
      <trkpt lat="59.339361" lon="18.083721">
        <ele>17</ele>
        <time>2019-12-03T06:57:17Z</time>
      </trkpt>
      <trkpt lat="59.339392" lon="18.083745">
        <ele>0</ele>
        <time>2019-12-03T06:57:17Z</time>
      </trkpt>
      <trkpt lat="59.33942" lon="18.083774">
        <ele>17</ele>
        <time>2019-12-03T06:57:18Z</time>
      </trkpt>
      <trkpt lat="59.339447" lon="18.083801">
        <ele>16</ele>
        <time>2019-12-03T06:57:20Z</time>
      </trkpt>
      <trkpt lat="59.339471" lon="18.083823">
        <ele>16</ele>
        <time>2019-12-03T06:57:21Z</time>
      </trkpt>
      <trkpt lat="59.339497" lon="18.08385">
        <ele>15</ele>
        <time>2019-12-03T06:57:22Z</time>
      </trkpt>
      <trkpt lat="59.339523" lon="18.083877">
        <ele>0</ele>
        <time>2019-12-03T06:57:22Z</time>
      </trkpt>
      <trkpt lat="59.339552" lon="18.083905">
        <ele>15</ele>
        <time>2019-12-03T06:57:23Z</time>
      </trkpt>
      <trkpt lat="59.339576" lon="18.083932">
        <ele>0</ele>
        <time>2019-12-03T06:57:24Z</time>
      </trkpt>
      <trkpt lat="59.339603" lon="18.083953">
        <ele>15</ele>
        <time>2019-12-03T06:57:25Z</time>
      </trkpt>
      <trkpt lat="59.339629" lon="18.083977">
        <ele>14</ele>
        <time>2019-12-03T06:57:27Z</time>
      </trkpt>
      <trkpt lat="59.33966" lon="18.083993">
        <ele>0</ele>
        <time>2019-12-03T06:57:27Z</time>
      </trkpt>
      <trkpt lat="59.339688" lon="18.084026">
        <ele>14</ele>
        <time>2019-12-03T06:57:28Z</time>
      </trkpt>
      <trkpt lat="59.339713" lon="18.084068">
        <ele>15</ele>
        <time>2019-12-03T06:57:30Z</time>
      </trkpt>
      <trkpt lat="59.339735" lon="18.084114">
        <ele>0</ele>
        <time>2019-12-03T06:57:30Z</time>
      </trkpt>
      <trkpt lat="59.339759" lon="18.084153">
        <ele>15</ele>
        <time>2019-12-03T06:57:31Z</time>
      </trkpt>
      <trkpt lat="59.339784" lon="18.08419">
        <ele>15</ele>
        <time>2019-12-03T06:57:32Z</time>
      </trkpt>
      <trkpt lat="59.339808" lon="18.084221">
        <ele>15</ele>
        <time>2019-12-03T06:57:34Z</time>
      </trkpt>
      <trkpt lat="59.339835" lon="18.084255">
        <ele>0</ele>
        <time>2019-12-03T06:57:34Z</time>
      </trkpt>
      <trkpt lat="59.339862" lon="18.084283">
        <ele>15</ele>
        <time>2019-12-03T06:57:35Z</time>
      </trkpt>
      <trkpt lat="59.339891" lon="18.08431">
        <ele>15</ele>
        <time>2019-12-03T06:57:37Z</time>
      </trkpt>
      <trkpt lat="59.339923" lon="18.084331">
        <ele>15</ele>
        <time>2019-12-03T06:57:38Z</time>
      </trkpt>
      <trkpt lat="59.339958" lon="18.084349">
        <ele>15</ele>
        <time>2019-12-03T06:57:39Z</time>
      </trkpt>
      <trkpt lat="59.339989" lon="18.084371">
        <ele>15</ele>
        <time>2019-12-03T06:57:40Z</time>
      </trkpt>
      <trkpt lat="59.340018" lon="18.084395">
        <ele>15</ele>
        <time>2019-12-03T06:57:41Z</time>
      </trkpt>
      <trkpt lat="59.340044" lon="18.08442">
        <ele>0</ele>
        <time>2019-12-03T06:57:41Z</time>
      </trkpt>
      <trkpt lat="59.340075" lon="18.084448">
        <ele>15</ele>
        <time>2019-12-03T06:57:42Z</time>
      </trkpt>
      <trkpt lat="59.340107" lon="18.084463">
        <ele>0</ele>
        <time>2019-12-03T06:57:43Z</time>
      </trkpt>
      <trkpt lat="59.340138" lon="18.084477">
        <ele>15</ele>
        <time>2019-12-03T06:57:44Z</time>
      </trkpt>
      <trkpt lat="59.340172" lon="18.084492">
        <ele>15</ele>
        <time>2019-12-03T06:57:46Z</time>
      </trkpt>
      <trkpt lat="59.340201" lon="18.084512">
        <ele>0</ele>
        <time>2019-12-03T06:57:46Z</time>
      </trkpt>
      <trkpt lat="59.340235" lon="18.084527">
        <ele>15</ele>
        <time>2019-12-03T06:57:47Z</time>
      </trkpt>
      <trkpt lat="59.340267" lon="18.084541">
        <ele>15</ele>
        <time>2019-12-03T06:57:48Z</time>
      </trkpt>
      <trkpt lat="59.340301" lon="18.084552">
        <ele>15</ele>
        <time>2019-12-03T06:57:50Z</time>
      </trkpt>
      <trkpt lat="59.340332" lon="18.084566">
        <ele>0</ele>
        <time>2019-12-03T06:57:50Z</time>
      </trkpt>
      <trkpt lat="59.340367" lon="18.084579">
        <ele>15</ele>
        <time>2019-12-03T06:57:51Z</time>
      </trkpt>
      <trkpt lat="59.340398" lon="18.084598">
        <ele>16</ele>
        <time>2019-12-03T06:57:53Z</time>
      </trkpt>
      <trkpt lat="59.340421" lon="18.084636">
        <ele>16</ele>
        <time>2019-12-03T06:57:54Z</time>
      </trkpt>
      <trkpt lat="59.340439" lon="18.084689">
        <ele>17</ele>
        <time>2019-12-03T06:57:55Z</time>
      </trkpt>
      <trkpt lat="59.340458" lon="18.084734">
        <ele>17</ele>
        <time>2019-12-03T06:57:56Z</time>
      </trkpt>
      <trkpt lat="59.340471" lon="18.084774">
        <ele>17</ele>
        <time>2019-12-03T06:57:57Z</time>
      </trkpt>
      <trkpt lat="59.340479" lon="18.084813">
        <ele>18</ele>
        <time>2019-12-03T06:57:58Z</time>
      </trkpt>
      <trkpt lat="59.340487" lon="18.084863">
        <ele>0</ele>
        <time>2019-12-03T06:57:58Z</time>
      </trkpt>
      <trkpt lat="59.340484" lon="18.084921">
        <ele>18</ele>
        <time>2019-12-03T06:57:59Z</time>
      </trkpt>
      <trkpt lat="59.340477" lon="18.084977">
        <ele>18</ele>
        <time>2019-12-03T06:58:00Z</time>
      </trkpt>
      <trkpt lat="59.34047" lon="18.085021">
        <ele>18</ele>
        <time>2019-12-03T06:58:01Z</time>
      </trkpt>
    </trkseg>
  </trk>
</gpx>